[[{"header":{"parameterUnit":"m.s-1","parameterCategory":1,"la1":30.6,"la2":29.2853,"lo1":-89.7004,"lo2":-87.6739,"dy":0.0162,"dx":0.0183,"nx":112,"ny":82,"refTime":"2023-03-16T18:00:00:Z","depth":0,"parameterNumber":2,"parameterNumberName":"U-component_of_WINDS"},"data":[0.0,0.0,0.0,0.0,0.0,0.0,0.0,0.0,0.0,0.0,0.0,0.0,0.0,0.0,0.0,0.0,0.0,0.0,0.0,0.0,0.0,0.0,0.0,0.0,0.0,0.0,0.0,0.0,0.0,0.0,0.0,0.0,0.0,0.0,0.0,0.0,0.0,0.0,0.0,0.0,0.0,0.0,0.0,0.0,0.0,0.0,0.0,0.0,0.0,0.0,0.0,0.0,0.0,0.0,0.0,0.0,0.0,0.0,0.0,0.0,0.0,0.0,0.0,0.0,0.0,0.0,0.0,0.0,0.0,0.0,0.0,0.0,0.0,0.0,0.0,0.0,0.0,0.0,0.0,0.0,0.0,0.0,0.0,0.0,0.0,0.0,0.0,0.0,0.0,0.0,0.0,3.9814,4.043,4.0812,4.0812,4.0812,4.1076,4.1709,0.0,0.0,0.0,0.0,0.0,0.0,0.0,0.0,0.0,0.0,0.0,0.0,0.0,0.0,0.0,0.0,0.0,0.0,0.0,0.0,0.0,0.0,0.0,0.0,0.0,0.0,0.0,0.0,0.0,0.0,0.0,0.0,0.0,0.0,0.0,0.0,0.0,0.0,0.0,0.0,0.0,0.0,0.0,0.0,0.0,0.0,0.0,0.0,0.0,0.0,0.0,0.0,0.0,0.0,0.0,0.0,0.0,0.0,0.0,0.0,0.0,0.0,0.0,0.0,0.0,0.0,0.0,0.0,0.0,0.0,0.0,0.0,0.0,0.0,0.0,0.0,0.0,0.0,0.0,0.0,0.0,0.0,0.0,0.0,0.0,0.0,0.0,0.0,0.0,0.0,0.0,0.0,0.0,0.0,0.0,0.0,0.0,0.0,0.0,0.0,0.0,0.0,0.0,0.0,4.0584,4.1217,4.1876,4.2276,4.2276,4.2276,4.2325,4.2448,0.0,0.0,0.0,0.0,0.0,0.0,0.0,0.0,0.0,0.0,0.0,0.0,0.0,0.0,0.0,0.0,0.0,0.0,0.0,0.0,0.0,0.0,0.0,0.0,0.0,0.0,0.0,0.0,0.0,0.0,0.0,0.0,0.0,0.0,0.0,0.0,0.0,0.0,0.0,0.0,0.0,0.0,0.0,0.0,0.0,0.0,0.0,0.0,0.0,0.0,0.0,0.0,0.0,0.0,0.0,0.0,0.0,0.0,0.0,0.0,0.0,0.0,0.0,0.0,0.0,0.0,0.0,0.0,0.0,0.0,0.0,0.0,0.0,0.0,0.0,0.0,0.0,0.0,0.0,0.0,0.0,0.0,0.0,0.0,0.0,0.0,0.0,0.0,0.0,0.0,0.0,0.0,0.0,0.0,0.0,0.0,0.0,0.0,0.0,0.0,0.0,0.0,0.0,4.123,4.1753,4.2109,4.2417,4.2602,4.2602,4.212,4.2217,4.3076,4.1301,0.0,0.0,0.0,0.0,0.0,0.0,0.0,0.0,0.0,0.0,0.0,0.0,0.0,0.0,0.0,0.0,0.0,0.0,0.0,0.0,0.0,0.0,0.0,0.0,0.0,0.0,0.0,0.0,0.0,0.0,0.0,0.0,0.0,0.0,0.0,0.0,0.0,0.0,0.0,0.0,0.0,0.0,0.0,0.0,0.0,0.0,0.0,0.0,0.0,0.0,0.0,0.0,0.0,0.0,0.0,0.0,0.0,0.0,0.0,0.0,0.0,0.0,0.0,0.0,0.0,0.0,0.0,0.0,0.0,0.0,0.0,0.0,0.0,0.0,0.0,0.0,0.0,0.0,0.0,0.0,0.0,0.0,0.0,0.0,0.0,0.0,0.0,0.0,0.0,0.0,0.0,0.0,0.0,0.0,0.0,0.0,0.0,0.0,0.0,0.0,0.0,0.0,4.2417,4.2848,4.2848,4.2971,4.3063,4.3063,4.221,4.2231,4.3441,4.1577,0.0,0.0,0.0,0.0,0.0,0.0,0.0,0.0,0.0,0.0,0.0,0.0,0.0,0.0,0.0,0.0,0.0,0.0,0.0,0.0,0.0,0.0,0.0,0.0,0.0,0.0,0.0,0.0,0.0,0.0,0.0,0.0,0.0,0.0,0.0,0.0,0.0,0.0,0.0,0.0,0.0,0.0,0.0,0.0,0.0,0.0,0.0,0.0,0.0,0.0,0.0,0.0,0.0,0.0,0.0,0.0,0.0,0.0,0.0,0.0,0.0,0.0,0.0,0.0,0.0,0.0,0.0,0.0,0.0,0.0,0.0,0.0,0.0,0.0,0.0,0.0,0.0,0.0,0.0,0.0,0.0,0.0,0.0,0.0,0.0,0.0,0.0,0.0,0.0,0.0,0.0,0.0,0.0,0.0,0.0,0.0,0.0,0.0,0.0,0.0,0.0,0.0,4.3113,4.3531,4.3531,4.4098,4.4468,4.4468,4.3659,4.3189,4.3308,4.239,0.0,0.0,0.0,0.0,0.0,0.0,0.0,0.0,0.0,0.0,0.0,0.0,0.0,0.0,0.0,0.0,0.0,0.0,0.0,0.0,0.0,0.0,0.0,0.0,0.0,0.0,0.0,0.0,0.0,0.0,0.0,0.0,0.0,0.0,0.0,0.0,0.0,0.0,0.0,0.0,0.0,0.0,0.0,0.0,0.0,0.0,0.0,0.0,0.0,0.0,0.0,0.0,0.0,0.0,0.0,0.0,0.0,0.0,0.0,0.0,0.0,0.0,0.0,0.0,0.0,0.0,0.0,0.0,0.0,0.0,0.0,0.0,0.0,0.0,0.0,0.0,0.0,0.0,0.0,0.0,0.0,0.0,0.0,0.0,0.0,0.0,0.0,0.0,0.0,0.0,0.0,0.0,0.0,0.0,0.0,0.0,0.0,0.0,0.0,0.0,0.0,0.0,4.379,4.4221,0.0,4.3949,4.3791,4.3791,4.2458,4.1989,4.2913,0.0,0.0,0.0,0.0,0.0,0.0,0.0,0.0,0.0,0.0,0.0,0.0,0.0,0.0,0.0,0.0,0.0,0.0,0.0,0.0,0.0,0.0,0.0,0.0,0.0,0.0,0.0,0.0,0.0,0.0,0.0,0.0,0.0,0.0,0.0,0.0,0.0,0.0,0.0,0.0,0.0,0.0,0.0,0.0,0.0,0.0,0.0,0.0,0.0,0.0,0.0,0.0,0.0,0.0,0.0,0.0,0.0,0.0,0.0,0.0,0.0,0.0,0.0,0.0,0.0,0.0,0.0,0.0,0.0,0.0,0.0,0.0,0.0,0.0,0.0,0.0,0.0,0.0,0.0,0.0,0.0,0.0,0.0,0.0,0.0,0.0,0.0,0.0,0.0,0.0,0.0,0.0,0.0,0.0,0.0,0.0,0.0,0.0,0.0,0.0,0.0,0.0,4.3932,4.422,4.4475,0.0,4.3858,4.3423,4.3423,4.2051,4.1601,4.2611,0.0,0.0,0.0,0.0,0.0,0.0,0.0,0.0,0.0,0.0,0.0,0.0,0.0,0.0,0.0,0.0,0.0,0.0,0.0,0.0,0.0,0.0,0.0,0.0,0.0,0.0,0.0,0.0,0.0,0.0,0.0,0.0,0.0,0.0,0.0,0.0,0.0,0.0,0.0,0.0,0.0,0.0,0.0,0.0,0.0,0.0,0.0,0.0,0.0,0.0,0.0,0.0,0.0,0.0,0.0,0.0,0.0,0.0,0.0,0.0,0.0,0.0,0.0,0.0,0.0,0.0,0.0,0.0,0.0,0.0,0.0,0.0,0.0,0.0,0.0,0.0,0.0,0.0,0.0,0.0,0.0,0.0,0.0,0.0,0.0,0.0,0.0,0.0,0.0,0.0,0.0,0.0,0.0,0.0,0.0,0.0,0.0,0.0,0.0,0.0,0.0,0.0,4.4603,4.4366,4.4196,4.4196,4.3881,4.3704,4.3704,4.288,4.2396,0.0,0.0,0.0,0.0,0.0,0.0,0.0,0.0,0.0,0.0,0.0,0.0,0.0,0.0,0.0,0.0,0.0,0.0,0.0,0.0,0.0,0.0,0.0,0.0,0.0,0.0,0.0,0.0,0.0,0.0,0.0,0.0,0.0,0.0,0.0,0.0,0.0,0.0,0.0,0.0,0.0,0.0,0.0,0.0,0.0,0.0,0.0,0.0,0.0,0.0,0.0,0.0,0.0,0.0,0.0,0.0,0.0,0.0,0.0,0.0,0.0,0.0,0.0,0.0,0.0,0.0,0.0,0.0,0.0,0.0,0.0,0.0,0.0,0.0,0.0,0.0,0.0,0.0,0.0,0.0,0.0,0.0,0.0,0.0,0.0,0.0,0.0,0.0,0.0,0.0,0.0,0.0,0.0,0.0,0.0,0.0,0.0,0.0,0.0,0.0,0.0,0.0,0.0,4.4407,4.4678,4.4626,4.3905,4.3227,4.2792,4.2792,4.1809,4.1478,4.2078,0.0,0.0,0.0,0.0,0.0,0.0,0.0,0.0,0.0,0.0,0.0,0.0,0.0,0.0,0.0,0.0,0.0,0.0,0.0,0.0,0.0,0.0,0.0,0.0,0.0,0.0,0.0,0.0,0.0,0.0,0.0,0.0,0.0,0.0,0.0,0.0,0.0,0.0,0.0,0.0,0.0,0.0,0.0,0.0,0.0,0.0,0.0,0.0,0.0,0.0,0.0,0.0,0.0,0.0,0.0,0.0,0.0,0.0,0.0,0.0,0.0,0.0,0.0,0.0,0.0,0.0,0.0,0.0,0.0,0.0,0.0,0.0,0.0,0.0,0.0,0.0,0.0,0.0,0.0,0.0,0.0,0.0,0.0,0.0,0.0,0.0,0.0,0.0,0.0,0.0,0.0,0.0,0.0,0.0,0.0,0.0,0.0,0.0,0.0,0.0,0.0,0.0,4.4666,4.4495,4.4168,4.3443,4.2798,4.2393,4.2273,4.1643,4.1474,4.2019,0.0,0.0,0.0,0.0,0.0,0.0,0.0,0.0,0.0,0.0,0.0,0.0,0.0,0.0,0.0,0.0,0.0,0.0,0.0,0.0,0.0,0.0,0.0,0.0,0.0,0.0,0.0,0.0,0.0,0.0,0.0,0.0,0.0,0.0,0.0,0.0,0.0,0.0,0.0,0.0,0.0,0.0,0.0,0.0,0.0,0.0,0.0,0.0,0.0,0.0,0.0,0.0,0.0,0.0,0.0,0.0,0.0,0.0,0.0,0.0,0.0,0.0,0.0,0.0,0.0,0.0,0.0,0.0,0.0,0.0,0.0,0.0,0.0,0.0,0.0,0.0,0.0,0.0,0.0,0.0,0.0,0.0,0.0,0.0,0.0,0.0,0.0,0.0,0.0,0.0,0.0,0.0,0.0,0.0,0.0,0.0,0.0,0.0,0.0,0.0,0.0,0.0,4.5063,4.4062,4.324,4.2893,4.2641,4.2387,4.2115,4.2065,4.2065,4.209,0.0,0.0,0.0,0.0,0.0,0.0,0.0,0.0,0.0,0.0,0.0,0.0,0.0,0.0,0.0,0.0,0.0,0.0,0.0,0.0,0.0,0.0,0.0,0.0,0.0,0.0,0.0,0.0,0.0,0.0,0.0,0.0,0.0,0.0,0.0,0.0,0.0,0.0,0.0,0.0,0.0,0.0,0.0,0.0,0.0,0.0,0.0,0.0,0.0,0.0,0.0,0.0,0.0,0.0,0.0,0.0,0.0,0.0,0.0,0.0,3.332,0.0,0.0,0.0,0.0,0.0,0.0,0.0,0.0,0.0,0.0,0.0,0.0,0.0,0.0,0.0,0.0,0.0,0.0,0.0,0.0,0.0,0.0,0.0,0.0,0.0,0.0,0.0,0.0,0.0,0.0,0.0,0.0,0.0,0.0,0.0,0.0,0.0,0.0,0.0,0.0,0.0,4.382,4.3929,4.3723,4.2708,4.2528,4.2387,4.2115,4.1919,4.1895,4.209,4.1919,0.0,0.0,0.0,0.0,0.0,0.0,0.0,0.0,0.0,0.0,0.0,0.0,0.0,0.0,0.0,0.0,0.0,0.0,0.0,0.0,0.0,0.0,0.0,0.0,0.0,0.0,0.0,0.0,0.0,0.0,0.0,0.0,0.0,0.0,0.0,0.0,0.0,0.0,0.0,0.0,0.0,0.0,0.0,0.0,0.0,0.0,0.0,0.0,0.0,0.0,0.0,0.0,0.0,0.0,0.0,0.0,0.0,0.0,0.0,0.0,3.4084,0.0,0.0,0.0,0.0,0.0,0.0,0.0,0.0,0.0,0.0,0.0,0.0,0.0,0.0,0.0,0.0,0.0,0.0,0.0,0.0,0.0,0.0,0.0,0.0,0.0,0.0,0.0,0.0,0.0,0.0,0.0,0.0,0.0,0.0,0.0,0.0,0.0,0.0,0.0,0.0,4.3858,4.3582,4.3269,4.2789,4.2619,4.2552,4.2513,4.2414,4.2389,4.2515,4.2414,0.0,0.0,0.0,0.0,0.0,0.0,0.0,0.0,0.0,0.0,0.0,0.0,0.0,0.0,0.0,0.0,0.0,0.0,0.0,0.0,0.0,0.0,0.0,0.0,0.0,0.0,0.0,0.0,0.0,0.0,0.0,0.0,0.0,0.0,0.0,0.0,0.0,0.0,0.0,0.0,0.0,0.0,0.0,0.0,0.0,0.0,0.0,0.0,0.0,0.0,0.0,0.0,0.0,3.5208,3.5678,3.6096,3.6096,3.6149,3.6227,3.5783,3.5783,3.6096,0.0,0.0,0.0,0.0,0.0,0.0,0.0,0.0,0.0,0.0,0.0,0.0,0.0,0.0,0.0,0.0,0.0,0.0,0.0,0.0,0.0,0.0,0.0,0.0,0.0,4.1517,4.0981,0.0,0.0,0.0,0.0,0.0,0.0,0.0,0.0,0.0,0.0,0.0,0.0,4.4199,4.3333,4.2822,4.3103,4.2905,4.2809,4.2971,4.2997,4.2997,4.2997,4.2997,4.3101,0.0,0.0,0.0,0.0,0.0,0.0,0.0,0.0,0.0,0.0,0.0,0.0,0.0,0.0,0.0,0.0,0.0,0.0,0.0,0.0,0.0,0.0,0.0,0.0,0.0,0.0,0.0,0.0,0.0,0.0,0.0,0.0,3.1693,3.1693,0.0,0.0,0.0,0.0,0.0,0.0,0.0,0.0,0.0,0.0,0.0,0.0,0.0,3.5182,3.5652,3.573,3.5809,3.5887,3.5966,3.6044,3.6096,3.6096,3.6384,3.6881,3.6802,0.0,3.6096,3.6096,0.0,0.0,0.0,0.0,0.0,0.0,0.0,0.0,0.0,0.0,0.0,0.0,0.0,0.0,0.0,0.0,0.0,0.0,0.0,0.0,0.0,0.0,4.0097,4.0469,4.0663,4.0958,0.0,4.1473,4.1169,4.1106,4.2251,0.0,0.0,0.0,0.0,0.0,0.0,0.0,4.383,4.3746,4.3664,4.3691,4.3461,4.3204,4.3023,4.2997,4.2997,4.2997,4.2997,4.3023,4.3049,4.3257,0.0,0.0,0.0,0.0,0.0,0.0,0.0,0.0,0.0,0.0,0.0,0.0,0.0,0.0,0.0,0.0,0.0,0.0,0.0,0.0,0.0,0.0,0.0,0.0,0.0,0.0,0.0,0.0,0.0,3.1947,3.2313,3.2313,3.2542,3.2698,0.0,0.0,0.0,0.0,0.0,0.0,0.0,0.0,0.0,3.5338,3.56,3.5861,3.6096,3.6436,3.6619,3.6619,3.6959,3.7273,3.756,3.756,3.79,3.8475,3.8475,3.8318,3.8031,3.7377,3.7299,3.756,0.0,0.0,0.0,0.0,3.8083,3.8083,3.8083,3.824,0.0,3.8475,0.0,0.0,0.0,0.0,0.0,0.0,0.0,0.0,0.0,0.0,0.0,4.1384,4.1635,4.1857,4.2391,4.2548,4.2521,0.0,4.266,4.3101,4.3024,0.0,0.0,0.0,0.0,4.3731,4.4008,4.3767,4.3726,4.4043,4.3835,4.3756,4.3937,4.3963,4.3963,4.3963,4.3963,4.3963,4.3963,4.407,4.4123,0.0,0.0,0.0,0.0,0.0,0.0,0.0,0.0,0.0,0.0,0.0,0.0,0.0,0.0,0.0,0.0,0.0,0.0,0.0,0.0,0.0,0.0,0.0,0.0,0.0,0.0,0.0,0.0,3.2542,3.296,3.3117,3.3273,3.3404,0.0,0.0,0.0,0.0,0.0,0.0,3.6096,3.6253,3.6332,3.6332,3.6619,3.6776,3.6776,3.7377,3.7665,3.7665,3.8135,3.8553,3.8922,3.8922,3.9181,3.9599,3.9599,3.9599,3.9523,3.8684,3.8579,3.8922,3.8922,3.9183,3.9599,3.9599,3.9599,3.9599,3.9599,3.9599,3.9599,3.9599,0.0,3.9952,4.0639,0.0,0.0,0.0,0.0,4.0531,4.1675,4.17,4.165,4.2447,4.2711,4.2917,4.3288,4.3687,4.3848,0.0,4.3253,4.3497,4.3956,0.0,0.0,0.0,0.0,4.4013,4.4296,4.3989,4.394,4.4467,4.4412,4.4487,4.4904,4.506,4.5139,4.5139,4.5139,4.5139,4.5139,4.5139,4.5139,4.5139,0.0,0.0,0.0,0.0,0.0,0.0,0.0,0.0,0.0,0.0,0.0,0.0,0.0,0.0,0.0,0.0,0.0,0.0,0.0,0.0,0.0,0.0,0.0,0.0,0.0,0.0,0.0,0.0,0.0,3.4241,3.4816,0.0,0.0,0.0,0.0,3.6018,3.6044,3.607,3.6096,3.6645,3.6959,3.6959,3.8004,3.8579,3.8579,3.9181,3.9468,3.9468,3.952,3.9547,3.9549,3.9549,3.9573,3.9599,3.9599,3.9599,3.9599,3.9547,3.9547,3.9549,3.9549,3.9573,3.9599,3.9599,3.9599,3.9599,3.9599,3.9599,3.9599,3.9599,3.9941,4.0383,4.0406,4.0849,0.0,0.0,4.1294,4.1271,4.1347,4.1739,4.2285,4.2844,4.3369,4.3897,4.4484,4.4637,4.4474,0.0,4.4203,4.461,4.4664,0.0,4.4181,4.4208,4.4252,4.4362,4.465,4.4651,4.4778,4.51,4.5383,4.5531,4.5557,4.6081,4.6423,4.6423,4.6423,4.6423,4.6423,4.6423,4.6423,4.6423,4.582,0.0,0.0,0.0,0.0,0.0,0.0,0.0,0.0,0.0,0.0,0.0,0.0,0.0,0.0,0.0,0.0,0.0,0.0,0.0,0.0,0.0,0.0,0.0,0.0,0.0,0.0,0.0,0.0,3.5443,3.5678,0.0,3.6096,3.6462,3.6671,3.6671,3.7351,3.7769,3.7769,3.8344,3.8684,3.8684,3.9076,3.9285,3.9285,3.9494,3.9599,3.9599,3.9599,3.9782,4.0097,4.0097,4.0331,4.0672,4.0672,4.0672,4.0672,4.0672,4.0488,4.0097,4.0097,4.0332,4.0672,4.0672,4.0672,4.0672,4.0672,4.0672,4.0672,4.0672,4.0803,4.0959,4.0959,4.1116,4.1402,4.1768,4.1898,4.1951,4.2292,4.2552,4.2813,4.3173,4.3562,4.3849,4.4055,4.4735,4.5156,4.4734,4.4673,4.4827,4.5207,4.4876,4.4699,4.5282,4.5209,4.5227,4.5499,4.5726,4.5743,4.5486,4.5534,4.5452,4.506,4.5217,4.5506,4.5898,4.5924,4.6081,4.6475,4.6501,4.6501,4.6501,4.629,4.6186,0.0,0.0,0.0,0.0,0.0,0.0,0.0,0.0,0.0,0.0,0.0,0.0,0.0,0.0,0.0,0.0,0.0,0.0,0.0,0.0,0.0,0.0,0.0,0.0,0.0,0.0,3.5783,3.6332,3.641,3.6488,3.6698,3.7246,3.7586,3.7586,3.8475,3.9,3.9,3.9366,3.9599,3.9599,3.9782,3.9886,3.9886,4.0071,4.015,4.015,4.015,4.0359,4.0698,4.0698,4.0907,4.1299,4.1299,4.1299,4.1299,4.1299,4.1064,4.0698,4.0698,4.0933,4.1299,4.1299,4.1299,4.1299,4.1299,4.1299,4.1325,4.1533,4.1611,4.1638,4.1821,4.1874,4.1977,4.2343,4.2474,4.2552,4.2918,4.3127,4.3363,4.3624,4.3991,4.4306,4.4384,4.5043,4.5547,4.5311,4.536,4.5567,4.5973,4.5554,4.5342,4.5902,4.5601,4.535,4.5542,4.5773,4.5741,4.5348,4.5478,4.5426,4.5034,4.5348,4.5661,4.5898,4.6079,4.6262,4.6501,4.6656,4.6761,4.6761,4.6761,4.6578,4.6186,0.0,0.0,0.0,0.0,0.0,0.0,0.0,0.0,0.0,0.0,0.0,0.0,0.0,0.0,0.0,0.0,0.0,0.0,0.0,0.0,0.0,0.0,0.0,3.5417,3.5809,3.6358,3.6959,3.7037,3.7273,3.7874,3.8423,3.8736,3.8736,3.9285,3.9601,3.9601,3.9627,3.9627,3.9627,4.015,4.0411,4.0411,4.1012,4.1299,4.1325,4.1325,4.1325,4.1351,4.1351,4.1351,4.1351,4.1351,4.1351,4.1351,4.1351,4.1351,4.1351,4.1299,4.1299,4.1325,4.1325,4.1325,4.1351,4.1351,4.1351,4.1455,4.2029,4.2212,4.2317,4.284,4.2997,4.2997,4.3023,4.3023,4.3023,4.3049,4.3493,4.3965,4.4256,4.4784,4.5261,4.5528,4.5609,4.5609,4.5609,4.6276,4.6894,4.6867,4.6352,4.597,4.597,4.5278,0.0,4.4721,4.4747,4.4747,4.4747,4.5269,4.5635,4.5635,4.6654,4.7046,4.658,4.6994,4.7072,4.658,4.7074,4.7333,4.7333,4.7333,4.6785,4.5687,0.0,0.0,0.0,0.0,0.0,0.0,0.0,0.0,0.0,0.0,0.0,0.0,0.0,0.0,0.0,0.0,0.0,0.0,0.0,0.0,0.0,0.0,3.6698,3.6541,3.6671,3.6985,3.7586,3.8004,3.8318,3.8475,3.9024,3.934,3.934,3.9886,4.0176,4.0176,4.0567,4.0829,4.0829,4.0959,4.1038,4.1038,4.1221,4.1533,4.1951,4.1951,4.216,4.2527,4.2527,4.2527,4.2527,4.2527,4.2527,4.2527,4.2527,4.2527,4.2448,4.1612,4.1559,4.1951,4.1951,4.2186,4.2527,4.2527,4.2527,4.2553,4.2735,4.2788,4.2814,4.2945,4.2997,4.3075,4.352,4.365,4.3729,4.412,4.4355,4.4487,4.4567,4.4887,4.5153,4.4965,4.5288,4.5555,4.5341,4.5818,4.6192,4.6009,4.566,4.5418,4.5418,4.5383,0.0,4.5348,4.5741,4.6003,4.6003,4.6133,4.6238,4.6238,4.6525,4.6813,4.7046,4.7229,4.7411,4.7702,4.7858,4.7937,4.7937,4.7937,4.7806,0.0,0.0,0.0,0.0,0.0,0.0,0.0,0.0,0.0,0.0,0.0,0.0,0.0,0.0,0.0,0.0,0.0,0.0,0.0,0.0,0.0,0.0,3.6985,3.7456,3.7691,3.7534,3.7586,3.8161,3.8527,3.8815,3.905,3.9599,3.9939,3.9939,4.0461,4.0776,4.0776,4.109,4.1299,4.1299,4.1559,4.1664,4.1664,4.1925,4.2186,4.2526,4.2526,4.2709,4.2997,4.2997,4.2997,0.0,4.2997,4.2997,4.2997,4.2997,4.2997,0.0,0.0,0.0,0.0,0.0,4.2735,4.2997,4.2997,4.2997,4.3023,4.3284,4.3389,4.3415,4.3624,4.3702,4.378,4.4147,4.4225,4.4304,4.4616,4.4695,4.4695,4.4695,4.4856,4.499,4.5036,4.5359,4.5629,4.5729,4.599,0.0,4.5999,4.5864,4.5834,4.6043,4.6035,4.5976,4.5976,4.6264,4.6501,4.6501,4.6501,4.6501,4.6501,4.6708,0.0,0.0,0.0,4.7464,4.7806,4.7832,0.0,0.0,0.0,4.8068,4.7832,0.0,0.0,0.0,4.692,4.6839,0.0,0.0,0.0,0.0,0.0,0.0,0.0,0.0,0.0,0.0,0.0,0.0,0.0,0.0,0.0,0.0,3.7639,3.8187,3.8713,3.8397,3.8266,3.8739,3.8867,3.9079,3.9651,4.0176,4.0489,4.0489,4.101,4.1299,4.1299,0.0,0.0,0.0,0.0,4.2291,4.2291,4.2762,4.3023,4.3101,4.3101,4.3127,4.318,4.318,4.318,4.318,4.318,4.318,4.318,4.318,4.318,4.318,4.3127,4.3101,4.3101,4.3154,4.318,4.318,4.318,0.0,0.0,4.3834,4.399,4.4095,4.4538,4.4695,4.4695,4.4695,4.4695,4.4721,4.4773,4.4799,4.4825,4.4878,4.4904,4.5034,4.5583,4.5687,4.5872,4.6423,4.6501,4.6527,4.658,4.6554,4.6656,4.7124,4.6813,4.6501,4.6501,4.6501,4.6527,4.658,0.0,0.0,4.6684,4.7127,4.7176,4.6737,4.7153,4.7411,4.7411,4.7411,4.7411,4.7411,4.7937,4.7937,4.7411,4.7937,4.8201,4.8201,4.8201,4.8201,0.0,0.0,0.0,0.0,0.0,0.0,0.0,0.0,0.0,0.0,0.0,0.0,0.0,0.0,0.0,3.8318,3.8475,3.8739,3.9337,3.9337,3.9311,3.9416,3.981,4.0122,4.0228,4.0776,4.1116,4.1116,4.1221,4.1299,4.1299,4.1742,4.2029,4.2029,4.2552,4.2866,4.2866,4.2945,4.3258,4.3729,0.0,0.0,4.4381,4.4381,4.4381,4.4381,4.4381,4.4381,4.4381,4.4381,4.4381,4.4329,4.3885,4.3729,4.3781,4.4198,4.4381,4.4381,4.4381,4.4381,4.4381,4.4512,4.4538,4.4564,4.4669,4.4695,0.0,4.4695,4.4695,4.4799,4.5296,4.5426,4.5531,4.6029,4.6133,4.6159,4.629,4.6316,4.6342,4.6475,4.6501,4.6658,4.7046,4.6787,4.6554,4.6658,4.658,4.6501,4.6501,4.6501,4.6656,4.7098,4.715,4.7362,4.7835,4.7963,4.7963,4.7887,4.7963,4.8015,4.8015,4.8015,4.8015,4.8015,4.812,4.812,4.8015,4.812,4.8201,4.8201,4.8201,4.8201,0.0,0.0,0.0,0.0,0.0,0.0,0.0,0.0,0.0,0.0,0.0,3.7456,0.0,0.0,3.8397,3.8658,3.8972,3.9364,3.9914,3.9993,3.9993,3.9993,4.0228,4.0515,4.0803,4.1116,4.1299,4.1299,4.1585,4.1742,4.1742,4.2291,4.2605,4.2605,4.3154,4.3441,4.3441,4.3729,4.3989,4.4304,4.4304,4.446,4.4695,4.4695,4.4695,4.4695,4.4695,4.4695,4.4695,4.4695,4.4695,4.4695,4.4748,4.4565,4.433,4.459,4.4695,4.4695,4.4695,4.4904,4.5139,4.5139,4.5348,4.5611,4.5611,4.5611,4.5611,4.5611,4.5611,4.5663,4.5976,4.6055,4.6133,4.6449,4.6501,4.658,4.6839,4.6917,4.6996,4.7312,4.7364,4.7414,4.7702,4.7519,4.7364,4.7364,4.7364,4.7364,4.7364,4.7364,4.744,4.7728,4.7754,4.7885,4.8146,4.8201,4.8201,4.8201,4.8201,4.8201,4.8201,4.8201,4.8201,4.8201,4.8201,4.8201,4.8201,4.8201,4.8201,4.8201,4.8201,4.8201,0.0,0.0,0.0,0.0,0.0,0.0,0.0,0.0,3.7072,3.6703,3.7397,3.8057,3.8057,3.8501,3.8919,3.9,3.9442,3.9965,4.0489,4.0567,4.0567,4.0567,4.0567,4.075,4.1247,4.1428,4.1481,4.1481,4.2004,4.2369,4.2369,4.2866,4.318,4.318,4.3729,4.4069,4.4069,4.446,4.4695,4.4695,4.4695,4.4695,4.4695,4.4695,4.4773,4.4878,4.4982,4.5034,4.5034,4.5034,4.5034,4.5087,4.5583,4.5478,4.5034,4.5034,4.5034,4.5034,4.5034,4.5348,4.5766,4.5766,4.6107,4.6501,4.6501,4.6501,4.6501,4.6501,4.6501,4.6527,4.6604,4.6684,4.6656,4.6815,4.6841,4.6944,4.7359,4.7464,4.7594,4.8094,4.8201,4.8201,4.8201,4.8201,4.8201,4.8201,4.8201,4.8201,4.8201,4.8201,4.8201,4.8201,4.8201,4.8201,4.8201,4.8201,4.8201,4.8201,4.8201,4.8201,4.8201,4.8201,4.8201,4.8201,4.8201,4.8201,4.8201,4.8201,4.8201,4.8201,4.8201,4.8201,2.99,3.1791,3.3529,3.2763,3.5053,3.7255,0.0,0.0,3.7776,3.7736,3.8199,3.8632,3.8632,3.9102,3.9677,4.0123,4.0254,4.0515,4.1141,4.1194,4.1194,4.1194,4.1194,4.1221,4.1273,4.1768,4.2107,4.2107,4.2605,4.2892,4.2892,4.3467,4.3807,4.3807,4.433,4.4616,4.4616,4.4669,4.4695,4.4695,4.4695,4.4695,4.4695,4.4695,4.4982,4.5531,4.6055,4.6318,4.6318,4.6318,4.6318,4.6318,4.637,4.637,4.6318,4.6318,4.6318,4.6318,4.6318,4.6316,4.6423,4.6423,4.6449,4.6501,4.6501,4.6501,4.6501,4.6501,4.6501,4.6604,4.7072,4.7202,4.7333,4.7885,4.8018,4.8044,4.8097,4.8094,4.812,4.8201,4.8201,4.8201,4.8201,4.8201,4.8201,4.8201,4.8201,4.8201,4.8201,4.8201,4.8201,4.8201,4.8201,4.8201,4.8201,4.8201,4.8201,4.8201,4.8201,4.8201,4.8201,4.8201,4.8201,4.8201,4.8201,4.8201,4.8201,4.8201,4.8201,4.8201,4.8201,4.8201,3.0496,3.1576,3.2508,0.0,3.4048,3.581,3.4727,3.6487,3.8207,3.7619,3.8413,3.9233,3.9233,3.9703,4.0123,0.0,4.0672,4.1012,4.1247,4.1299,4.1299,4.1299,4.1611,4.182,4.182,4.2055,4.2317,4.2631,4.3206,4.352,4.352,4.4068,4.4382,4.4382,4.4564,4.4695,4.4695,4.4695,4.4878,4.5217,4.5217,4.54,4.5741,4.5741,4.5898,4.6133,4.6397,4.6501,4.6501,4.6501,4.6501,4.6527,4.6839,4.697,4.6944,4.6632,4.6501,4.6501,4.6501,4.6708,4.697,4.697,4.7205,4.7495,4.7495,4.7495,4.7495,4.7495,4.7495,4.7519,4.778,4.7832,4.7885,4.812,4.8201,4.8201,4.8201,4.8201,4.8201,4.8201,4.8201,4.8201,4.8201,4.8201,4.8201,4.8201,4.8201,4.8201,4.8201,4.8201,4.8201,4.8201,4.8201,4.8201,4.8201,4.8201,4.8201,4.8201,4.8201,4.8201,4.8201,4.8201,4.8201,4.8201,4.8201,4.8201,4.8201,4.8201,4.8201,4.8201,4.8201,4.8201,3.103,0.0,0.0,3.1659,3.3201,3.4653,3.4009,3.616,3.8217,3.7942,3.8886,3.981,3.981,4.0254,4.0646,4.0646,4.1012,4.1299,4.1299,4.1455,4.1559,4.1559,4.2056,4.25,4.2657,4.2657,4.284,4.3232,4.3781,4.4121,4.4121,4.4486,4.4695,4.4695,4.4852,4.4956,4.4956,4.5113,4.5428,4.5844,4.5844,4.6081,4.6527,4.663,4.6708,4.6734,4.692,4.6972,4.6972,4.6972,4.6972,4.7024,4.7414,4.7542,4.749,4.71,4.6972,4.6972,4.6972,4.7231,4.7542,4.7542,4.7832,4.8201,4.8201,4.8201,4.8201,4.8201,4.8201,4.8201,4.8201,4.8201,4.8201,4.8201,4.8201,4.8201,4.8201,4.8201,4.8201,4.8201,4.8201,4.8201,4.8201,4.8201,4.8201,4.8201,4.8201,4.8201,4.8201,4.8201,4.8201,4.8201,4.8201,4.8201,4.8201,4.8201,4.8201,4.8201,4.8201,4.8201,4.8201,4.8201,4.8201,4.8201,4.8201,4.8201,4.8201,4.8201,4.8201,4.8201,4.8201,4.8201,0.0,0.0,3.2901,3.1863,3.3201,3.492,3.5401,3.6406,3.7698,3.9203,3.9993,4.0383,4.0383,4.0855,4.1273,4.1273,4.1273,4.1299,4.1299,4.1794,4.216,4.216,4.2657,4.3206,0.0,4.3834,4.386,4.386,4.4382,4.4669,4.4669,4.4695,4.4695,4.4695,4.5269,4.5583,4.5583,4.6159,4.6449,4.6475,4.6475,4.6475,4.6527,4.7048,4.7281,4.7307,4.7885,4.8149,4.8149,4.8149,4.8149,4.8149,4.8175,4.8146,4.8146,4.8146,4.8149,4.8149,4.8149,4.8146,4.8146,4.8146,4.8201,4.8201,4.8201,4.8201,4.8201,4.8201,4.8201,4.8201,4.8201,4.8201,4.8201,4.8201,4.8201,4.8201,4.8201,4.8201,4.8201,4.8201,4.8201,4.8201,4.8201,4.8201,4.8201,4.8201,4.8201,4.8201,4.8201,4.8201,4.8201,4.8201,4.8201,4.8201,4.8201,4.8201,4.8201,4.8201,4.8201,4.8201,4.8201,4.8201,4.8201,4.8201,4.8201,4.8201,4.8201,4.8201,4.8201,4.8201,4.8201,4.8201,0.0,0.0,3.2155,3.2122,3.3169,3.4527,3.5779,3.6617,3.7716,3.973,3.9998,4.0107,4.0861,4.0539,4.044,4.1173,4.0032,3.9411,4.0488,4.0167,4.0234,4.1403,4.2069,0.0,0.0,0.0,0.0,4.4408,4.459,4.4878,4.5269,4.5296,4.5478,4.5872,4.6081,4.6186,4.6186,4.6423,4.6656,4.7048,4.744,4.7652,4.7623,4.7806,4.7911,4.7911,4.8094,4.8201,4.8201,4.8201,4.8201,4.8201,4.8201,4.8201,4.8201,4.8201,4.8201,4.8201,4.8201,4.8201,4.8201,4.8201,4.8201,4.8201,4.8201,4.8201,4.8201,4.8201,4.8201,4.8201,4.8201,4.8201,4.8201,4.8201,4.8201,4.8201,4.8201,4.8201,4.8201,4.8201,4.8201,4.8201,4.8201,4.8201,4.8201,4.8201,4.8201,4.8201,4.8201,4.8201,4.8201,4.8201,4.8201,4.8201,4.8201,4.8201,4.8201,4.8201,4.8201,4.8201,4.8201,4.8201,4.8201,4.8201,4.8201,4.8201,4.8201,4.8201,4.8201,4.8201,4.8201,4.8201,0.0,3.1529,3.1979,3.2306,3.3005,3.4035,3.566,3.627,3.7076,3.9095,3.9166,3.9209,4.0338,3.9622,3.9439,4.1206,3.9612,3.873,4.0386,4.0182,4.0291,4.137,4.203,4.2686,0.0,0.0,0.0,4.4668,4.4495,4.4725,4.5555,4.5792,4.6107,4.6501,4.6682,4.6787,4.6787,4.7024,4.7283,4.762,4.8015,4.8201,4.8201,4.8201,4.8201,4.8201,4.8201,4.8201,4.8201,4.8201,4.8201,4.8201,4.8201,4.8201,4.8201,4.8201,4.8201,4.8201,4.8201,4.8201,4.8201,4.8201,4.8201,4.8201,4.8201,4.8201,4.8201,4.8201,4.8201,4.8201,4.8201,4.8201,4.8201,4.8201,4.8201,4.8201,4.8201,4.8201,4.8201,4.8201,4.8201,4.8201,4.8201,4.8201,4.8201,4.8201,4.8201,4.8201,4.8201,4.8201,4.8201,4.8201,4.8201,4.8201,4.8201,4.8201,4.8201,4.8201,4.8201,4.8201,4.8201,4.8201,4.8201,4.8201,4.8201,4.8201,4.8201,4.8201,4.8201,4.8201,4.8201,4.8201,3.1185,3.1815,3.242,3.2464,3.2813,3.3572,3.5165,3.5493,3.5901,3.7517,3.7636,3.7769,0.0,0.0,3.8335,4.1183,3.9819,3.9023,4.0751,4.1459,4.1861,0.0,0.0,0.0,0.0,0.0,0.0,4.4744,0.0,4.4438,4.5632,4.6238,4.658,4.6606,4.71,4.7359,4.7359,4.7911,4.8201,4.8201,4.8201,4.8201,4.8201,4.8201,4.8201,4.8201,4.8201,4.8201,4.8201,4.8201,4.8201,4.8201,4.8201,4.8201,4.8201,4.8201,4.8201,4.8201,4.8201,4.8201,4.8201,4.8201,4.8201,4.8201,4.8201,4.8201,4.8201,4.8201,4.8201,4.8201,4.8201,4.8201,4.8201,4.8201,4.8201,4.8201,4.8201,4.8201,4.8201,4.8201,4.8201,4.8201,4.8201,4.8254,4.8254,4.8254,4.825,4.828,4.8227,4.8201,4.8201,4.8201,4.8201,4.8201,4.8201,4.8201,4.8201,4.8201,4.8201,4.8201,4.8201,4.8201,4.8201,4.8201,4.8201,4.8201,4.8201,4.8201,4.8201,4.8201,4.8201,4.8201,3.1906,3.2232,3.2573,3.3268,3.353,3.4053,3.5663,3.5368,3.5303,3.7213,3.6888,3.678,0.0,0.0,0.0,3.9201,3.7594,0.0,3.8026,3.8131,0.0,3.9802,0.0,4.1047,4.3347,4.2844,0.0,0.0,4.5907,4.6111,4.6808,4.6994,4.731,4.7757,4.7885,4.7963,4.7963,4.812,4.8201,4.8201,4.8201,4.8201,4.8201,4.8201,4.8201,4.8201,4.8201,4.8201,4.8201,4.8201,4.8201,4.8201,4.8201,4.8201,4.8201,4.8201,4.8201,4.8201,4.8201,4.8201,4.8201,4.8201,4.8201,4.8201,4.8201,4.8201,4.8201,4.8201,4.8201,4.8201,4.8201,4.8201,4.8201,4.8201,4.8201,4.8201,4.8201,4.8201,4.8201,4.8201,4.8201,4.8201,4.8201,4.8594,4.8852,4.8852,4.9191,4.9139,4.8332,4.8201,4.8201,4.8201,4.8201,4.8201,4.8201,4.8201,4.8201,4.8201,4.8201,4.8201,4.8201,4.8201,4.8201,4.8201,4.8201,4.8201,4.8201,4.8201,4.8201,4.8201,4.8201,4.8201,3.2254,3.2704,3.3136,3.3661,3.3945,3.4323,3.5113,3.4791,3.4596,3.558,3.5168,0.0,3.6807,3.5772,0.0,0.0,0.0,0.0,3.7346,3.7603,3.7999,0.0,3.9901,0.0,4.2803,4.3275,4.419,0.0,4.6071,4.6427,4.7252,4.7542,4.7858,4.8201,4.8201,4.8201,4.8201,4.8201,4.8201,4.8201,4.8201,4.8201,4.8201,4.8201,4.8114,4.7997,0.0,4.8026,4.7792,4.7909,4.7967,4.7967,4.7967,4.8055,4.8201,4.8201,4.8201,4.8201,4.8201,4.8201,4.8201,4.8201,4.8201,4.8201,4.8201,4.8201,4.8201,4.8201,4.8201,4.8201,4.8201,4.8201,4.8201,4.8201,4.8201,4.8201,4.8201,4.8201,4.8306,4.8538,4.8803,4.896,4.896,4.9218,4.9427,4.9427,4.9688,4.9662,4.9008,4.896,4.896,4.896,4.875,4.859,4.859,4.8329,4.8201,4.8201,4.8201,4.8201,4.8201,4.8201,4.8201,4.8201,4.8201,4.8201,4.8201,4.8201,4.8201,4.8201,4.8201,4.8201,3.242,3.3153,3.3814,3.3824,3.4151,3.4395,3.4142,3.4058,3.3946,3.3607,0.0,3.3551,3.4636,3.3952,3.4075,3.6741,0.0,3.5646,3.752,3.8161,3.8655,3.9128,4.0658,4.1753,4.1971,4.4155,4.554,4.5586,4.5763,4.6316,4.7354,4.7911,4.8201,4.8201,4.8201,4.8201,4.8201,4.8201,4.8201,4.8201,4.8201,4.8201,4.8201,4.8201,4.8026,4.7792,4.8055,0.0,4.7294,4.756,4.7703,4.7703,4.7703,4.7909,4.8201,4.8201,4.8201,4.8201,4.8201,4.8201,4.8201,4.8201,4.8201,4.8201,4.8201,4.8201,4.8201,4.8201,4.8201,4.8201,4.8201,4.8201,4.8201,4.8201,4.8201,4.8227,4.8306,4.8384,4.8594,4.9087,4.9557,4.9897,4.9897,4.9949,5.0002,5.0002,5.008,5.0106,5.0106,4.9976,4.9897,4.9897,4.9479,4.9221,4.9221,4.875,4.841,4.8303,4.8332,4.8306,4.8201,4.8201,4.8201,4.8201,4.8201,4.8201,4.8201,4.8201,4.8201,4.8201,4.8201,4.8201,3.3009,3.347,3.3846,3.401,3.4106,3.4142,3.4114,3.3889,0.0,0.0,3.3232,3.3494,3.4407,3.3812,3.3728,3.5251,3.523,3.5256,3.6024,3.6738,3.7706,0.0,0.0,0.0,0.0,0.0,0.0,0.0,0.0,4.7811,4.8041,4.812,4.8201,4.8201,4.8201,4.8201,4.8201,4.8201,4.8201,4.8201,4.8201,4.8201,4.8201,4.8201,4.8169,4.8114,4.8172,0.0,4.7645,4.7703,4.7703,4.7703,4.7703,4.7909,4.8201,4.8201,4.8201,4.8201,4.8201,4.8201,4.8201,4.8201,4.8201,4.8201,4.8201,4.8201,4.8201,4.8201,4.8201,4.8201,4.8201,4.8201,4.8201,4.8201,4.8201,4.8358,4.8855,4.927,4.9666,4.974,4.9819,4.9897,4.9897,5.0315,5.0629,5.0629,5.1021,5.1309,5.1309,5.0472,4.9897,4.9897,4.9819,4.974,4.974,4.9662,4.9401,4.8956,4.893,4.8695,4.8227,4.8201,4.8201,4.8201,4.8201,4.8201,4.8201,4.8201,4.8201,4.8201,4.8201,4.8201,3.3323,3.363,3.3757,3.4022,3.3974,3.3805,3.3664,0.0,0.0,0.0,3.2926,3.3069,3.3501,3.3239,0.0,3.4095,3.4407,3.4753,3.5336,3.5973,0.0,3.8559,0.0,0.0,0.0,0.0,0.0,0.0,0.0,4.8201,4.8201,4.8201,4.8201,4.8201,4.8201,4.8201,4.8201,4.8201,4.8201,4.8201,4.8201,4.8201,4.8172,4.8026,4.7938,4.7938,4.7938,0.0,4.7231,4.7379,4.7442,4.7442,4.7442,4.7762,4.8201,4.8201,4.8201,4.8201,4.8201,4.8201,4.8201,4.8201,4.8201,4.8201,4.8201,4.8201,4.8201,4.8201,4.8201,4.8201,4.8201,4.8201,4.8306,4.859,4.8878,4.9139,4.9453,4.9949,5.0368,5.0368,5.0577,5.0786,5.0786,5.1021,5.1204,5.1204,5.1439,5.1596,5.1596,5.1126,5.0786,5.0786,5.0524,5.0368,5.0368,5.008,4.9793,4.9531,4.9505,4.9404,4.9117,4.8829,4.8672,4.8672,4.8355,4.8201,4.8201,4.8201,4.8201,4.8201,4.8201,4.8201,3.3512,3.3673,3.3664,3.3918,3.3749,3.3466,3.3239,3.3126,0.0,0.0,3.2698,3.2698,3.2698,3.2698,3.2884,0.0,3.3853,3.4378,3.5242,3.5649,3.6637,0.0,3.9704,0.0,0.0,0.0,0.0,0.0,0.0,0.0,4.8201,4.8201,4.8201,4.8201,4.8201,4.8201,4.8201,4.8201,4.8201,4.8201,4.8201,4.8201,4.8172,4.7938,4.7821,4.7821,4.7733,0.0,0.0,4.7053,4.7146,4.7205,4.7205,4.7589,4.8201,4.8201,4.8201,4.8201,4.8201,4.8201,4.8201,4.8201,4.8201,4.8201,4.8201,4.8201,4.8201,4.8201,4.8306,4.841,4.841,4.8489,4.8669,4.9139,4.9688,5.008,5.008,5.0551,5.0969,5.0969,5.1309,5.1596,5.1596,5.1596,5.1596,5.1596,5.1596,5.1596,5.1596,5.1596,5.1596,5.1596,5.1204,5.0969,5.0969,5.0524,5.0211,5.008,5.008,5.0028,4.9897,4.9509,4.9244,4.9244,4.8799,4.8515,4.841,4.841,4.8332,4.8201,4.8201,4.8201,3.3535,3.3621,3.3607,3.3636,3.3438,3.3232,3.3203,0.0,3.2727,3.2698,3.2698,3.2698,3.2698,3.2698,0.0,0.0,3.4081,3.4512,3.5682,3.5859,3.711,4.0366,0.0,0.0,4.4536,0.0,0.0,0.0,0.0,0.0,4.8201,4.8201,4.8201,4.8201,4.8201,4.8201,4.8201,4.8201,4.8201,4.8201,4.8201,4.8201,4.8201,4.8169,4.8143,4.8143,4.785,0.0,0.0,4.693,4.6964,4.7205,4.7205,4.7589,4.8201,4.8201,4.8201,4.8201,4.8201,4.8201,4.8201,4.8201,4.8201,4.8201,4.8201,4.8201,4.8201,4.8201,4.859,4.9038,4.9038,4.9404,4.974,4.9793,5.0263,5.0707,5.0707,5.1126,5.1518,5.1518,5.157,5.1596,5.1596,5.1596,5.1596,5.1596,5.1596,5.1596,5.1596,5.1596,5.1596,5.1596,5.1544,5.1518,5.1518,5.1465,5.123,5.0734,5.0707,5.0472,4.9923,4.9845,4.9819,4.9819,4.9766,4.9505,4.9038,4.9038,4.875,4.8201,4.8201,4.8201,3.3402,3.3324,3.3097,3.3296,3.3126,3.2898,3.2898,0.0,3.2698,3.2698,3.2698,3.2698,3.2698,3.2698,3.2988,3.3957,3.4102,3.4443,3.5447,3.5603,3.6489,3.891,3.8993,0.0,0.0,0.0,0.0,0.0,0.0,0.0,4.8201,4.8201,4.8201,4.8201,4.8201,4.8201,4.8201,4.8201,4.8201,4.8201,4.8201,4.8201,4.8172,4.7792,4.7821,4.8169,4.7464,0.0,0.0,4.69,4.6959,4.7205,4.7205,4.7589,4.8201,4.8201,4.8201,4.8201,4.8201,4.8201,4.825,4.8616,4.875,4.8669,4.8332,4.8433,4.875,4.875,4.9139,4.9557,4.9557,5.0002,5.042,5.042,5.0864,5.1282,5.1282,5.1439,5.1596,5.1596,5.1596,5.1596,5.1596,5.1596,5.1596,5.1596,5.1596,5.1596,5.1596,5.1596,5.1596,5.1596,5.1596,5.1596,5.1596,5.1596,5.1518,5.1282,5.1282,5.1178,5.0917,5.0603,5.042,5.042,5.008,4.9793,4.9557,4.9557,4.9483,4.9218,4.9218,4.9218,3.3297,3.3097,3.2784,3.3118,3.2955,3.2698,0.0,0.0,3.2698,3.2698,3.2698,3.2698,3.2698,3.2698,3.2988,3.3957,3.4102,3.4383,3.5293,3.5387,3.6275,0.0,0.0,0.0,0.0,0.0,0.0,0.0,0.0,0.0,4.8201,4.8201,4.8201,4.8201,4.8201,4.8201,4.8201,4.8201,4.8201,4.8201,4.8201,4.8143,4.8026,4.7674,4.7648,4.788,4.7227,0.0,0.0,4.678,4.6845,4.7205,4.7205,4.7589,4.8201,4.8201,4.8201,4.8254,4.8381,4.8489,4.8567,4.9169,4.9322,4.9244,4.8826,4.9012,4.9322,4.9322,4.974,5.0185,5.0368,5.0707,5.1021,5.1021,5.1309,5.1596,5.1596,5.1596,5.1596,5.1596,5.1596,5.1596,5.1596,5.1596,5.1596,5.1596,5.1596,5.1596,5.1596,5.1596,5.1596,5.1596,5.1596,5.1596,5.1596,5.1596,5.1596,5.1596,5.1596,5.1596,5.1596,5.123,5.1021,5.1021,5.0603,5.0315,5.0159,5.0159,5.0054,4.9897,4.9897,5.0002,3.3203,3.2955,3.2784,3.3118,3.2955,3.2698,0.0,0.0,3.2698,3.2698,3.2698,3.2698,3.2698,3.2698,3.2988,3.3957,3.4102,3.4383,3.5293,3.5387,3.6782,0.0,0.0,0.0,0.0,0.0,0.0,0.0,0.0,0.0,4.8201,4.8201,4.8201,4.8201,4.8201,4.8201,4.8201,4.8201,4.8201,4.8201,4.8201,4.8026,4.7733,4.8026,4.785,0.0,0.0,0.0,0.0,4.6421,4.6665,4.7205,4.7205,4.7589,4.8201,4.8201,4.8201,4.8306,4.8878,4.9117,4.9165,4.9714,4.9871,4.9871,4.9871,4.9871,4.9871,4.9871,5.0315,5.0917,5.1439,5.1596,5.1596,5.1596,5.1596,5.1596,5.1596,5.1596,5.1596,5.1596,5.1596,5.1596,5.1596,5.1596,5.1596,5.1596,5.1596,5.1596,5.1596,5.1596,5.1596,5.1596,5.1596,5.1596,5.1596,5.1596,5.1596,5.1596,5.1596,5.1596,5.1596,5.1596,5.1596,5.1596,5.157,5.1309,5.0786,5.0786,5.0472,4.9897,4.9897,5.0211,3.2841,3.2784,3.2727,3.2812,3.2784,3.2698,3.2698,3.2698,3.2698,3.2698,3.2698,3.2698,3.2698,3.2698,3.2988,3.3957,3.4102,3.4383,0.0,0.0,0.0,3.7878,3.9213,0.0,0.0,0.0,0.0,0.0,0.0,0.0,4.8201,4.8201,4.8201,4.8201,4.8201,4.8201,4.8201,4.8201,4.8201,4.8201,4.8201,4.8143,4.8026,4.7703,4.753,0.0,0.0,0.0,0.0,4.6511,4.681,4.7501,4.7294,4.7589,4.8224,4.8672,4.8829,4.8878,4.9453,4.9636,4.974,5.0315,5.0498,5.0577,5.0943,5.0812,5.0577,5.0943,5.1204,5.1387,5.1544,5.1596,5.1596,5.1596,5.1596,5.1596,5.1596,5.1596,5.1596,5.1596,5.1596,5.1596,5.1596,5.1596,5.1596,5.1596,5.1596,5.1596,5.1596,5.1596,5.1596,5.1596,5.1596,5.1596,5.1596,5.1596,5.1596,5.1596,5.1596,5.1596,5.1596,5.1596,5.1596,5.1596,5.1596,5.1518,5.1335,5.1335,5.1256,5.1047,5.1047,5.1152,0.0,3.2698,3.2698,3.2698,3.2698,0.0,0.0,3.2698,3.2698,3.2698,3.2698,3.2698,3.2698,3.2843,3.3223,3.3978,3.4613,0.0,0.0,0.0,0.0,3.7742,0.0,0.0,0.0,0.0,0.0,0.0,0.0,0.0,4.8201,4.8201,4.8201,4.8201,4.8201,4.8201,4.8201,4.8201,4.8201,4.8201,4.8201,4.8055,4.7821,4.7648,4.7438,0.0,0.0,0.0,0.0,4.6601,4.6874,4.7501,4.7412,4.7862,4.8594,4.8956,4.9247,4.9479,5.0028,5.0237,5.0315,5.0917,5.11,5.1152,5.1492,5.1361,5.1178,5.1492,5.1596,5.1596,5.1596,5.1596,5.1596,5.1596,5.1596,5.1596,5.1596,5.1596,5.1596,5.1596,5.1596,5.1596,5.1596,5.1596,5.1596,5.1596,5.1596,5.1596,5.1596,5.1596,5.1596,5.1596,5.1596,5.1596,5.1596,5.1596,5.1596,5.1596,5.1596,5.1596,5.1596,5.1596,5.1596,5.1596,5.1596,5.1596,5.1596,5.1596,5.1596,5.1596,5.1596,5.1596,0.0,3.2698,3.2698,3.2698,3.2698,0.0,0.0,3.2698,0.0,3.2698,3.2698,3.2698,3.2698,3.3078,3.3563,3.4019,0.0,0.0,0.0,3.8011,0.0,0.0,0.0,0.0,0.0,0.0,0.0,0.0,0.0,0.0,4.8201,4.8201,4.8201,4.8201,4.8201,4.8201,4.8201,4.8201,4.8201,4.8201,4.8201,4.785,4.7265,4.785,4.7468,0.0,0.0,0.0,0.0,4.6656,4.6959,4.7294,4.7611,4.8269,4.9117,4.9195,4.9531,5.0054,5.0629,5.0838,5.0943,5.1439,5.1596,5.1596,5.1596,5.1596,5.1596,5.1596,5.1596,5.1596,5.1596,5.1596,5.1596,5.1596,5.1596,5.1596,5.1596,5.1596,5.1596,5.1596,5.1596,5.1596,5.1596,5.1596,5.1596,5.1596,5.1596,5.1596,5.1596,5.1596,5.1596,5.1596,5.1596,5.1596,5.1596,5.1596,5.1596,5.1596,5.1596,5.1596,5.1596,5.1596,5.1596,5.1596,5.1596,5.1596,5.1596,5.1596,5.1596,5.1596,5.1596,5.1596,3.2615,0.0,3.2698,3.2698,3.2698,3.2698,0.0,0.0,0.0,0.0,0.0,3.2698,3.2698,3.3078,3.3563,0.0,0.0,0.0,0.0,0.0,0.0,0.0,0.0,0.0,0.0,0.0,0.0,0.0,0.0,4.8201,4.8201,4.8201,4.8201,4.8201,4.8201,4.8201,4.8201,4.8201,4.8201,4.8201,4.8201,4.7967,4.756,4.7471,4.7172,0.0,0.0,0.0,4.6938,4.6571,4.7049,4.799,4.8017,4.8454,4.9221,5.0054,5.0472,5.0655,5.1204,5.1413,5.1413,5.1544,5.1596,5.1596,5.1596,5.1596,5.1596,5.1596,5.1596,5.1596,5.1596,5.1596,5.1596,5.1596,5.1596,5.1596,5.1596,5.1596,5.1596,5.1596,5.1596,5.1596,5.1596,5.1596,5.1596,5.1596,5.1596,5.1596,5.1596,5.1596,5.1596,5.1596,5.1596,5.1596,5.1596,5.1596,5.1596,5.1596,5.1596,5.1596,5.1596,5.1596,5.1596,5.1596,5.1596,5.1596,5.1596,5.1596,5.1596,5.1596,5.1596,5.1596,3.2574,3.2698,3.2698,3.2698,3.2698,3.2698,3.2698,0.0,0.0,0.0,0.0,3.2698,3.2698,3.3265,0.0,0.0,0.0,0.0,0.0,0.0,0.0,0.0,0.0,0.0,0.0,0.0,0.0,0.0,0.0,4.8201,4.8201,4.8201,4.8201,4.8201,4.8201,4.8201,4.8201,4.8201,4.8201,4.8201,4.8201,4.7938,4.7471,4.7442,4.7201,0.0,0.0,0.0,4.6993,4.6661,4.7019,4.7785,4.8171,4.8799,4.9587,5.0446,5.0943,5.1204,5.1492,5.1596,5.1596,5.1596,5.1596,5.1596,5.1596,5.1596,5.1596,5.1596,5.1596,5.1596,5.1596,5.1596,5.1596,5.1596,5.1596,5.1596,5.1596,5.1596,5.1596,5.1596,5.1596,5.1596,5.1596,5.1596,5.1596,5.1596,5.1596,5.1596,5.1596,5.1596,5.1596,5.1596,5.1596,5.1596,5.1596,5.1596,5.1596,5.1596,5.1596,5.1596,5.1596,5.1596,5.1596,5.1596,5.1596,5.1596,5.1596,5.1596,5.1596,5.1596,5.1596,5.1596,3.2553,3.2698,3.2698,3.2698,3.2698,3.2698,3.2698,3.2698,0.0,0.0,0.0,0.0,3.2781,3.3513,0.0,0.0,0.0,0.0,0.0,0.0,0.0,0.0,0.0,0.0,0.0,0.0,0.0,0.0,0.0,4.8201,4.8201,4.8201,4.8201,4.8201,4.8201,4.8201,4.8201,4.8201,4.8201,4.8201,4.8201,4.785,4.7205,4.7501,4.732,4.6806,0.0,0.0,4.684,4.6776,4.701,4.75,4.833,4.923,5.0106,5.0681,5.1204,5.1596,5.1596,5.1596,5.1596,5.1596,5.1596,5.1596,5.1596,5.1596,5.1596,5.1596,5.1596,5.1596,5.1596,5.1596,5.1596,5.1596,5.1596,5.1596,5.1596,5.1596,5.1596,5.1596,5.1596,5.1596,5.1596,5.1596,5.1596,5.1596,5.1596,5.1596,5.1596,5.1596,5.1596,5.1596,5.1596,5.1596,5.1596,5.1596,5.1596,5.1596,5.1596,5.1596,5.1596,5.1596,5.1596,5.1596,5.1596,5.1596,5.1596,5.1596,5.1596,5.1596,5.1596,5.1596,3.2471,3.2698,3.2698,3.2698,3.2698,3.2698,3.2698,3.2698,0.0,0.0,0.0,0.0,0.0,3.3729,0.0,0.0,0.0,0.0,0.0,0.0,0.0,0.0,0.0,0.0,0.0,0.0,0.0,0.0,0.0,4.8201,4.8201,4.8201,4.8201,4.8201,4.8201,4.8201,4.8201,4.8201,4.8201,4.8201,4.8201,4.785,4.7205,4.7265,4.7112,4.6776,0.0,4.6691,4.7087,4.6601,4.718,4.8416,4.8798,4.964,5.0707,5.1282,5.1518,5.1596,5.1596,5.1596,5.1596,5.1596,5.1596,5.1596,5.1596,5.1596,5.1596,5.1596,5.1596,5.1596,5.1596,5.1596,5.1596,5.1596,5.1596,5.1596,5.1596,5.1596,5.1596,5.1596,5.1596,5.1596,5.1596,5.1596,5.1596,5.1596,5.1596,5.1596,5.1596,5.1596,5.1596,5.1596,5.1596,5.1596,5.1596,5.1596,5.1596,5.1596,5.1596,5.1596,5.1596,5.1596,5.1596,5.1596,5.1596,5.1596,5.1596,5.1596,5.1596,5.1596,5.1596,5.1596,3.245,3.2698,3.2698,3.2698,3.2698,3.2698,3.2698,3.2698,0.0,0.0,0.0,0.0,0.0,0.0,0.0,0.0,0.0,0.0,0.0,0.0,0.0,0.0,0.0,0.0,0.0,0.0,0.0,0.0,0.0,0.0,4.8201,4.8201,4.8201,4.8201,4.8201,4.8201,4.8201,4.8201,4.8201,4.8201,4.8201,4.785,4.7205,4.7205,4.7116,4.6993,0.0,4.6636,4.7176,4.6751,4.726,4.8395,4.8992,4.9866,5.0864,5.1387,5.1596,5.1596,5.1596,5.1596,5.1596,5.1596,5.1596,5.1596,5.1596,5.1596,5.1596,5.1596,5.1596,5.1596,5.1596,5.1596,5.1596,5.1596,5.1596,5.1596,5.1596,5.1596,5.1596,5.1596,5.1596,5.1596,5.1596,5.1596,5.1596,5.1596,5.1596,5.1596,5.1596,5.1596,5.1596,5.1596,5.1596,5.1596,5.1596,5.1596,5.1596,5.1596,5.1596,5.1596,5.1596,5.1596,5.1596,5.1596,5.1596,5.1596,5.1596,5.1596,5.1596,5.1596,5.1596,5.1502,3.2491,3.2698,3.2698,3.2698,3.2698,3.2698,3.2698,3.2698,0.0,0.0,0.0,0.0,0.0,0.0,0.0,0.0,0.0,0.0,0.0,0.0,0.0,0.0,0.0,0.0,0.0,0.0,0.0,0.0,0.0,0.0,4.8201,4.8201,4.8201,4.8201,4.8201,4.8201,4.8201,4.8201,4.8201,4.8201,4.8201,4.785,4.7205,4.7294,4.7265,4.7176,4.6661,4.6695,4.7176,4.69,4.7397,4.8394,4.9109,5.004,5.1021,5.1439,5.1596,5.1596,5.1596,5.1596,5.1596,5.1596,5.1596,5.1596,5.1596,5.1596,5.1596,5.1596,5.1596,5.1596,5.1596,5.1596,5.1596,5.1596,5.1596,5.1596,5.1596,5.1596,5.1596,5.1596,5.1596,5.1596,5.1596,5.1596,5.1596,5.1596,5.1596,5.1596,5.1596,5.1596,5.1596,5.1596,5.1596,5.1596,5.1596,5.1596,5.1596,5.1596,5.1596,5.1596,5.1596,5.1596,5.1596,5.1596,5.1596,5.1596,5.1596,5.1596,5.1596,5.1596,5.1596,5.1408,3.2574,3.2698,3.2698,3.2698,3.2698,3.2698,3.2698,3.2698,0.0,3.2698,0.0,0.0,0.0,0.0,0.0,0.0,0.0,0.0,0.0,0.0,0.0,0.0,0.0,0.0,0.0,0.0,0.0,0.0,0.0,0.0,4.8201,4.8201,4.8201,4.8201,4.8201,4.8201,4.8201,4.8201,4.8201,4.8201,4.8201,4.785,4.7205,4.7501,4.7501,4.7176,4.69,4.693,4.7176,4.69,4.7652,4.8958,4.9294,5.0274,5.1544,5.157,5.1596,5.1596,5.1596,5.1596,5.1596,5.1596,5.1596,5.1596,5.1596,5.1596,5.1596,5.1596,5.1596,5.1596,5.1596,5.1596,5.1596,5.1596,5.1596,5.1596,5.1596,5.1596,5.1596,5.1596,5.1596,5.1596,5.1596,5.1596,5.1596,5.1596,5.1596,5.1596,5.1596,5.1596,5.1596,5.1596,5.1596,5.1596,5.1596,5.1596,5.1596,5.1596,5.1596,5.1596,5.1596,5.1596,5.1596,5.1596,5.1596,5.1596,5.1596,5.1596,5.1596,5.1596,5.1596,5.1408,3.2574,3.2698,3.2698,3.2698,3.2698,0.0,0.0,3.2698,3.2698,3.2698,3.2698,0.0,0.0,0.0,0.0,0.0,0.0,0.0,0.0,0.0,0.0,0.0,0.0,0.0,0.0,0.0,0.0,0.0,0.0,0.0,4.8201,4.8201,4.8201,4.8201,4.8201,4.8201,4.8201,4.8201,4.8084,4.788,4.788,4.7556,4.6959,4.7078,4.7078,4.693,4.6601,4.6755,4.7176,4.69,4.7772,4.9367,5.0348,5.1111,5.1596,5.1596,5.1596,5.1596,5.1596,5.1596,5.1596,5.1596,5.1596,5.1596,5.1596,5.1596,5.1596,5.1596,5.1596,5.1596,5.1596,5.1596,5.1596,5.1596,5.1596,5.1596,5.1596,5.1596,5.1596,5.1596,5.1596,5.1596,5.1596,5.1596,5.1596,5.1596,5.1596,5.1596,5.1596,5.1596,5.1596,5.1596,5.1596,5.1596,5.1596,5.1596,5.1596,5.1596,5.1596,5.1596,5.1596,5.1596,5.1596,5.1596,5.1596,5.1596,5.1596,5.1596,5.1596,5.1596,5.1596,5.1314,3.2615,3.2698,3.2698,3.2698,0.0,0.0,3.2698,3.2698,3.2698,3.2698,3.327,0.0,0.0,0.0,0.0,0.0,0.0,0.0,0.0,0.0,0.0,0.0,0.0,0.0,0.0,0.0,0.0,0.0,0.0,0.0,0.0,4.8201,4.8201,4.8201,4.8201,4.8201,4.8201,4.8201,4.7967,4.753,4.7648,4.7379,4.6806,4.6989,4.7019,4.69,4.6571,4.6725,4.7176,4.6993,4.7957,4.9672,5.109,5.1596,5.1596,5.1596,5.1596,5.1596,5.1596,5.1596,5.1596,5.1596,5.1596,5.1596,5.1596,5.1596,5.1596,5.1596,5.1596,5.1596,5.1596,5.1596,5.1596,5.1596,5.1596,5.1596,5.1596,5.1596,5.1596,5.1596,5.1596,5.1596,5.1596,5.1596,5.1596,5.1596,5.1596,5.1596,5.1596,5.1596,5.1596,5.1596,5.1596,5.1596,5.1596,5.1596,5.1596,5.1596,5.1596,5.1596,5.1596,5.1596,5.1596,5.1596,5.1596,5.1596,5.1596,5.1596,5.1596,5.1596,5.1471,5.1126,3.2698,3.2698,3.2698,0.0,0.0,0.0,3.2698,3.2698,3.2698,3.2719,0.0,3.5742,0.0,0.0,0.0,0.0,0.0,0.0,0.0,0.0,0.0,0.0,0.0,0.0,0.0,0.0,0.0,0.0,0.0,0.0,0.0,4.8201,4.8201,4.8201,4.8201,4.8201,4.8201,4.8201,4.785,4.7205,4.753,4.7379,4.6836,4.7409,4.7501,4.7176,4.69,4.6959,4.7205,4.7205,4.8287,5.0002,5.1152,5.1596,5.1596,5.1596,5.1596,5.1596,5.1596,5.1596,5.1596,5.1596,5.1596,5.1596,5.1596,5.1596,5.1596,5.1596,5.1596,5.1596,5.1596,5.1596,5.1596,5.1596,5.1596,5.1596,5.1596,5.1596,5.1596,5.1596,5.1596,5.1596,5.1596,5.1596,5.1596,5.1596,5.1596,5.1596,5.1596,5.1596,5.1596,5.1596,5.1596,5.1596,5.1596,5.1596,5.1596,5.1596,5.1596,5.1596,5.1596,5.1596,5.1596,5.1596,5.1596,5.1596,5.1596,5.1596,5.1596,5.1596,5.1246,5.0931,3.2698,3.2698,0.0,3.2698,0.0,0.0,0.0,3.2698,0.0,0.0,3.3981,0.0,0.0,0.0,0.0,0.0,0.0,0.0,0.0,0.0,0.0,0.0,0.0,0.0,0.0,0.0,0.0,0.0,0.0,0.0,0.0,4.8201,4.8201,4.8201,4.8201,4.8201,4.8201,4.8201,4.785,4.7205,4.7792,4.7468,4.6451,4.687,4.7019,4.69,4.6571,4.687,4.7637,4.8677,4.9256,4.9672,5.1059,5.1596,5.1596,5.1596,5.1596,5.1596,5.1596,5.1596,5.1596,5.1596,5.1596,5.1596,5.1596,5.1596,5.1596,5.1596,5.1596,5.1596,5.1596,5.1596,5.1596,5.1596,5.1596,5.1596,5.1596,5.1596,5.1596,5.1596,5.1596,5.1596,5.1596,5.1596,5.1596,5.1596,5.1596,5.1596,5.1596,5.1596,5.1596,5.1596,5.1596,5.1596,5.1596,5.1596,5.1596,5.1596,5.1596,5.1596,5.1596,5.1596,5.1596,5.1596,5.1596,5.1596,5.1596,5.1346,5.1246,5.1246,5.0899,5.0582,3.2698,3.2698,0.0,3.2698,3.2698,3.2698,3.2698,0.0,0.0,0.0,0.0,0.0,0.0,0.0,0.0,0.0,0.0,0.0,0.0,0.0,0.0,0.0,0.0,0.0,0.0,0.0,0.0,0.0,0.0,0.0,0.0,4.8201,4.8201,4.8201,4.8201,4.8201,4.8201,4.8201,4.785,4.7205,4.788,4.7552,4.6301,4.6751,4.6959,4.6959,4.6725,4.7053,4.7781,4.9036,4.9564,4.9703,5.109,5.1596,5.1596,5.1596,5.1596,5.1596,5.1596,5.1596,5.1596,5.1596,5.1596,5.1596,5.1596,5.1596,5.1596,5.1596,5.1596,5.1596,5.1596,5.1596,5.1596,5.1596,5.1596,5.1596,5.1596,5.1596,5.1596,5.1596,5.1596,5.1596,5.1596,5.1596,5.1596,5.1596,5.1596,5.1596,5.1596,5.1596,5.1596,5.1596,5.1596,5.1596,5.1596,5.1596,5.1596,5.1596,5.1596,5.1596,5.1596,5.1596,5.1596,5.1596,5.1596,5.1596,5.1596,5.1277,5.1088,5.1088,5.0614,5.0295,3.2698,3.2698,0.0,3.2698,3.2698,0.0,3.2698,0.0,0.0,0.0,0.0,0.0,0.0,0.0,0.0,0.0,0.0,0.0,0.0,0.0,0.0,0.0,0.0,0.0,0.0,0.0,0.0,0.0,0.0,0.0,0.0,4.8201,4.8201,4.8201,4.8201,4.8201,4.8201,4.8201,4.788,4.7265,4.7909,4.7556,4.6391,4.6938,4.7176,4.7176,4.7265,4.7442,4.7781,4.8699,4.9407,5.0002,5.1152,5.1596,5.1596,5.1596,5.1596,5.1596,5.1596,5.1596,5.1596,5.1596,5.1596,5.1596,5.1596,5.1596,5.1596,5.1596,5.1596,5.1596,5.1596,5.1596,5.1596,5.1596,5.1596,5.1596,5.1596,5.1596,5.1596,5.1596,5.1596,5.1596,5.1596,5.1596,5.1596,5.1596,5.1596,5.1596,5.1596,5.1596,5.1596,5.1596,5.1596,5.1596,5.1596,5.1596,5.1596,5.1596,5.1596,5.1596,5.1596,5.1596,5.1596,5.1596,5.1596,5.1596,5.1596,5.1246,5.1057,5.1025,5.0359,5.0104,3.2698,3.2698,0.0,0.0,3.2698,3.2698,3.2698,3.2698,0.0,0.0,0.0,0.0,0.0,0.0,0.0,0.0,0.0,0.0,0.0,0.0,0.0,0.0,0.0,0.0,0.0,0.0,0.0,0.0,0.0,0.0,4.8201,4.8201,4.8201,4.8201,4.8201,4.8201,4.8201,4.8201,4.7997,0.0,4.7997,4.7792,4.6998,4.7146,4.7112,4.693,4.7674,4.788,4.781,4.9157,4.9776,5.0002,5.1152,5.1596,5.1596,5.1596,5.1596,5.1596,5.1596,5.1596,5.1596,5.1596,5.1596,5.1596,5.1596,5.1596,5.1596,5.1596,5.1596,5.1596,5.1596,5.1596,5.1596,5.1596,5.1596,5.1596,5.1596,5.1596,5.1596,5.1596,5.1596,5.1596,5.1596,5.1596,5.1596,5.1596,5.1596,5.1596,5.1596,5.1596,5.1596,5.1596,5.1596,5.1596,5.1596,5.1596,5.1596,5.1596,5.1596,5.1596,5.1596,5.1596,5.1596,5.1596,5.1596,5.1596,5.1596,5.1,5.0715,5.0683,5.0008,5.0238,3.2698,0.0,0.0,3.2698,0.0,3.2698,3.2698,3.2698,0.0,0.0,0.0,0.0,0.0,0.0,0.0,0.0,0.0,0.0,0.0,0.0,0.0,0.0,0.0,0.0,0.0,0.0,0.0,0.0,0.0,4.8201,4.8201,4.8201,4.8201,4.8201,4.8201,4.8201,4.8201,4.8201,4.7938,4.7471,4.7967,4.785,4.7205,4.7353,4.729,4.7023,4.7674,4.7938,4.8016,4.893,4.9541,4.9976,5.0864,5.1361,5.1596,5.1596,5.1596,5.1596,5.1596,5.1596,5.1596,5.1596,5.1596,5.1596,5.1596,5.1596,5.1596,5.1596,5.1596,5.1596,5.1596,5.1596,5.1596,5.1596,5.1596,5.1596,5.1596,5.1596,5.1596,5.1596,5.1596,5.1596,5.1596,5.1596,5.1596,5.1596,5.1596,5.1596,5.1596,5.1596,5.1596,5.1596,5.1596,5.1596,5.1596,5.1596,5.1596,5.1596,5.1596,5.1596,5.1596,5.1596,5.1596,5.1596,5.144,5.1346,5.1346,5.0709,5.0359,5.0359,4.9847,5.0276,3.2698,3.2698,3.2698,3.2698,3.2698,0.0,3.2698,3.2698,3.2967,0.0,0.0,0.0,0.0,0.0,0.0,0.0,0.0,0.0,0.0,0.0,0.0,0.0,0.0,0.0,0.0,0.0,0.0,0.0,0.0,4.8201,4.8201,4.8201,4.8201,4.8201,4.8201,4.8201,4.8201,4.8201,4.788,4.7294,4.785,4.7792,4.7205,4.7589,4.756,4.7235,4.7645,4.7938,4.8224,4.8559,4.9191,4.9949,5.0551,5.1126,5.1596,5.1596,5.1596,5.1596,5.1596,5.1596,5.1596,5.1596,5.1596,5.1596,5.1596,5.1596,5.1596,5.1596,5.1596,5.1596,5.1596,5.1596,5.1596,5.1596,5.1596,5.1596,5.1596,5.1596,5.1596,5.1596,5.1596,5.1596,5.1596,5.1596,5.1596,5.1596,5.1596,5.1596,5.1596,5.1596,5.1596,5.1596,5.1596,5.1596,5.1596,5.1596,5.1596,5.1596,5.1596,5.1596,5.1596,5.1534,5.1502,5.1502,5.1246,5.1057,5.1025,5.0391,5.0097,5.0097,4.9976,5.0626,3.2698,0.0,3.2698,0.0,3.2698,3.2698,0.0,0.0,3.2967,0.0,0.0,0.0,0.0,0.0,0.0,0.0,0.0,0.0,0.0,0.0,0.0,0.0,0.0,0.0,0.0,0.0,0.0,0.0,4.8201,4.8201,4.8201,4.8201,4.8201,4.8201,4.8201,4.8201,4.8201,4.8201,4.7997,4.7619,4.7733,4.756,4.7235,4.785,4.7792,4.7235,4.785,4.8143,4.8224,4.8796,4.9371,4.9949,5.0551,5.1126,5.1596,5.1596,5.1596,5.1596,5.1596,5.1596,5.1596,5.1596,5.1596,5.1596,5.1596,5.1596,5.1596,5.1596,5.1596,5.1596,5.1596,5.1596,5.1596,5.1596,5.1596,5.1596,5.1596,5.1596,5.1596,5.1596,5.1596,5.1596,5.1596,5.1596,5.1596,5.1596,5.1596,5.1596,5.1596,5.1596,5.1596,5.1596,5.1596,5.1596,5.1596,5.1596,5.1596,5.1596,5.1596,5.1596,5.1596,5.134,5.1183,5.1183,5.112,5.0962,5.0677,5.0295,5.0097,5.0129,5.0885,5.1953,3.2698,3.2698,3.2698,0.0,3.2698,3.2698,3.2698,0.0,3.3197,0.0,0.0,0.0,0.0,0.0,0.0,0.0,0.0,0.0,0.0,0.0,0.0,0.0,0.0,0.0,0.0,0.0,0.0,0.0,4.8201,4.8201,4.8201,4.8201,4.8201,4.8201,4.8201,4.8201,4.8201,4.8201,4.8114,4.7967,4.7464,4.7201,4.7235,4.7703,4.7648,4.7235,4.7909,4.8201,4.8227,4.8515,4.893,4.9505,5.0054,5.0629,5.1178,5.1492,5.1596,5.1596,5.1596,5.1596,5.1596,5.1596,5.1596,5.1596,5.1596,5.1596,5.1596,5.1596,5.1596,5.1596,5.1596,5.1596,5.1596,5.1596,5.1596,5.1596,5.1596,5.1596,5.1596,5.1596,5.1596,5.1596,5.1596,5.1596,5.1596,5.1596,5.1596,5.1596,5.1596,5.1596,5.1596,5.1596,5.1596,5.1596,5.1596,5.1596,5.1596,5.1596,5.1596,5.1596,5.1596,5.1277,5.1025,5.0836,5.0646,5.0455,5.0327,4.9976,5.0174,5.0885,5.1299,5.2604,3.2698,0.0,3.2698,3.2698,3.2698,3.2698,0.0,0.0,3.3327,0.0,0.0,0.0,0.0,0.0,0.0,0.0,0.0,0.0,0.0,0.0,0.0,0.0,0.0,0.0,0.0,0.0,0.0,0.0,4.8201,4.8201,4.8201,4.8201,4.8201,4.8201,4.8201,4.8201,4.8201,4.8114,4.8114,4.8172,4.7316,4.7053,4.7324,4.7589,4.756,4.7353,4.7938,4.8201,4.8201,4.8201,4.8567,4.9139,4.9688,5.0263,5.0864,5.1387,5.1596,5.1596,5.1596,5.1596,5.1596,5.1596,5.1596,5.1596,5.1596,5.1596,5.1596,5.1596,5.1596,5.1596,5.1596,5.1596,5.1596,5.1596,5.1596,5.1596,5.1596,5.1596,5.1596,5.1596,5.1596,5.1596,5.1596,5.1596,5.1596,5.1596,5.1596,5.1596,5.1596,5.1596,5.1596,5.1596,5.1596,5.1596,5.1596,5.1596,5.1596,5.1596,5.1596,5.1596,5.1596,5.1214,5.0867,5.0588,5.02,4.9944,4.9944,5.0046,5.0569,5.1523,5.2174,5.3547,0.0,3.2698,0.0,3.2698,3.2698,3.2698,0.0,0.0,0.0,0.0,0.0,0.0,0.0,0.0,0.0,0.0,0.0,0.0,0.0,0.0,0.0,0.0,0.0,0.0,0.0,0.0,0.0,0.0,4.8201,4.8201,4.8201,4.8201,4.8201,4.8201,4.8201,4.8201,4.8201,4.788,4.788,4.8172,4.7501,4.7353,4.7648,4.7703,4.7703,4.7703,4.8055,4.8201,4.8201,4.8201,4.8567,4.9139,4.9688,5.0263,5.0864,5.1387,5.1596,5.1596,5.1596,5.1596,5.1596,5.1596,5.1596,5.1596,5.1596,5.1596,5.1596,5.1596,5.1596,5.1596,5.1596,5.1596,5.1596,5.1596,5.1596,5.1596,5.1596,5.1596,5.1596,5.1596,5.1596,5.1596,5.1596,5.1596,5.1596,5.1596,5.1596,5.1596,5.1596,5.1596,5.1596,5.1596,5.1596,5.1596,5.1596,5.1596,5.1596,5.1596,5.1596,5.1596,5.1596,5.0968,5.062,5.0588,4.9976,4.9622,4.9622,5.0822,5.1429,5.1554,5.4027,5.5267,0.0,0.0,0.0,3.2698,3.2698,3.2698,3.2698,3.3097,3.3451,0.0,0.0,0.0,0.0,0.0,0.0,0.0,0.0,0.0,0.0,0.0,0.0,0.0,0.0,0.0,0.0,0.0,0.0,0.0,0.0,4.8201,4.8201,4.8201,4.8201,4.8201,4.8201,4.8201,4.8201,4.788,4.788,4.8172,4.7375,4.7201,4.7703,4.7471,4.7501,4.7733,4.8055,4.8201,4.8201,4.8201,4.8332,4.8594,4.9139,4.9714,5.0289,5.0864,5.1309,5.1596,5.1596,5.1596,5.1596,5.1596,5.1596,5.1596,5.1596,5.1596,5.1596,5.1596,5.1596,5.1596,5.1596,5.1596,5.1596,5.1596,5.1596,5.1596,5.1596,5.1596,5.1596,5.1596,5.1596,5.1596,5.1596,5.1596,5.1596,5.1596,5.1596,5.1596,5.1596,5.1596,5.1596,5.1596,5.1596,5.1596,5.1596,5.1596,5.1596,5.1596,5.1596,5.1596,5.1596,5.0968,5.0588,5.0588,4.9944,4.959,4.959,5.0885,5.1927,5.2845,5.459,5.5847,3.2698,0.0,0.0,0.0,3.2698,3.2698,3.2698,0.0,3.3409,0.0,0.0,0.0,0.0,0.0,0.0,0.0,0.0,0.0,0.0,0.0,0.0,0.0,0.0,0.0,0.0,0.0,0.0,0.0,0.0,0.0,4.8201,4.8201,4.8201,4.8201,4.8201,4.8201,4.8201,4.7967,4.7967,4.8172,4.7464,4.7375,4.785,4.7501,4.753,4.788,4.8084,4.8201,4.8201,4.8201,4.8201,4.825,4.8852,4.9326,4.9744,5.0498,5.1021,5.1361,5.1544,5.1596,5.1596,5.1596,5.1596,5.1596,5.1596,5.1596,5.1596,5.1596,5.1596,5.1596,5.1596,5.1596,5.1596,5.1596,5.1596,5.1596,5.1596,5.1596,5.1596,5.1596,5.1596,5.1596,5.1596,5.1596,5.1596,5.1596,5.1596,5.1596,5.1596,5.1596,5.1596,5.1596,5.1596,5.1596,5.1596,5.1596,5.1596,5.1596,5.1596,5.1534,5.144,5.0905,5.0525,5.0423,5.0302,5.0245,5.0245,5.1518,5.2631,5.354,5.5265,5.6623,0.0,0.0,0.0,0.0,0.0,0.0,3.2698,0.0,3.3097,0.0,0.0,0.0,0.0,0.0,0.0,0.0,0.0,0.0,0.0,0.0,0.0,0.0,0.0,0.0,0.0,0.0,0.0,0.0,4.8201,4.8201,4.8201,4.8201,4.8201,4.8201,4.8201,4.8201,4.8201,4.8201,4.8201,4.8201,4.785,4.788,4.8172,4.785,4.788,4.8201,4.8201,4.8201,4.8201,4.8201,4.8201,4.828,4.8826,4.9061,4.9218,5.0342,5.076,5.0864,5.1387,5.1596,5.1596,5.1596,5.1596,5.1596,5.1596,5.1596,5.1596,5.1596,5.1596,5.1596,5.1596,5.1596,5.1596,5.1596,5.1596,5.1596,5.1596,5.1596,5.1596,5.1596,5.1596,5.1596,5.1596,5.1596,5.1596,5.1596,5.1596,5.1596,5.1596,5.1596,5.1596,5.1596,5.1596,5.1596,5.1596,5.1596,5.1596,5.1596,5.1596,5.144,5.112,5.0772,5.0455,5.0136,5.1042,5.1523,5.1554,5.2906,5.3571,5.3631,5.6164,5.7681,3.2698,0.0,0.0,0.0,0.0,0.0,0.0,0.0,0.0,3.2755,0.0,0.0,0.0,0.0,0.0,0.0,0.0,0.0,0.0,0.0,0.0,0.0,0.0,0.0,0.0,0.0,0.0,0.0,4.8201,4.8201,4.8201,4.8201,4.8201,4.8201,4.8201,4.8201,4.8201,4.8201,4.8201,4.8201,4.785,4.788,4.8172,4.785,4.788,4.8201,4.8201,4.8201,4.8201,4.8201,4.8201,4.8227,4.8384,4.8724,4.9143,4.9453,5.008,5.0812,5.0969,5.1256,5.1596,5.1596,5.1596,5.1596,5.1596,5.1596,5.1596,5.1596,5.1596,5.1596,5.1596,5.1596,5.1596,5.1596,5.1596,5.1596,5.1596,5.1596,5.1596,5.1596,5.1596,5.1596,5.1596,5.1596,5.1596,5.1596,5.1596,5.1596,5.1596,5.1596,5.1596,5.1596,5.1596,5.1596,5.1596,5.1596,5.1596,5.1596,5.1346,5.1214,5.1088,5.055,5.062,5.145,5.1486,5.1958,5.2937,5.4233,5.4856,5.4942,5.7053,5.8377,0.0,0.0,0.0,0.0,0.0,0.0,3.2698,3.2841,3.2926,0.0,0.0,0.0,0.0,0.0,0.0,0.0,0.0,0.0,0.0,0.0,0.0,0.0,0.0,0.0,0.0,4.8041,4.8201,4.8201,4.8201,4.8201,4.8201,4.8201,4.8201,4.8201,4.8201,4.8201,4.8201,4.8201,4.8201,4.8201,4.7997,4.7997,4.8172,4.7997,4.8026,4.8201,4.8201,4.8201,4.8201,4.8201,4.8201,4.8201,4.8201,4.8407,4.8777,4.9012,4.9505,5.0159,5.0629,5.0995,5.1309,5.1518,5.1596,5.1596,5.1596,5.1596,5.1596,5.1596,5.1596,5.1596,5.1596,5.1596,5.1596,5.1596,5.1596,5.1596,5.1596,5.1596,5.1596,5.1596,5.1596,5.1596,5.1596,5.1596,5.1596,5.1596,5.1596,5.1596,5.1596,5.1596,5.1596,5.1596,5.1596,5.1596,5.1596,5.1596,5.1534,5.1377,5.1214,5.0962,5.0677,5.0295,5.0366,5.1005,5.186,5.3244,5.5091,5.5324,5.5815,5.665,5.8321,5.9306,0.0,0.0,0.0,0.0,0.0,0.0,3.2698,3.2698,3.2698,0.0,0.0,0.0,0.0,0.0,0.0,0.0,0.0,0.0,0.0,0.0,0.0,0.0,0.0,0.0,4.7252,4.7806,4.812,4.8201,4.8201,4.8201,4.8201,4.8201,4.8201,4.8201,4.8201,4.8201,4.8201,4.8201,4.8201,4.8201,4.8201,4.8201,4.8201,4.8201,4.8201,4.8201,4.8201,4.8201,4.8201,4.8201,4.8201,4.8201,4.8201,4.8201,4.825,4.8773,4.9035,4.9218,5.0263,5.0681,5.0864,5.1361,5.1544,5.1596,5.1596,5.1596,5.1596,5.1596,5.1596,5.1596,5.1596,5.1596,5.1596,5.1596,5.1596,5.1596,5.1596,5.1596,5.1596,5.1596,5.1596,5.1596,5.1596,5.1596,5.1596,5.1596,5.1596,5.1596,5.1596,5.1596,5.1596,5.1596,5.1596,5.1565,5.1534,5.1534,5.1377,5.1057,5.0994,5.0709,5.0129,5.0065,5.004,5.0014,5.257,5.5088,5.7419,5.6279,5.6649,5.8435,5.9626,6.0235,0.0,0.0,0.0,0.0,0.0,0.0,3.2698,3.2698,3.2698,0.0,3.2755,3.2958,0.0,0.0,0.0,0.0,0.0,0.0,0.0,0.0,0.0,0.0,0.0,0.0,4.7117,4.7411,4.7702,4.8146,4.8201,4.8201,4.8201,4.8201,4.8201,4.8201,4.8201,4.8201,4.8201,4.8201,4.8201,4.8201,4.8201,4.8201,4.8201,4.8201,4.8201,4.8201,4.8201,4.8201,4.8201,4.8201,4.8201,4.8201,4.8201,4.8201,4.8198,4.8329,4.8669,4.9113,4.9348,5.0028,5.0812,5.0917,5.123,5.1596,5.1596,5.1596,5.1596,5.1596,5.1596,5.1596,5.1596,5.1596,5.1596,5.1596,5.1596,5.1596,5.1596,5.1596,5.1596,5.1596,5.1596,5.1596,5.1596,5.1596,5.1596,5.1596,5.1596,5.1596,5.1596,5.1596,5.1596,5.1596,5.1596,5.1471,5.1214,5.1214,5.1057,5.0715,5.0423,5.0257,5.0129,4.9815,5.0683,5.2719,5.5237,5.7053,5.8116,5.7858,5.8205,5.9132,5.9858,6.0496,0.0,0.0,0.0,3.2698,0.0,0.0,0.0,3.2698,3.2869,3.3473,3.3105,3.296,3.3777,0.0,0.0,0.0,0.0,0.0,0.0,0.0,0.0,0.0,0.0,0.0,4.5349,4.594,4.6736,4.8117,4.8201,4.8201,4.8201,4.8201,4.8201,4.8201,4.8201,4.8201,4.8201,4.8201,4.8201,4.8201,4.8201,4.8201,4.8201,4.8201,4.8201,4.8201,4.8201,4.8201,4.8201,4.8201,4.8201,4.8201,4.8201,4.8201,4.8201,4.8201,4.841,4.8669,4.9012,4.9453,5.0028,5.0603,5.0969,5.1256,5.1518,5.1596,5.1596,5.1596,5.1596,5.1596,5.1596,5.1596,5.1596,5.1596,5.1596,5.1596,5.1596,5.1596,5.1596,5.1596,5.1596,5.1596,5.1596,5.1596,5.1596,5.1596,5.1596,5.1596,5.1596,5.1596,5.1596,5.1596,5.1596,5.144,5.112,5.1088,5.0899,5.0391,5.0168,5.0033,4.9847,4.9687,5.0816,5.345,5.5382,5.6996,5.829,5.8639,5.9132,5.9771,6.0409,6.0874,0.0,0.0,0.0,0.0,0.0,3.2698,0.0,0.0,0.0,3.3987,0.0,0.0,0.0,0.0,0.0,0.0,0.0,0.0,0.0,0.0,0.0,0.0,0.0,0.0,0.0,4.4315,4.5813,4.7788,4.812,4.8201,4.8201,4.8201,4.8201,4.8201,4.8201,4.8201,4.8201,4.8201,4.8201,4.8201,4.8201,4.8201,4.8201,4.8201,4.8201,4.8201,4.8201,4.8201,4.8201,4.8201,4.8201,4.8201,4.8201,4.8201,4.8201,4.8201,4.8201,4.825,4.8777,4.9012,4.9244,5.0159,5.0603,5.089,5.1439,5.1596,5.1596,5.1596,5.1596,5.1596,5.1596,5.1596,5.1596,5.1596,5.1596,5.1596,5.1596,5.1596,5.1596,5.1596,5.1596,5.1596,5.1596,5.1596,5.1596,5.1596,5.1596,5.1596,5.1596,5.1596,5.1596,5.1596,5.1534,5.1346,5.1025,5.0931,5.0646,5.004,5.0001,4.9879,4.9622,5.0078,5.145,5.3814,5.526,5.6793,5.8493,5.9161,5.9713,6.0206,6.0874,6.1193,0.0,0.0,0.0,0.0,3.2698,0.0,0.0,0.0,3.4043,3.3105,0.0,0.0,0.0,0.0,0.0,0.0,0.0,0.0,0.0,0.0,0.0,0.0,0.0,0.0,0.0,4.3556,4.5548,4.6927,4.7768,4.8201,4.8201,4.8201,4.8201,4.8201,4.8201,4.8201,4.8201,4.8201,4.8201,4.8201,4.8201,4.8201,4.8201,4.8201,4.8201,4.8201,4.8201,4.8201,4.8201,4.8201,4.8201,4.8201,4.8201,4.8201,4.8201,4.8201,4.8201,4.8227,4.8306,4.8672,4.9143,4.9244,4.9976,5.089,5.1439,5.1596,5.1596,5.1596,5.1596,5.1596,5.1596,5.1596,5.1596,5.1596,5.1596,5.1596,5.1596,5.1596,5.1596,5.1596,5.1596,5.1596,5.1596,5.1596,5.1596,5.1596,5.1596,5.1596,5.1596,5.1596,5.1596,5.1596,5.134,5.1025,5.0683,5.0391,5.004,4.9687,4.9654,4.9622,4.959,5.1824,5.3724,5.515,5.7024,5.8379,5.919,5.98,6.0119,6.0206,6.0874,6.1193,0.0,0.0,0.0,0.0,0.0,0.0,3.3734,0.0,3.4719,0.0,0.0,0.0,0.0,0.0,0.0,0.0,0.0,0.0,0.0,0.0,0.0,0.0,0.0,0.0,0.0,0.0,0.0,0.0,4.7458,4.7832,4.8172,4.8201,4.8201,4.8201,4.8201,4.8201,4.8201,4.8201,4.8201,4.8201,4.8201,4.8201,4.8201,4.8201,4.8201,4.8201,4.8201,4.8201,4.8201,4.8201,4.8201,4.8201,4.8201,4.8201,4.8201,4.8201,4.8201,4.8201,4.8201,4.8384,4.8698,4.9348,5.0106,5.089,5.1439,5.1596,5.1596,5.1596,5.1596,5.1596,5.1596,5.1596,5.1596,5.1596,5.1596,5.1596,5.1596,5.1596,5.1596,5.1596,5.1596,5.1596,5.1596,5.1596,5.1596,5.1596,5.1596,5.1596,5.1596,5.1596,5.1596,5.1596,5.1309,5.0962,5.062,5.0295,4.9944,4.9622,5.0276,5.0695,5.0695,5.3211,5.4826,5.5412,5.7312,5.8639,5.9306,5.9916,6.0409,6.0787,6.1077,6.1193,3.3903,0.0,0.0,0.0,0.0,0.0,0.0,0.0,0.0,0.0,0.0,0.0,0.0,0.0,0.0,0.0,0.0,0.0,0.0,0.0,0.0,0.0,0.0,0.0,0.0,0.0,0.0,4.6303,4.6838,4.7288,4.7821,4.7977,4.8084,4.8201,4.8201,4.8201,4.8201,4.8201,4.8201,4.8201,4.8201,4.8201,4.8201,4.8201,4.8201,4.8201,4.8201,4.8201,4.8201,4.8201,4.8201,4.8201,4.8201,4.8201,4.8201,4.8201,4.8201,4.8201,4.8201,4.8201,4.8355,4.9348,5.0054,5.0655,5.1204,5.1465,5.1596,5.1596,5.1596,5.1596,5.1596,5.1596,5.1596,5.1596,5.1596,5.1596,5.1596,5.1596,5.1596,5.1596,5.1596,5.1596,5.1596,5.1596,5.1596,5.1596,5.1596,5.1596,5.1596,5.1596,5.1565,5.1471,5.1183,5.0836,5.0487,5.0168,4.9847,4.9622,5.079,5.1647,5.202,5.4206,5.5671,5.616,5.7744,5.89,5.9539,6.0177,6.0729,6.1193,6.1193,6.1193,0.0,0.0,0.0,3.4803,0.0,0.0,0.0,0.0,3.5831,0.0,0.0,0.0,0.0,0.0,0.0,0.0,0.0,0.0,0.0,0.0,0.0,0.0,0.0,0.0,0.0,0.0,4.2992,4.432,4.5652,4.6585,4.6933,4.7422,4.785,4.8172,4.8201,4.8201,4.8201,4.8201,4.8201,4.8201,4.8201,4.8201,4.8201,4.8201,4.8201,4.8201,4.8201,4.8201,4.8201,4.8201,4.8201,4.8201,4.8201,4.8201,4.8201,4.8201,4.8201,4.8201,4.8201,4.8201,4.8306,4.8934,4.9479,5.0028,5.0629,5.1178,5.1596,5.1596,5.1596,5.1596,5.1596,5.1596,5.1596,5.1596,5.1596,5.1596,5.1596,5.1596,5.1596,5.1596,5.1596,5.1596,5.1596,5.1596,5.1596,5.1596,5.1596,5.1596,5.1596,5.1596,5.1471,5.1151,5.0836,5.0487,5.0161,4.9815,4.9622,4.959,5.079,5.2077,5.3362,5.4679,5.6304,5.8175,5.89,5.9568,6.0177,6.0845,6.1164,6.1193,6.1193,6.1193,0.0,0.0,3.7716,3.624,0.0,0.0,0.0,0.0,0.0,0.0,0.0,0.0,0.0,0.0,0.0,0.0,0.0,0.0,0.0,0.0,0.0,0.0,0.0,0.0,0.0,0.0,0.0,4.4418,4.4996,4.5648,4.6534,4.6736,4.714,4.7824,4.788,4.7967,4.8201,4.8201,4.8201,4.8201,4.8201,4.8201,4.8201,4.8201,4.8201,4.8201,4.8201,4.8201,4.8201,4.8201,4.8201,4.8201,4.8201,4.8201,4.8201,4.8201,4.8201,4.8201,4.8201,4.8201,4.8306,4.8878,4.9218,4.9561,5.0498,5.0917,5.1126,5.1492,5.1596,5.1596,5.1596,5.1596,5.1596,5.1596,5.1596,5.1596,5.1596,5.1596,5.1596,5.1596,5.1596,5.1596,5.1596,5.1596,5.1596,5.1596,5.1596,5.1596,5.1596,5.1408,5.1246,5.112,5.0614,5.02,5.0129,4.9783,4.995,5.079,5.2108,5.3423,5.4708,5.5992,5.7167,5.829,5.8958,5.9597,6.0206,6.0874,6.1193,6.1193,6.1193,6.1193,3.8404,3.8951,0.0,3.7743,3.7928,0.0,3.7607,0.0,0.0,0.0,0.0,0.0,0.0,0.0,0.0,0.0,0.0,0.0,0.0,0.0,0.0,0.0,0.0,0.0,0.0,0.0,4.1349,4.3275,4.3582,4.4367,0.0,0.0,4.6813,4.7677,4.7821,4.7967,4.8201,4.8201,4.8201,4.8201,4.8201,4.8201,4.8201,4.8201,4.8201,4.8201,4.8201,4.8201,4.8201,4.8201,4.8201,4.8201,4.8201,4.8201,4.8201,4.8201,4.8201,4.8201,4.8201,4.8201,4.825,4.8672,4.8934,4.9244,5.0185,5.0629,5.0917,5.1439,5.1596,5.1596,5.1596,5.1596,5.1596,5.1596,5.1596,5.1596,5.1596,5.1596,5.1596,5.1596,5.1596,5.1596,5.1596,5.1596,5.1596,5.1596,5.1596,5.1565,5.144,5.1246,5.0994,5.0772,5.0359,5.0065,4.9912,5.0142,5.0632,5.1429,5.3184,5.4531,5.5382,5.6623,5.7739,5.8639,5.9074,5.9713,6.0555,6.099,6.1193,6.1193,6.1193,6.1193]},{"header":{"parameterUnit":"m.s-1","parameterCategory":1,"la1":30.6,"la2":29.2853,"lo1":-89.7004,"lo2":-87.6739,"dy":0.0162,"dx":0.0183,"nx":112,"ny":82,"refTime":"2023-03-16T18:00:00:Z","depth":0,"parameterNumber":3,"parameterNumberName":"V-component_of_WINDS"},"data":[0.0,0.0,0.0,0.0,0.0,0.0,0.0,0.0,0.0,0.0,0.0,0.0,0.0,0.0,0.0,0.0,0.0,0.0,0.0,0.0,0.0,0.0,0.0,0.0,0.0,0.0,0.0,0.0,0.0,0.0,0.0,0.0,0.0,0.0,0.0,0.0,0.0,0.0,0.0,0.0,0.0,0.0,0.0,0.0,0.0,0.0,0.0,0.0,0.0,0.0,0.0,0.0,0.0,0.0,0.0,0.0,0.0,0.0,0.0,0.0,0.0,0.0,0.0,0.0,0.0,0.0,0.0,0.0,0.0,0.0,0.0,0.0,0.0,0.0,0.0,0.0,0.0,0.0,0.0,0.0,0.0,0.0,0.0,0.0,0.0,0.0,0.0,0.0,0.0,0.0,0.0,3.1141,3.1623,3.1958,3.1958,3.1958,3.2128,3.2587,0.0,0.0,0.0,0.0,0.0,0.0,0.0,0.0,0.0,0.0,0.0,0.0,0.0,0.0,0.0,0.0,0.0,0.0,0.0,0.0,0.0,0.0,0.0,0.0,0.0,0.0,0.0,0.0,0.0,0.0,0.0,0.0,0.0,0.0,0.0,0.0,0.0,0.0,0.0,0.0,0.0,0.0,0.0,0.0,0.0,0.0,0.0,0.0,0.0,0.0,0.0,0.0,0.0,0.0,0.0,0.0,0.0,0.0,0.0,0.0,0.0,0.0,0.0,0.0,0.0,0.0,0.0,0.0,0.0,0.0,0.0,0.0,0.0,0.0,0.0,0.0,0.0,0.0,0.0,0.0,0.0,0.0,0.0,0.0,0.0,0.0,0.0,0.0,0.0,0.0,0.0,0.0,0.0,0.0,0.0,0.0,0.0,0.0,0.0,0.0,0.0,0.0,0.0,0.0,3.1743,3.2202,3.2754,3.3067,3.3067,3.3067,3.3068,3.3164,0.0,0.0,0.0,0.0,0.0,0.0,0.0,0.0,0.0,0.0,0.0,0.0,0.0,0.0,0.0,0.0,0.0,0.0,0.0,0.0,0.0,0.0,0.0,0.0,0.0,0.0,0.0,0.0,0.0,0.0,0.0,0.0,0.0,0.0,0.0,0.0,0.0,0.0,0.0,0.0,0.0,0.0,0.0,0.0,0.0,0.0,0.0,0.0,0.0,0.0,0.0,0.0,0.0,0.0,0.0,0.0,0.0,0.0,0.0,0.0,0.0,0.0,0.0,0.0,0.0,0.0,0.0,0.0,0.0,0.0,0.0,0.0,0.0,0.0,0.0,0.0,0.0,0.0,0.0,0.0,0.0,0.0,0.0,0.0,0.0,0.0,0.0,0.0,0.0,0.0,0.0,0.0,0.0,0.0,0.0,0.0,0.0,0.0,0.0,0.0,0.0,0.0,0.0,3.2248,3.2658,3.2899,3.314,3.3284,3.3284,3.3767,3.3958,3.3692,3.397,0.0,0.0,0.0,0.0,0.0,0.0,0.0,0.0,0.0,0.0,0.0,0.0,0.0,0.0,0.0,0.0,0.0,0.0,0.0,0.0,0.0,0.0,0.0,0.0,0.0,0.0,0.0,0.0,0.0,0.0,0.0,0.0,0.0,0.0,0.0,0.0,0.0,0.0,0.0,0.0,0.0,0.0,0.0,0.0,0.0,0.0,0.0,0.0,0.0,0.0,0.0,0.0,0.0,0.0,0.0,0.0,0.0,0.0,0.0,0.0,0.0,0.0,0.0,0.0,0.0,0.0,0.0,0.0,0.0,0.0,0.0,0.0,0.0,0.0,0.0,0.0,0.0,0.0,0.0,0.0,0.0,0.0,0.0,0.0,0.0,0.0,0.0,0.0,0.0,0.0,0.0,0.0,0.0,0.0,0.0,0.0,0.0,0.0,0.0,0.0,0.0,0.0,3.314,3.3477,3.3477,3.3573,3.3645,3.3645,3.4525,3.4929,3.4554,3.5825,0.0,0.0,0.0,0.0,0.0,0.0,0.0,0.0,0.0,0.0,0.0,0.0,0.0,0.0,0.0,0.0,0.0,0.0,0.0,0.0,0.0,0.0,0.0,0.0,0.0,0.0,0.0,0.0,0.0,0.0,0.0,0.0,0.0,0.0,0.0,0.0,0.0,0.0,0.0,0.0,0.0,0.0,0.0,0.0,0.0,0.0,0.0,0.0,0.0,0.0,0.0,0.0,0.0,0.0,0.0,0.0,0.0,0.0,0.0,0.0,0.0,0.0,0.0,0.0,0.0,0.0,0.0,0.0,0.0,0.0,0.0,0.0,0.0,0.0,0.0,0.0,0.0,0.0,0.0,0.0,0.0,0.0,0.0,0.0,0.0,0.0,0.0,0.0,0.0,0.0,0.0,0.0,0.0,0.0,0.0,0.0,0.0,0.0,0.0,0.0,0.0,0.0,3.3645,3.3934,3.3934,3.4414,3.4703,3.4703,3.5591,3.616,3.6139,3.7093,0.0,0.0,0.0,0.0,0.0,0.0,0.0,0.0,0.0,0.0,0.0,0.0,0.0,0.0,0.0,0.0,0.0,0.0,0.0,0.0,0.0,0.0,0.0,0.0,0.0,0.0,0.0,0.0,0.0,0.0,0.0,0.0,0.0,0.0,0.0,0.0,0.0,0.0,0.0,0.0,0.0,0.0,0.0,0.0,0.0,0.0,0.0,0.0,0.0,0.0,0.0,0.0,0.0,0.0,0.0,0.0,0.0,0.0,0.0,0.0,0.0,0.0,0.0,0.0,0.0,0.0,0.0,0.0,0.0,0.0,0.0,0.0,0.0,0.0,0.0,0.0,0.0,0.0,0.0,0.0,0.0,0.0,0.0,0.0,0.0,0.0,0.0,0.0,0.0,0.0,0.0,0.0,0.0,0.0,0.0,0.0,0.0,0.0,0.0,0.0,0.0,0.0,3.4174,3.4511,0.0,3.5233,3.5739,3.5739,3.7194,3.8015,3.78,0.0,0.0,0.0,0.0,0.0,0.0,0.0,0.0,0.0,0.0,0.0,0.0,0.0,0.0,0.0,0.0,0.0,0.0,0.0,0.0,0.0,0.0,0.0,0.0,0.0,0.0,0.0,0.0,0.0,0.0,0.0,0.0,0.0,0.0,0.0,0.0,0.0,0.0,0.0,0.0,0.0,0.0,0.0,0.0,0.0,0.0,0.0,0.0,0.0,0.0,0.0,0.0,0.0,0.0,0.0,0.0,0.0,0.0,0.0,0.0,0.0,0.0,0.0,0.0,0.0,0.0,0.0,0.0,0.0,0.0,0.0,0.0,0.0,0.0,0.0,0.0,0.0,0.0,0.0,0.0,0.0,0.0,0.0,0.0,0.0,0.0,0.0,0.0,0.0,0.0,0.0,0.0,0.0,0.0,0.0,0.0,0.0,0.0,0.0,0.0,0.0,0.0,3.4246,3.5017,3.5575,0.0,3.6639,3.7333,3.7333,3.8872,3.9694,3.9475,0.0,0.0,0.0,0.0,0.0,0.0,0.0,0.0,0.0,0.0,0.0,0.0,0.0,0.0,0.0,0.0,0.0,0.0,0.0,0.0,0.0,0.0,0.0,0.0,0.0,0.0,0.0,0.0,0.0,0.0,0.0,0.0,0.0,0.0,0.0,0.0,0.0,0.0,0.0,0.0,0.0,0.0,0.0,0.0,0.0,0.0,0.0,0.0,0.0,0.0,0.0,0.0,0.0,0.0,0.0,0.0,0.0,0.0,0.0,0.0,0.0,0.0,0.0,0.0,0.0,0.0,0.0,0.0,0.0,0.0,0.0,0.0,0.0,0.0,0.0,0.0,0.0,0.0,0.0,0.0,0.0,0.0,0.0,0.0,0.0,0.0,0.0,0.0,0.0,0.0,0.0,0.0,0.0,0.0,0.0,0.0,0.0,0.0,0.0,0.0,0.0,0.0,3.4847,3.6208,3.7208,3.7208,3.8652,3.9611,3.9611,4.0559,4.1121,0.0,0.0,0.0,0.0,0.0,0.0,0.0,0.0,0.0,0.0,0.0,0.0,0.0,0.0,0.0,0.0,0.0,0.0,0.0,0.0,0.0,0.0,0.0,0.0,0.0,0.0,0.0,0.0,0.0,0.0,0.0,0.0,0.0,0.0,0.0,0.0,0.0,0.0,0.0,0.0,0.0,0.0,0.0,0.0,0.0,0.0,0.0,0.0,0.0,0.0,0.0,0.0,0.0,0.0,0.0,0.0,0.0,0.0,0.0,0.0,0.0,0.0,0.0,0.0,0.0,0.0,0.0,0.0,0.0,0.0,0.0,0.0,0.0,0.0,0.0,0.0,0.0,0.0,0.0,0.0,0.0,0.0,0.0,0.0,0.0,0.0,0.0,0.0,0.0,0.0,0.0,0.0,0.0,0.0,0.0,0.0,0.0,0.0,0.0,0.0,0.0,0.0,0.0,3.6404,3.7241,3.803,3.8801,3.9959,4.0652,4.0652,4.1718,4.2485,4.2772,0.0,0.0,0.0,0.0,0.0,0.0,0.0,0.0,0.0,0.0,0.0,0.0,0.0,0.0,0.0,0.0,0.0,0.0,0.0,0.0,0.0,0.0,0.0,0.0,0.0,0.0,0.0,0.0,0.0,0.0,0.0,0.0,0.0,0.0,0.0,0.0,0.0,0.0,0.0,0.0,0.0,0.0,0.0,0.0,0.0,0.0,0.0,0.0,0.0,0.0,0.0,0.0,0.0,0.0,0.0,0.0,0.0,0.0,0.0,0.0,0.0,0.0,0.0,0.0,0.0,0.0,0.0,0.0,0.0,0.0,0.0,0.0,0.0,0.0,0.0,0.0,0.0,0.0,0.0,0.0,0.0,0.0,0.0,0.0,0.0,0.0,0.0,0.0,0.0,0.0,0.0,0.0,0.0,0.0,0.0,0.0,0.0,0.0,0.0,0.0,0.0,0.0,3.7438,3.8721,3.9856,4.0645,4.1828,4.2625,4.269,4.3358,4.3896,4.4134,0.0,0.0,0.0,0.0,0.0,0.0,0.0,0.0,0.0,0.0,0.0,0.0,0.0,0.0,0.0,0.0,0.0,0.0,0.0,0.0,0.0,0.0,0.0,0.0,0.0,0.0,0.0,0.0,0.0,0.0,0.0,0.0,0.0,0.0,0.0,0.0,0.0,0.0,0.0,0.0,0.0,0.0,0.0,0.0,0.0,0.0,0.0,0.0,0.0,0.0,0.0,0.0,0.0,0.0,0.0,0.0,0.0,0.0,0.0,0.0,0.0,0.0,0.0,0.0,0.0,0.0,0.0,0.0,0.0,0.0,0.0,0.0,0.0,0.0,0.0,0.0,0.0,0.0,0.0,0.0,0.0,0.0,0.0,0.0,0.0,0.0,0.0,0.0,0.0,0.0,0.0,0.0,0.0,0.0,0.0,0.0,0.0,0.0,0.0,0.0,0.0,0.0,3.836,4.0552,4.2214,4.2567,4.3915,4.4862,4.5064,4.511,4.511,4.5087,0.0,0.0,0.0,0.0,0.0,0.0,0.0,0.0,0.0,0.0,0.0,0.0,0.0,0.0,0.0,0.0,0.0,0.0,0.0,0.0,0.0,0.0,0.0,0.0,0.0,0.0,0.0,0.0,0.0,0.0,0.0,0.0,0.0,0.0,0.0,0.0,0.0,0.0,0.0,0.0,0.0,0.0,0.0,0.0,0.0,0.0,0.0,0.0,0.0,0.0,0.0,0.0,0.0,0.0,0.0,0.0,0.0,0.0,0.0,0.0,3.6965,0.0,0.0,0.0,0.0,0.0,0.0,0.0,0.0,0.0,0.0,0.0,0.0,0.0,0.0,0.0,0.0,0.0,0.0,0.0,0.0,0.0,0.0,0.0,0.0,0.0,0.0,0.0,0.0,0.0,0.0,0.0,0.0,0.0,0.0,0.0,0.0,0.0,0.0,0.0,0.0,0.0,4.1042,4.2007,4.306,4.4177,4.462,4.4862,4.5064,4.5299,4.5321,4.5087,4.5299,0.0,0.0,0.0,0.0,0.0,0.0,0.0,0.0,0.0,0.0,0.0,0.0,0.0,0.0,0.0,0.0,0.0,0.0,0.0,0.0,0.0,0.0,0.0,0.0,0.0,0.0,0.0,0.0,0.0,0.0,0.0,0.0,0.0,0.0,0.0,0.0,0.0,0.0,0.0,0.0,0.0,0.0,0.0,0.0,0.0,0.0,0.0,0.0,0.0,0.0,0.0,0.0,0.0,0.0,0.0,0.0,0.0,0.0,0.0,0.0,3.7854,0.0,0.0,0.0,0.0,0.0,0.0,0.0,0.0,0.0,0.0,0.0,0.0,0.0,0.0,0.0,0.0,0.0,0.0,0.0,0.0,0.0,0.0,0.0,0.0,0.0,0.0,0.0,0.0,0.0,0.0,0.0,0.0,0.0,0.0,0.0,0.0,0.0,0.0,0.0,0.0,4.2307,4.3203,4.4175,4.5288,4.5554,4.5831,4.6345,4.6541,4.6564,4.6397,4.6541,0.0,0.0,0.0,0.0,0.0,0.0,0.0,0.0,0.0,0.0,0.0,0.0,0.0,0.0,0.0,0.0,0.0,0.0,0.0,0.0,0.0,0.0,0.0,0.0,0.0,0.0,0.0,0.0,0.0,0.0,0.0,0.0,0.0,0.0,0.0,0.0,0.0,0.0,0.0,0.0,0.0,0.0,0.0,0.0,0.0,0.0,0.0,0.0,0.0,0.0,0.0,0.0,0.0,3.9102,3.9625,4.0089,4.0089,4.0147,4.0234,3.9741,3.9741,4.0089,0.0,0.0,0.0,0.0,0.0,0.0,0.0,0.0,0.0,0.0,0.0,0.0,0.0,0.0,0.0,0.0,0.0,0.0,0.0,0.0,0.0,0.0,0.0,0.0,0.0,4.2064,4.2206,0.0,0.0,0.0,0.0,0.0,0.0,0.0,0.0,0.0,0.0,0.0,0.0,4.3245,4.4386,4.5471,4.6172,4.6516,4.6974,4.7724,4.7805,4.7805,4.7805,4.7805,4.7711,0.0,0.0,0.0,0.0,0.0,0.0,0.0,0.0,0.0,0.0,0.0,0.0,0.0,0.0,0.0,0.0,0.0,0.0,0.0,0.0,0.0,0.0,0.0,0.0,0.0,0.0,0.0,0.0,0.0,0.0,0.0,0.0,3.5276,3.5276,0.0,0.0,0.0,0.0,0.0,0.0,0.0,0.0,0.0,0.0,0.0,0.0,0.0,3.9073,3.9596,3.9683,3.977,3.9857,3.9944,4.0031,4.0089,4.0089,4.0408,4.096,4.0873,0.0,4.0089,4.0089,0.0,0.0,0.0,0.0,0.0,0.0,0.0,0.0,0.0,0.0,0.0,0.0,0.0,0.0,0.0,0.0,0.0,0.0,0.0,0.0,0.0,0.0,4.3046,4.3019,4.2943,4.2879,0.0,4.2435,4.2077,4.252,4.2159,0.0,0.0,0.0,0.0,0.0,0.0,0.0,4.4993,4.6049,4.6824,4.6905,4.7119,4.7407,4.7782,4.7805,4.7805,4.7805,4.7805,4.7782,4.7758,4.757,0.0,0.0,0.0,0.0,0.0,0.0,0.0,0.0,0.0,0.0,0.0,0.0,0.0,0.0,0.0,0.0,0.0,0.0,0.0,0.0,0.0,0.0,0.0,0.0,0.0,0.0,0.0,0.0,0.0,3.552,3.5927,3.5927,3.6141,3.6315,0.0,0.0,0.0,0.0,0.0,0.0,0.0,0.0,0.0,3.9247,3.9538,3.9828,4.0089,4.0466,4.067,4.067,4.1047,4.1395,4.1715,4.1715,4.2092,4.2731,4.2731,4.2557,4.2237,4.1512,4.1424,4.1715,0.0,0.0,0.0,0.0,4.2295,4.2295,4.2295,4.2469,0.0,4.2731,0.0,0.0,0.0,0.0,0.0,0.0,0.0,0.0,0.0,0.0,0.0,4.4089,4.4067,4.3964,4.3993,4.4059,4.4031,0.0,4.3459,4.3574,4.4359,0.0,0.0,0.0,0.0,4.6386,4.6123,4.6781,4.7406,4.775,4.7995,4.833,4.8851,4.888,4.888,4.888,4.888,4.888,4.888,4.8784,4.8683,0.0,0.0,0.0,0.0,0.0,0.0,0.0,0.0,0.0,0.0,0.0,0.0,0.0,0.0,0.0,0.0,0.0,0.0,0.0,0.0,0.0,0.0,0.0,0.0,0.0,0.0,0.0,0.0,3.6141,3.6606,3.678,3.6954,3.7099,0.0,0.0,0.0,0.0,0.0,0.0,4.0089,4.0263,4.035,4.035,4.067,4.0844,4.0844,4.1512,4.1831,4.1831,4.2353,4.2818,4.3274,4.3274,4.3515,4.3979,4.3979,4.3979,4.3942,4.2963,4.2847,4.3274,4.3274,4.3565,4.3979,4.3979,4.3979,4.3979,4.3979,4.3979,4.3979,4.3979,0.0,4.4081,4.3342,0.0,0.0,0.0,0.0,4.4135,4.3868,4.4328,4.4909,4.5073,4.5254,4.5274,4.4973,4.524,4.5356,0.0,4.479,4.5043,4.5469,0.0,0.0,0.0,0.0,4.7353,4.7088,4.7587,4.8163,4.8581,4.9001,4.9407,4.9925,5.01,5.0187,5.0187,5.0187,5.0187,5.0187,5.0187,5.0187,5.0187,0.0,0.0,0.0,0.0,0.0,0.0,0.0,0.0,0.0,0.0,0.0,0.0,0.0,0.0,0.0,0.0,0.0,0.0,0.0,0.0,0.0,0.0,0.0,0.0,0.0,0.0,0.0,0.0,0.0,3.8028,3.8667,0.0,0.0,0.0,0.0,4.0002,4.0031,4.006,4.0089,4.0699,4.1047,4.1047,4.2208,4.2847,4.2847,4.3515,4.3834,4.3834,4.3892,4.3921,4.3972,4.3972,4.395,4.3979,4.3979,4.3979,4.3979,4.3921,4.3921,4.3972,4.3972,4.395,4.3979,4.3979,4.3979,4.3979,4.3979,4.3979,4.3979,4.3979,4.4407,4.485,4.4777,4.5219,0.0,0.0,4.5711,4.5785,4.5769,4.6204,4.6553,4.6146,4.6457,4.6766,4.6316,4.6223,4.6055,0.0,4.5774,4.6195,4.6251,0.0,4.6659,4.6687,4.761,4.8254,4.7987,4.8889,4.9513,4.9272,5.0072,5.0622,5.0651,5.1178,5.1501,5.1501,5.1501,5.1501,5.1501,5.1501,5.1501,5.1501,5.0888,0.0,0.0,0.0,0.0,0.0,0.0,0.0,0.0,0.0,0.0,0.0,0.0,0.0,0.0,0.0,0.0,0.0,0.0,0.0,0.0,0.0,0.0,0.0,0.0,0.0,0.0,0.0,0.0,3.9363,3.9625,0.0,4.0089,4.0495,4.0728,4.0728,4.1482,4.1947,4.1947,4.2586,4.2963,4.2963,4.3398,4.3631,4.3631,4.3863,4.3979,4.3979,4.3979,4.4182,4.4581,4.4581,4.4792,4.522,4.522,4.522,4.522,4.522,4.4966,4.4581,4.4581,4.4843,4.522,4.522,4.522,4.522,4.522,4.522,4.522,4.522,4.5366,4.554,4.554,4.5714,4.5982,4.6388,4.6482,4.6592,4.7021,4.7259,4.734,4.7012,4.6971,4.6971,4.6832,4.6833,4.6862,4.678,4.6514,4.642,4.6813,4.7238,4.762,4.7822,4.9014,4.9791,4.949,5.034,5.0747,5.0242,5.0515,5.0535,5.01,5.0274,5.054,5.0975,5.1004,5.1178,5.1559,5.1588,5.1588,5.1588,5.141,5.1294,0.0,0.0,0.0,0.0,0.0,0.0,0.0,0.0,0.0,0.0,0.0,0.0,0.0,0.0,0.0,0.0,0.0,0.0,0.0,0.0,0.0,0.0,0.0,0.0,0.0,0.0,3.9741,4.035,4.0437,4.0525,4.0757,4.1366,4.1744,4.1744,4.2731,4.3362,4.3362,4.3768,4.3979,4.3979,4.4182,4.4298,4.4298,4.4552,4.464,4.464,4.464,4.4872,4.5249,4.5249,4.5482,4.5917,4.5917,4.5917,4.5917,4.5917,4.5656,4.5249,4.5249,4.5511,4.5917,4.5917,4.5917,4.5917,4.5917,4.5917,4.5946,4.6127,4.6214,4.6243,4.6446,4.6556,4.6621,4.7027,4.712,4.7259,4.7666,4.795,4.8054,4.7764,4.7746,4.7773,4.7701,4.7726,4.784,4.801,4.7695,4.7496,4.7919,4.8425,4.8837,4.9063,4.982,5.0312,5.0138,5.0614,5.0801,5.0419,5.0564,5.0506,5.0071,5.0419,5.0768,5.0975,5.1232,5.1436,5.1588,5.1817,5.1933,5.1933,5.1933,5.173,5.1294,0.0,0.0,0.0,0.0,0.0,0.0,0.0,0.0,0.0,0.0,0.0,0.0,0.0,0.0,0.0,0.0,0.0,0.0,0.0,0.0,0.0,0.0,0.0,3.9334,3.977,4.0379,4.1047,4.1134,4.1395,4.2063,4.2673,4.3021,4.3021,4.3631,4.403,4.403,4.4059,4.4059,4.4059,4.464,4.493,4.493,4.5598,4.5917,4.5946,4.5946,4.5946,4.5976,4.5976,4.5976,4.5976,4.5976,4.5976,4.5976,4.5976,4.5976,4.5976,4.5917,4.5917,4.5946,4.5946,4.5946,4.5976,4.5976,4.5976,4.604,4.6627,4.683,4.6946,4.7579,4.7805,4.7805,4.7834,4.7834,4.7834,4.7863,4.8304,4.8668,4.8403,4.882,4.9231,4.8984,4.8909,4.8909,4.8909,4.9247,4.9524,4.9496,4.9925,5.0277,5.0277,4.9956,0.0,4.9722,4.9751,4.9751,4.9751,5.0332,5.0739,5.0739,5.1871,5.2307,5.1675,5.2249,5.2336,5.1675,5.2281,5.2626,5.2626,5.2626,5.2017,5.0797,0.0,0.0,0.0,0.0,0.0,0.0,0.0,0.0,0.0,0.0,0.0,0.0,0.0,0.0,0.0,0.0,0.0,0.0,0.0,0.0,0.0,0.0,4.0757,4.0583,4.0728,4.1076,4.1744,4.2208,4.2557,4.2731,4.334,4.3739,4.3739,4.4298,4.4669,4.4669,4.5104,4.5395,4.5395,4.554,4.5627,4.5627,4.583,4.6127,4.654,4.654,4.6824,4.7282,4.7282,4.7282,4.7282,4.7282,4.7282,4.7282,4.7282,4.7282,4.7195,4.6266,4.6156,4.654,4.654,4.6853,4.7282,4.7282,4.7282,4.7312,4.7462,4.7521,4.755,4.7747,4.7805,4.7892,4.8333,4.8426,4.8566,4.9054,4.9315,4.9407,4.9335,4.9308,4.933,4.9449,4.9153,4.8959,4.9157,4.9674,4.9861,4.9177,4.9341,4.9565,4.9565,5.0072,0.0,5.0419,5.0801,5.1091,5.1091,5.1236,5.1352,5.1352,5.1672,5.1991,5.2307,5.251,5.2714,5.2978,5.3152,5.3239,5.3239,5.3239,5.3094,0.0,0.0,0.0,0.0,0.0,0.0,0.0,0.0,0.0,0.0,0.0,0.0,0.0,0.0,0.0,0.0,0.0,0.0,0.0,0.0,0.0,0.0,4.1076,4.1599,4.186,4.1686,4.1744,4.2382,4.2789,4.3108,4.3369,4.3979,4.4356,4.4356,4.4937,4.5337,4.5337,4.5685,4.5917,4.5917,4.6156,4.6272,4.6272,4.6563,4.6853,4.723,4.723,4.7433,4.7805,4.7805,4.7805,0.0,4.7805,4.7805,4.7805,4.7805,4.7805,0.0,0.0,0.0,0.0,0.0,4.7462,4.7805,4.7805,4.7805,4.7834,4.8072,4.8188,4.8217,4.8502,4.8589,4.8677,4.903,4.9117,4.9204,4.9606,4.9693,4.9693,4.9693,4.96,4.9584,5.0017,4.9882,4.9795,5.0179,5.0576,0.0,5.0144,5.0162,5.0348,5.0633,5.0904,5.1062,5.1062,5.1381,5.1588,5.1588,5.1588,5.1588,5.1588,5.1875,0.0,0.0,0.0,5.2772,5.3094,5.3123,0.0,0.0,0.0,5.3384,5.3123,0.0,0.0,0.0,5.2052,5.202,0.0,0.0,0.0,0.0,0.0,0.0,0.0,0.0,0.0,0.0,0.0,0.0,0.0,0.0,0.0,0.0,4.1802,4.2411,4.3042,4.2644,4.2498,4.3071,4.3166,4.3449,4.4037,4.4669,4.5017,4.5017,4.5547,4.5917,4.5917,0.0,0.0,0.0,0.0,4.6917,4.6917,4.7491,4.7834,4.7921,4.7921,4.795,4.8009,4.8009,4.8009,4.8009,4.8009,4.8009,4.8009,4.8009,4.8009,4.8009,4.795,4.7921,4.7921,4.7979,4.8009,4.8009,4.8009,0.0,0.0,4.8629,4.8803,4.8919,4.9519,4.9693,4.9693,4.9693,4.9693,4.9722,4.978,4.9809,4.9838,4.9896,4.9925,5.0071,5.0681,5.0797,5.0946,5.1501,5.1588,5.1617,5.1675,5.1646,5.1817,5.2394,5.1991,5.1588,5.1588,5.1588,5.1617,5.1675,0.0,0.0,5.1791,5.2339,5.2452,5.1849,5.2368,5.2714,5.2714,5.2714,5.2714,5.2714,5.3239,5.3239,5.2714,5.3239,5.3474,5.3474,5.3474,5.3474,0.0,0.0,0.0,0.0,0.0,0.0,0.0,0.0,0.0,0.0,0.0,0.0,0.0,0.0,0.0,4.2557,4.2731,4.3071,4.3689,4.3689,4.366,4.3776,4.4262,4.456,4.4727,4.5337,4.5714,4.5714,4.583,4.5917,4.5917,4.6359,4.6627,4.6627,4.7259,4.7608,4.7608,4.7747,4.8043,4.8513,0.0,0.0,4.9345,4.9345,4.9345,4.9345,4.9345,4.9345,4.9345,4.9345,4.9345,4.9286,4.874,4.8513,4.8571,4.9141,4.9345,4.9345,4.9345,4.9345,4.9345,4.949,4.9519,4.9548,4.9664,4.9693,0.0,4.9693,4.9693,4.9809,5.0361,5.0506,5.0622,5.112,5.1236,5.1265,5.141,5.1439,5.1468,5.1559,5.1588,5.1762,5.2307,5.1962,5.1646,5.1762,5.1675,5.1588,5.1588,5.1588,5.1817,5.2365,5.2423,5.2601,5.3068,5.3268,5.3268,5.3126,5.3268,5.3326,5.3326,5.3326,5.3326,5.3326,5.3442,5.3442,5.3326,5.3442,5.3474,5.3474,5.3474,5.3474,0.0,0.0,0.0,0.0,0.0,0.0,0.0,0.0,0.0,0.0,0.0,4.1599,0.0,0.0,4.2644,4.2934,4.3282,4.3718,4.4378,4.4465,4.4465,4.4465,4.4727,4.5046,4.5366,4.5714,4.5917,4.5917,4.6185,4.6359,4.6359,4.6969,4.7317,4.7317,4.7927,4.8246,4.8246,4.8566,4.8909,4.9204,4.9204,4.9378,4.9693,4.9693,4.9693,4.9693,4.9693,4.9693,4.9693,4.9693,4.9693,4.9693,4.9698,4.9494,4.9233,4.9577,4.9693,4.9693,4.9693,4.9925,5.0187,5.0187,5.0419,5.0656,5.0656,5.0656,5.0656,5.0656,5.0656,5.0714,5.1062,5.1149,5.1236,5.153,5.1588,5.1675,5.202,5.2107,5.2194,5.2488,5.2546,5.2659,5.2978,5.2775,5.2546,5.2546,5.2546,5.2546,5.2546,5.2546,5.2688,5.3007,5.3036,5.3181,5.3471,5.3474,5.3474,5.3474,5.3474,5.3474,5.3474,5.3474,5.3474,5.3474,5.3474,5.3474,5.3474,5.3474,5.3474,5.3474,5.3474,5.3474,0.0,0.0,0.0,0.0,0.0,0.0,0.0,0.0,4.1627,4.2832,4.2643,4.2266,4.2266,4.276,4.3224,4.3362,4.3805,4.4385,4.5017,4.5104,4.5104,4.5104,4.5104,4.5308,4.5859,4.6011,4.6069,4.6069,4.665,4.7004,4.7004,4.7608,4.7956,4.7956,4.8566,4.889,4.889,4.9432,4.9693,4.9693,4.9693,4.9693,4.9693,4.9693,4.978,4.9896,5.0013,5.0071,5.0071,5.0071,5.0071,5.0129,5.0681,5.0564,5.0071,5.0071,5.0071,5.0071,5.0071,5.0419,5.0884,5.0884,5.1207,5.1588,5.1588,5.1588,5.1588,5.1588,5.1588,5.1617,5.1759,5.1791,5.1817,5.1936,5.1965,5.2136,5.2655,5.2772,5.2917,5.3413,5.3474,5.3474,5.3474,5.3474,5.3474,5.3474,5.3474,5.3474,5.3474,5.3474,5.3474,5.3474,5.3474,5.3474,5.3474,5.3474,5.3474,5.3474,5.3474,5.3474,5.3474,5.3474,5.3474,5.3474,5.3474,5.3474,5.3474,5.3474,5.3474,5.3474,5.3474,5.3474,4.4854,4.4161,4.3598,4.4226,4.319,4.2248,0.0,0.0,4.2046,4.2187,4.2611,4.2905,4.2905,4.3427,4.4066,4.461,4.4756,4.5046,4.5692,4.5801,4.5801,4.5801,4.5801,4.583,4.5888,4.6388,4.6714,4.6714,4.7317,4.7689,4.7689,4.8275,4.86,4.86,4.9233,4.9606,4.9606,4.9664,4.9693,4.9693,4.9693,4.9693,4.9693,4.9693,5.0013,5.0622,5.1149,5.1385,5.1385,5.1385,5.1385,5.1385,5.1443,5.1443,5.1385,5.1385,5.1385,5.1385,5.1385,5.1439,5.1501,5.1501,5.153,5.1588,5.1588,5.1588,5.1588,5.1588,5.1588,5.1759,5.2336,5.2481,5.2626,5.3181,5.3271,5.33,5.3358,5.3413,5.3442,5.3474,5.3474,5.3474,5.3474,5.3474,5.3474,5.3474,5.3474,5.3474,5.3474,5.3474,5.3474,5.3474,5.3474,5.3474,5.3474,5.3474,5.3474,5.3474,5.3474,5.3474,5.3474,5.3474,5.3474,5.3474,5.3474,5.3474,5.3474,5.3474,5.3474,5.3474,5.3474,5.3474,4.6239,4.5889,4.5522,0.0,4.4725,4.3732,4.4498,4.3628,4.2761,4.3228,4.3466,4.3573,4.3573,4.4095,4.461,0.0,4.522,4.5598,4.5859,4.5917,4.5917,4.5917,4.6214,4.6395,4.6395,4.6656,4.6946,4.7346,4.7985,4.8333,4.8333,4.8943,4.9291,4.9291,4.9548,4.9693,4.9693,4.9693,4.9896,5.0274,5.0274,5.0477,5.0801,5.0801,5.0975,5.1236,5.1472,5.1588,5.1588,5.1588,5.1588,5.1617,5.202,5.2165,5.2136,5.1733,5.1588,5.1588,5.1588,5.1875,5.2165,5.2165,5.2426,5.2691,5.2691,5.2691,5.2691,5.2691,5.2691,5.2775,5.3065,5.3123,5.3181,5.3442,5.3474,5.3474,5.3474,5.3474,5.3474,5.3474,5.3474,5.3474,5.3474,5.3474,5.3474,5.3474,5.3474,5.3474,5.3474,5.3474,5.3474,5.3474,5.3474,5.3474,5.3474,5.3474,5.3474,5.3474,5.3474,5.3474,5.3474,5.3474,5.3474,5.3474,5.3474,5.3474,5.3474,5.3474,5.3474,5.3474,5.3474,5.3474,4.7104,0.0,0.0,4.6825,4.5697,4.4704,4.544,4.4405,4.3483,4.4033,4.4195,4.4262,4.4262,4.4756,4.5191,4.5191,4.5598,4.5917,4.5917,4.604,4.6156,4.6156,4.6708,4.7149,4.7323,4.7323,4.7526,4.8014,4.8624,4.9001,4.9001,4.9461,4.9693,4.9693,4.9867,4.9983,4.9983,5.0158,5.0452,5.0971,5.0971,5.1178,5.1617,5.1788,5.1875,5.1904,5.2052,5.2111,5.2111,5.2111,5.2111,5.2169,5.2659,5.2859,5.2801,5.231,5.2111,5.2111,5.2111,5.2455,5.2859,5.2859,5.3123,5.3474,5.3474,5.3474,5.3474,5.3474,5.3474,5.3474,5.3474,5.3474,5.3474,5.3474,5.3474,5.3474,5.3474,5.3474,5.3474,5.3474,5.3474,5.3474,5.3474,5.3474,5.3474,5.3474,5.3474,5.3474,5.3474,5.3474,5.3474,5.3474,5.3474,5.3474,5.3474,5.3474,5.3474,5.3474,5.3474,5.3474,5.3474,5.3474,5.3474,5.3474,5.3474,5.3474,5.3474,5.3474,5.3474,5.3474,5.3474,5.3474,0.0,0.0,4.5913,4.6687,4.5697,4.4645,4.526,4.4758,4.4139,4.4019,4.4465,4.485,4.485,4.5424,4.5888,4.5888,4.5888,4.5917,4.5917,4.6417,4.6772,4.6772,4.7375,4.7985,0.0,4.8629,4.8658,4.8658,4.9291,4.9664,4.9664,4.9693,4.9693,4.9693,5.0332,5.0681,5.0681,5.1265,5.153,5.1559,5.1559,5.1559,5.1617,5.2252,5.2568,5.2597,5.3181,5.3416,5.3416,5.3416,5.3416,5.3416,5.3445,5.3471,5.3471,5.3471,5.3416,5.3416,5.3416,5.3471,5.3471,5.3471,5.3474,5.3474,5.3474,5.3474,5.3474,5.3474,5.3474,5.3474,5.3474,5.3474,5.3474,5.3474,5.3474,5.3474,5.3474,5.3474,5.3474,5.3474,5.3474,5.3474,5.3474,5.3474,5.3474,5.3474,5.3474,5.3474,5.3474,5.3474,5.3474,5.3474,5.3474,5.3474,5.3474,5.3474,5.3474,5.3474,5.3474,5.3474,5.3474,5.3474,5.3474,5.3474,5.3474,5.3474,5.3474,5.3474,5.3474,5.3474,5.3474,5.3474,0.0,0.0,4.6676,4.7455,4.6825,4.6028,4.6105,4.6292,4.611,4.4857,4.5558,4.624,4.5681,4.6226,4.6572,4.5978,4.6872,4.7598,4.751,4.8189,4.8591,4.8423,4.8985,0.0,0.0,0.0,0.0,4.932,4.9577,4.9896,5.0332,5.0361,5.0564,5.0946,5.1178,5.1294,5.1294,5.1501,5.1817,5.2252,5.2688,5.2865,5.2891,5.3094,5.321,5.321,5.3413,5.3474,5.3474,5.3474,5.3474,5.3474,5.3474,5.3474,5.3474,5.3474,5.3474,5.3474,5.3474,5.3474,5.3474,5.3474,5.3474,5.3474,5.3474,5.3474,5.3474,5.3474,5.3474,5.3474,5.3474,5.3474,5.3474,5.3474,5.3474,5.3474,5.3474,5.3474,5.3474,5.3474,5.3474,5.3474,5.3474,5.3474,5.3474,5.3474,5.3474,5.3474,5.3474,5.3474,5.3474,5.3474,5.3474,5.3474,5.3474,5.3474,5.3474,5.3474,5.3474,5.3474,5.3474,5.3474,5.3474,5.3474,5.3474,5.3474,5.3474,5.3474,5.3474,5.3474,5.3474,5.3474,0.0,4.7242,4.741,4.7896,4.7798,4.7551,4.7376,4.7698,4.7669,4.6437,4.704,4.7512,4.666,4.7219,4.7473,4.6524,4.7787,4.8854,4.8667,4.929,4.9755,4.9577,5.0145,5.0256,0.0,0.0,0.0,4.9717,5.0238,5.0608,5.0705,5.0913,5.1207,5.1588,5.1846,5.1962,5.1962,5.2169,5.2514,5.2946,5.3326,5.3474,5.3474,5.3474,5.3474,5.3474,5.3474,5.3474,5.3474,5.3474,5.3474,5.3474,5.3474,5.3474,5.3474,5.3474,5.3474,5.3474,5.3474,5.3474,5.3474,5.3474,5.3474,5.3474,5.3474,5.3474,5.3474,5.3474,5.3474,5.3474,5.3474,5.3474,5.3474,5.3474,5.3474,5.3474,5.3474,5.3474,5.3474,5.3474,5.3474,5.3474,5.3474,5.3474,5.3474,5.3474,5.3474,5.3474,5.3474,5.3474,5.3474,5.3474,5.3474,5.3474,5.3474,5.3474,5.3474,5.3474,5.3474,5.3474,5.3474,5.3474,5.3474,5.3474,5.3474,5.3474,5.3474,5.3474,5.3474,5.3474,5.3474,5.3474,4.7283,4.7615,4.8008,4.8073,4.8591,4.902,4.8904,4.8908,4.8851,4.8563,4.8718,4.8615,0.0,0.0,4.8519,4.7428,4.8628,4.9668,4.938,4.996,5.0388,0.0,0.0,0.0,0.0,0.0,0.0,4.9912,0.0,5.1687,5.0847,5.1352,5.1675,5.1704,5.231,5.2655,5.2655,5.321,5.3474,5.3474,5.3474,5.3474,5.3474,5.3474,5.3474,5.3474,5.3474,5.3474,5.3474,5.3474,5.3474,5.3474,5.3474,5.3474,5.3474,5.3474,5.3474,5.3474,5.3474,5.3474,5.3474,5.3474,5.3474,5.3474,5.3474,5.3474,5.3474,5.3474,5.3474,5.3474,5.3474,5.3474,5.3474,5.3474,5.3474,5.3474,5.3474,5.3474,5.3474,5.3474,5.3474,5.3474,5.3474,5.3532,5.3532,5.3532,5.3588,5.3561,5.3503,5.3474,5.3474,5.3474,5.3474,5.3474,5.3474,5.3474,5.3474,5.3474,5.3474,5.3474,5.3474,5.3474,5.3474,5.3474,5.3474,5.3474,5.3474,5.3474,5.3474,5.3474,5.3474,5.3474,4.7695,4.7899,4.8235,4.9321,4.971,4.9779,4.9653,5.0102,5.0243,4.8993,4.9287,4.9367,0.0,0.0,0.0,4.7873,4.9832,0.0,5.1507,5.2544,0.0,5.3059,0.0,5.2894,5.1946,5.2614,0.0,0.0,5.1491,5.1833,5.21,5.2249,5.2543,5.2981,5.3181,5.3268,5.3268,5.3442,5.3474,5.3474,5.3474,5.3474,5.3474,5.3474,5.3474,5.3474,5.3474,5.3474,5.3474,5.3474,5.3474,5.3474,5.3474,5.3474,5.3474,5.3474,5.3474,5.3474,5.3474,5.3474,5.3474,5.3474,5.3474,5.3474,5.3474,5.3474,5.3474,5.3474,5.3474,5.3474,5.3474,5.3474,5.3474,5.3474,5.3474,5.3474,5.3474,5.3474,5.3474,5.3474,5.3474,5.3474,5.3474,5.3909,5.4255,5.4255,5.4633,5.4575,5.3619,5.3474,5.3474,5.3474,5.3474,5.3474,5.3474,5.3474,5.3474,5.3474,5.3474,5.3474,5.3474,5.3474,5.3474,5.3474,5.3474,5.3474,5.3474,5.3474,5.3474,5.3474,5.3474,5.3474,4.7931,4.8429,4.9127,4.9904,5.0325,5.0588,5.0615,5.0978,5.1111,5.0287,5.0576,0.0,4.9347,5.0151,0.0,0.0,0.0,0.0,5.2722,5.364,5.4269,0.0,5.3862,0.0,5.2798,5.3321,5.3429,0.0,5.265,5.2649,5.2594,5.2859,5.3152,5.3474,5.3474,5.3474,5.3474,5.3474,5.3474,5.3474,5.3474,5.3474,5.3474,5.3474,5.3553,5.3658,0.0,5.3632,5.3841,5.3736,5.3684,5.3684,5.3684,5.3605,5.3474,5.3474,5.3474,5.3474,5.3474,5.3474,5.3474,5.3474,5.3474,5.3474,5.3474,5.3474,5.3474,5.3474,5.3474,5.3474,5.3474,5.3474,5.3474,5.3474,5.3474,5.3474,5.3474,5.3474,5.359,5.3907,5.4142,5.4316,5.4316,5.4662,5.4894,5.4894,5.5184,5.5155,5.4429,5.4316,5.4316,5.4316,5.4084,5.3965,5.3965,5.3675,5.3474,5.3474,5.3474,5.3474,5.3474,5.3474,5.3474,5.3474,5.3474,5.3474,5.3474,5.3474,5.3474,5.3474,5.3474,5.3474,4.8291,4.921,5.0131,5.0265,5.0751,5.1293,5.1462,5.1517,5.1592,5.1813,0.0,5.1849,5.0989,5.154,5.1787,5.0802,0.0,5.3792,5.346,5.4059,5.438,5.4041,5.3832,5.3682,5.366,5.3863,5.4032,5.4147,5.3997,5.3575,5.2765,5.321,5.3474,5.3474,5.3474,5.3474,5.3474,5.3474,5.3474,5.3474,5.3474,5.3474,5.3474,5.3474,5.3632,5.3841,5.3605,0.0,5.4226,5.3993,5.3919,5.3919,5.3919,5.3736,5.3474,5.3474,5.3474,5.3474,5.3474,5.3474,5.3474,5.3474,5.3474,5.3474,5.3474,5.3474,5.3474,5.3474,5.3474,5.3474,5.3474,5.3474,5.3474,5.3474,5.3474,5.3503,5.359,5.3677,5.3909,5.4517,5.5039,5.5416,5.5416,5.5474,5.5533,5.5533,5.562,5.5649,5.5649,5.5503,5.5416,5.5416,5.4952,5.4606,5.4606,5.4084,5.3706,5.3646,5.3619,5.359,5.3474,5.3474,5.3474,5.3474,5.3474,5.3474,5.3474,5.3474,5.3474,5.3474,5.3474,5.3474,4.9635,5.0032,5.0297,5.1081,5.1345,5.1462,5.148,5.1629,0.0,0.0,5.2101,5.1886,5.1191,5.1633,5.206,5.1894,5.3037,5.4095,5.462,5.5177,5.5184,0.0,0.0,0.0,0.0,0.0,0.0,0.0,0.0,5.3509,5.3355,5.3442,5.3474,5.3474,5.3474,5.3474,5.3474,5.3474,5.3474,5.3474,5.3474,5.3474,5.3474,5.3474,5.3556,5.3553,5.35,0.0,5.3971,5.3919,5.3919,5.3919,5.3919,5.3736,5.3474,5.3474,5.3474,5.3474,5.3474,5.3474,5.3474,5.3474,5.3474,5.3474,5.3474,5.3474,5.3474,5.3474,5.3474,5.3474,5.3474,5.3474,5.3474,5.3474,5.3474,5.3648,5.42,5.472,5.5099,5.5242,5.5329,5.5416,5.5416,5.5881,5.6229,5.6229,5.6665,5.6984,5.6984,5.6055,5.5416,5.5416,5.5329,5.5242,5.5242,5.5155,5.4865,5.4371,5.4342,5.4081,5.3503,5.3474,5.3474,5.3474,5.3474,5.3474,5.3474,5.3474,5.3474,5.3474,5.3474,5.3474,4.9989,5.063,5.1061,5.1401,5.1573,5.1684,5.1776,0.0,0.0,0.0,5.2248,5.2158,5.1835,5.205,0.0,5.2753,5.3621,5.442,5.5067,5.5726,0.0,5.4496,0.0,0.0,0.0,0.0,0.0,0.0,0.0,5.3474,5.3474,5.3474,5.3474,5.3474,5.3474,5.3474,5.3474,5.3474,5.3474,5.3474,5.3474,5.3474,5.35,5.3632,5.371,5.371,5.371,0.0,5.4333,5.4204,5.4097,5.4097,5.4097,5.3867,5.3474,5.3474,5.3474,5.3474,5.3474,5.3474,5.3474,5.3474,5.3474,5.3474,5.3474,5.3474,5.3474,5.3474,5.3474,5.3474,5.3474,5.3474,5.359,5.3965,5.4284,5.4575,5.4923,5.5474,5.5939,5.5939,5.6171,5.6403,5.6403,5.6665,5.6868,5.6868,5.7129,5.7303,5.7303,5.6781,5.6403,5.6403,5.6113,5.5939,5.5939,5.562,5.53,5.501,5.4981,5.4809,5.449,5.4171,5.3996,5.3996,5.3704,5.3474,5.3474,5.3474,5.3474,5.3474,5.3474,5.3474,5.0333,5.1116,5.1776,5.161,5.1721,5.1904,5.205,5.2122,0.0,0.0,5.2391,5.2391,5.2391,5.2391,5.269,0.0,5.4111,5.475,5.5452,5.6026,5.5947,0.0,5.5599,0.0,0.0,0.0,0.0,0.0,0.0,0.0,5.3474,5.3474,5.3474,5.3474,5.3474,5.3474,5.3474,5.3474,5.3474,5.3474,5.3474,5.3474,5.35,5.371,5.3815,5.3815,5.3893,0.0,0.0,5.4487,5.4355,5.4304,5.4304,5.3968,5.3474,5.3474,5.3474,5.3474,5.3474,5.3474,5.3474,5.3474,5.3474,5.3474,5.3474,5.3474,5.3474,5.3474,5.359,5.3706,5.3706,5.3793,5.4052,5.4575,5.5184,5.562,5.562,5.6142,5.6607,5.6607,5.6984,5.7303,5.7303,5.7303,5.7303,5.7303,5.7303,5.7303,5.7303,5.7303,5.7303,5.7303,5.6868,5.6607,5.6607,5.6113,5.5765,5.562,5.562,5.5562,5.5416,5.4925,5.4691,5.4691,5.4197,5.3822,5.3706,5.3706,5.3619,5.3474,5.3474,5.3474,5.1394,5.171,5.1813,5.1794,5.1922,5.2101,5.2119,0.0,5.2373,5.2391,5.2391,5.2391,5.2391,5.2391,0.0,0.0,5.4475,5.4897,5.6144,5.6355,5.5868,5.4489,0.0,0.0,5.451,0.0,0.0,0.0,0.0,0.0,5.3474,5.3474,5.3474,5.3474,5.3474,5.3474,5.3474,5.3474,5.3474,5.3474,5.3474,5.3474,5.3474,5.3556,5.3527,5.3527,5.3789,0.0,0.0,5.4645,5.4564,5.4304,5.4304,5.3968,5.3474,5.3474,5.3474,5.3474,5.3474,5.3474,5.3474,5.3474,5.3474,5.3474,5.3474,5.3474,5.3474,5.3474,5.3965,5.4403,5.4403,5.4809,5.5242,5.53,5.5823,5.6316,5.6316,5.6781,5.7216,5.7216,5.7274,5.7303,5.7303,5.7303,5.7303,5.7303,5.7303,5.7303,5.7303,5.7303,5.7303,5.7303,5.7245,5.7216,5.7216,5.7158,5.6897,5.6345,5.6316,5.6055,5.5445,5.5358,5.5329,5.5329,5.5271,5.4981,5.4403,5.4403,5.4084,5.3474,5.3474,5.3474,5.162,5.1995,5.214,5.2013,5.2122,5.2266,5.2266,0.0,5.2391,5.2391,5.2391,5.2391,5.2391,5.2391,5.2855,5.4276,5.4508,5.4986,5.6385,5.6564,5.6322,5.5634,5.6669,0.0,0.0,0.0,0.0,0.0,0.0,0.0,5.3474,5.3474,5.3474,5.3474,5.3474,5.3474,5.3474,5.3474,5.3474,5.3474,5.3474,5.3474,5.35,5.3841,5.3815,5.3556,5.4182,0.0,0.0,5.4671,5.4619,5.4304,5.4304,5.3968,5.3474,5.3474,5.3474,5.3474,5.3474,5.3474,5.3588,5.3994,5.4084,5.4052,5.3619,5.3791,5.4084,5.4084,5.4575,5.5039,5.5039,5.5533,5.5997,5.5997,5.649,5.6955,5.6955,5.7129,5.7303,5.7303,5.7303,5.7303,5.7303,5.7303,5.7303,5.7303,5.7303,5.7303,5.7303,5.7303,5.7303,5.7303,5.7303,5.7303,5.7303,5.7303,5.7216,5.6955,5.6955,5.6839,5.6549,5.62,5.5997,5.5997,5.562,5.53,5.5039,5.5039,5.4896,5.4662,5.4662,5.4662,5.1827,5.214,5.2338,5.2173,5.223,5.2391,0.0,0.0,5.2391,5.2391,5.2391,5.2391,5.2391,5.2391,5.2855,5.4276,5.4508,5.5024,5.6481,5.6699,5.6599,0.0,0.0,0.0,0.0,0.0,0.0,0.0,0.0,0.0,5.3474,5.3474,5.3474,5.3474,5.3474,5.3474,5.3474,5.3474,5.3474,5.3474,5.3474,5.3527,5.3632,5.3945,5.3916,5.3762,5.4388,0.0,0.0,5.4773,5.4667,5.4304,5.4304,5.3968,5.3474,5.3474,5.3474,5.3532,5.3733,5.3793,5.388,5.4548,5.4778,5.4691,5.4226,5.4374,5.4778,5.4778,5.5242,5.5736,5.5939,5.6316,5.6665,5.6665,5.6984,5.7303,5.7303,5.7303,5.7303,5.7303,5.7303,5.7303,5.7303,5.7303,5.7303,5.7303,5.7303,5.7303,5.7303,5.7303,5.7303,5.7303,5.7303,5.7303,5.7303,5.7303,5.7303,5.7303,5.7303,5.7303,5.7303,5.6897,5.6665,5.6665,5.62,5.5881,5.5707,5.5707,5.5591,5.5416,5.5416,5.5533,5.2119,5.223,5.2338,5.2173,5.223,5.2391,0.0,0.0,5.2391,5.2391,5.2391,5.2391,5.2391,5.2391,5.2855,5.4276,5.4508,5.5024,5.6481,5.6699,5.6505,0.0,0.0,0.0,0.0,0.0,0.0,0.0,0.0,0.0,5.3474,5.3474,5.3474,5.3474,5.3474,5.3474,5.3474,5.3474,5.3474,5.3474,5.3474,5.3632,5.3893,5.3632,5.3789,0.0,0.0,0.0,0.0,5.5078,5.482,5.4304,5.4304,5.3968,5.3474,5.3474,5.3474,5.359,5.4284,5.449,5.4604,5.5213,5.5387,5.5387,5.5387,5.5387,5.5387,5.5387,5.5881,5.6549,5.7129,5.7303,5.7303,5.7303,5.7303,5.7303,5.7303,5.7303,5.7303,5.7303,5.7303,5.7303,5.7303,5.7303,5.7303,5.7303,5.7303,5.7303,5.7303,5.7303,5.7303,5.7303,5.7303,5.7303,5.7303,5.7303,5.7303,5.7303,5.7303,5.7303,5.7303,5.7303,5.7303,5.7303,5.7274,5.6984,5.6403,5.6403,5.6055,5.5416,5.5416,5.5765,5.2302,5.2338,5.2373,5.232,5.2338,5.2391,5.2391,5.2391,5.2391,5.2391,5.2391,5.2391,5.2391,5.2391,5.2855,5.4276,5.4508,5.5024,0.0,0.0,0.0,5.7842,5.841,0.0,0.0,0.0,0.0,0.0,0.0,0.0,5.3474,5.3474,5.3474,5.3474,5.3474,5.3474,5.3474,5.3474,5.3474,5.3474,5.3474,5.3527,5.3632,5.3919,5.4019,0.0,0.0,0.0,0.0,5.5002,5.4747,5.4045,5.4226,5.3968,5.3559,5.3996,5.4171,5.4284,5.4923,5.5126,5.5242,5.5881,5.6084,5.6171,5.6578,5.6432,5.6171,5.6578,5.6868,5.7071,5.7245,5.7303,5.7303,5.7303,5.7303,5.7303,5.7303,5.7303,5.7303,5.7303,5.7303,5.7303,5.7303,5.7303,5.7303,5.7303,5.7303,5.7303,5.7303,5.7303,5.7303,5.7303,5.7303,5.7303,5.7303,5.7303,5.7303,5.7303,5.7303,5.7303,5.7303,5.7303,5.7303,5.7303,5.7303,5.7216,5.7013,5.7013,5.6926,5.6694,5.6694,5.681,0.0,5.2391,5.2391,5.2391,5.2391,0.0,0.0,5.2391,5.2391,5.2391,5.2391,5.2391,5.2391,5.2623,5.3169,5.4309,5.4463,0.0,0.0,0.0,0.0,5.8536,0.0,0.0,0.0,0.0,0.0,0.0,0.0,0.0,5.3474,5.3474,5.3474,5.3474,5.3474,5.3474,5.3474,5.3474,5.3474,5.3474,5.3474,5.3605,5.3815,5.3916,5.4152,0.0,0.0,0.0,0.0,5.4926,5.4641,5.4045,5.4123,5.4039,5.3909,5.4371,5.4635,5.4952,5.5562,5.5794,5.5881,5.6549,5.6752,5.681,5.7187,5.7042,5.6839,5.7187,5.7303,5.7303,5.7303,5.7303,5.7303,5.7303,5.7303,5.7303,5.7303,5.7303,5.7303,5.7303,5.7303,5.7303,5.7303,5.7303,5.7303,5.7303,5.7303,5.7303,5.7303,5.7303,5.7303,5.7303,5.7303,5.7303,5.7303,5.7303,5.7303,5.7303,5.7303,5.7303,5.7303,5.7303,5.7303,5.7303,5.7303,5.7303,5.7303,5.7303,5.7303,5.7303,5.7303,5.7303,0.0,5.2391,5.2391,5.2391,5.2391,0.0,0.0,5.2391,0.0,5.2391,5.2391,5.2391,5.2391,5.2937,5.3647,5.4376,0.0,0.0,0.0,5.5827,0.0,0.0,0.0,0.0,0.0,0.0,0.0,0.0,0.0,0.0,5.3474,5.3474,5.3474,5.3474,5.3474,5.3474,5.3474,5.3474,5.3474,5.3474,5.3474,5.3789,5.4252,5.3789,5.4126,0.0,0.0,0.0,0.0,5.493,5.4619,5.4226,5.4052,5.42,5.449,5.4577,5.501,5.5591,5.6229,5.6461,5.6578,5.7129,5.7303,5.7303,5.7303,5.7303,5.7303,5.7303,5.7303,5.7303,5.7303,5.7303,5.7303,5.7303,5.7303,5.7303,5.7303,5.7303,5.7303,5.7303,5.7303,5.7303,5.7303,5.7303,5.7303,5.7303,5.7303,5.7303,5.7303,5.7303,5.7303,5.7303,5.7303,5.7303,5.7303,5.7303,5.7303,5.7303,5.7303,5.7303,5.7303,5.7303,5.7303,5.7303,5.7303,5.7303,5.7303,5.7303,5.7303,5.7303,5.7303,5.7303,5.2259,0.0,5.2391,5.2391,5.2391,5.2391,0.0,0.0,0.0,0.0,0.0,5.2391,5.2391,5.2937,5.3647,0.0,0.0,0.0,0.0,0.0,0.0,0.0,0.0,0.0,0.0,0.0,0.0,0.0,0.0,5.3474,5.3474,5.3474,5.3474,5.3474,5.3474,5.3474,5.3474,5.3474,5.3474,5.3474,5.3474,5.3684,5.3993,5.4071,5.4385,0.0,0.0,0.0,5.4535,5.4951,5.4543,5.3768,5.4632,5.4767,5.4606,5.5591,5.6055,5.6258,5.6868,5.71,5.71,5.7245,5.7303,5.7303,5.7303,5.7303,5.7303,5.7303,5.7303,5.7303,5.7303,5.7303,5.7303,5.7303,5.7303,5.7303,5.7303,5.7303,5.7303,5.7303,5.7303,5.7303,5.7303,5.7303,5.7303,5.7303,5.7303,5.7303,5.7303,5.7303,5.7303,5.7303,5.7303,5.7303,5.7303,5.7303,5.7303,5.7303,5.7303,5.7303,5.7303,5.7303,5.7303,5.7303,5.7303,5.7303,5.7303,5.7303,5.7303,5.7303,5.7303,5.7303,5.2192,5.2391,5.2391,5.2391,5.2391,5.2391,5.2391,0.0,0.0,0.0,0.0,5.2391,5.2391,5.3235,0.0,0.0,0.0,0.0,0.0,0.0,0.0,0.0,0.0,0.0,0.0,0.0,0.0,0.0,0.0,5.3474,5.3474,5.3474,5.3474,5.3474,5.3474,5.3474,5.3474,5.3474,5.3474,5.3474,5.3474,5.371,5.4071,5.4097,5.4359,0.0,0.0,0.0,5.4539,5.4875,5.4568,5.3951,5.4808,5.5036,5.5012,5.6026,5.6578,5.6868,5.7187,5.7303,5.7303,5.7303,5.7303,5.7303,5.7303,5.7303,5.7303,5.7303,5.7303,5.7303,5.7303,5.7303,5.7303,5.7303,5.7303,5.7303,5.7303,5.7303,5.7303,5.7303,5.7303,5.7303,5.7303,5.7303,5.7303,5.7303,5.7303,5.7303,5.7303,5.7303,5.7303,5.7303,5.7303,5.7303,5.7303,5.7303,5.7303,5.7303,5.7303,5.7303,5.7303,5.7303,5.7303,5.7303,5.7303,5.7303,5.7303,5.7303,5.7303,5.7303,5.7303,5.7303,5.2159,5.2391,5.2391,5.2391,5.2391,5.2391,5.2391,5.2391,0.0,0.0,0.0,0.0,5.2524,5.3632,0.0,0.0,0.0,0.0,0.0,0.0,0.0,0.0,0.0,0.0,0.0,0.0,0.0,0.0,0.0,5.3474,5.3474,5.3474,5.3474,5.3474,5.3474,5.3474,5.3474,5.3474,5.3474,5.3474,5.3474,5.3789,5.4304,5.4045,5.4256,5.4803,0.0,0.0,5.4722,5.4828,5.4679,5.4462,5.4929,5.5279,5.5649,5.6287,5.6868,5.7303,5.7303,5.7303,5.7303,5.7303,5.7303,5.7303,5.7303,5.7303,5.7303,5.7303,5.7303,5.7303,5.7303,5.7303,5.7303,5.7303,5.7303,5.7303,5.7303,5.7303,5.7303,5.7303,5.7303,5.7303,5.7303,5.7303,5.7303,5.7303,5.7303,5.7303,5.7303,5.7303,5.7303,5.7303,5.7303,5.7303,5.7303,5.7303,5.7303,5.7303,5.7303,5.7303,5.7303,5.7303,5.7303,5.7303,5.7303,5.7303,5.7303,5.7303,5.7303,5.7303,5.7303,5.7303,5.2027,5.2391,5.2391,5.2391,5.2391,5.2391,5.2391,5.2391,0.0,0.0,0.0,0.0,0.0,5.3912,0.0,0.0,0.0,0.0,0.0,0.0,0.0,0.0,0.0,0.0,0.0,0.0,0.0,0.0,0.0,5.3474,5.3474,5.3474,5.3474,5.3474,5.3474,5.3474,5.3474,5.3474,5.3474,5.3474,5.3474,5.3789,5.4304,5.4252,5.4436,5.4828,0.0,5.4849,5.4406,5.4926,5.4997,5.4905,5.5766,5.6169,5.6316,5.6955,5.7216,5.7303,5.7303,5.7303,5.7303,5.7303,5.7303,5.7303,5.7303,5.7303,5.7303,5.7303,5.7303,5.7303,5.7303,5.7303,5.7303,5.7303,5.7303,5.7303,5.7303,5.7303,5.7303,5.7303,5.7303,5.7303,5.7303,5.7303,5.7303,5.7303,5.7303,5.7303,5.7303,5.7303,5.7303,5.7303,5.7303,5.7303,5.7303,5.7303,5.7303,5.7303,5.7303,5.7303,5.7303,5.7303,5.7303,5.7303,5.7303,5.7303,5.7303,5.7303,5.7303,5.7303,5.7303,5.7303,5.1994,5.2391,5.2391,5.2391,5.2391,5.2391,5.2391,5.2391,0.0,0.0,0.0,0.0,0.0,0.0,0.0,0.0,0.0,0.0,0.0,0.0,0.0,0.0,0.0,0.0,0.0,0.0,0.0,0.0,0.0,0.0,5.3474,5.3474,5.3474,5.3474,5.3474,5.3474,5.3474,5.3474,5.3474,5.3474,5.3474,5.3789,5.4304,5.4304,5.4381,5.4539,0.0,5.4845,5.4329,5.4798,5.503,5.5184,5.5803,5.6178,5.649,5.7071,5.7303,5.7303,5.7303,5.7303,5.7303,5.7303,5.7303,5.7303,5.7303,5.7303,5.7303,5.7303,5.7303,5.7303,5.7303,5.7303,5.7303,5.7303,5.7303,5.7303,5.7303,5.7303,5.7303,5.7303,5.7303,5.7303,5.7303,5.7303,5.7303,5.7303,5.7303,5.7303,5.7303,5.7303,5.7303,5.7303,5.7303,5.7303,5.7303,5.7303,5.7303,5.7303,5.7303,5.7303,5.7303,5.7303,5.7303,5.7303,5.7303,5.7303,5.7303,5.7303,5.7303,5.7303,5.7303,5.7388,5.206,5.2391,5.2391,5.2391,5.2391,5.2391,5.2391,5.2391,0.0,0.0,0.0,0.0,0.0,0.0,0.0,0.0,0.0,0.0,0.0,0.0,0.0,0.0,0.0,0.0,0.0,0.0,0.0,0.0,0.0,0.0,5.3474,5.3474,5.3474,5.3474,5.3474,5.3474,5.3474,5.3474,5.3474,5.3474,5.3474,5.3789,5.4304,5.4226,5.4252,5.4329,5.4875,5.4794,5.4329,5.4671,5.5068,5.5548,5.5752,5.6127,5.6665,5.7129,5.7303,5.7303,5.7303,5.7303,5.7303,5.7303,5.7303,5.7303,5.7303,5.7303,5.7303,5.7303,5.7303,5.7303,5.7303,5.7303,5.7303,5.7303,5.7303,5.7303,5.7303,5.7303,5.7303,5.7303,5.7303,5.7303,5.7303,5.7303,5.7303,5.7303,5.7303,5.7303,5.7303,5.7303,5.7303,5.7303,5.7303,5.7303,5.7303,5.7303,5.7303,5.7303,5.7303,5.7303,5.7303,5.7303,5.7303,5.7303,5.7303,5.7303,5.7303,5.7303,5.7303,5.7303,5.7303,5.7472,5.2192,5.2391,5.2391,5.2391,5.2391,5.2391,5.2391,5.2391,0.0,5.2391,0.0,0.0,0.0,0.0,0.0,0.0,0.0,0.0,0.0,0.0,0.0,0.0,0.0,0.0,0.0,0.0,0.0,0.0,0.0,0.0,5.3474,5.3474,5.3474,5.3474,5.3474,5.3474,5.3474,5.3474,5.3474,5.3474,5.3474,5.3789,5.4304,5.4045,5.4045,5.4329,5.4671,5.4645,5.4329,5.4671,5.5364,5.6196,5.5901,5.639,5.7245,5.7274,5.7303,5.7303,5.7303,5.7303,5.7303,5.7303,5.7303,5.7303,5.7303,5.7303,5.7303,5.7303,5.7303,5.7303,5.7303,5.7303,5.7303,5.7303,5.7303,5.7303,5.7303,5.7303,5.7303,5.7303,5.7303,5.7303,5.7303,5.7303,5.7303,5.7303,5.7303,5.7303,5.7303,5.7303,5.7303,5.7303,5.7303,5.7303,5.7303,5.7303,5.7303,5.7303,5.7303,5.7303,5.7303,5.7303,5.7303,5.7303,5.7303,5.7303,5.7303,5.7303,5.7303,5.7303,5.7303,5.7472,5.2192,5.2391,5.2391,5.2391,5.2391,0.0,0.0,5.2391,5.2391,5.2391,5.2391,0.0,0.0,0.0,0.0,0.0,0.0,0.0,0.0,0.0,0.0,0.0,0.0,0.0,0.0,0.0,0.0,0.0,0.0,0.0,5.3474,5.3474,5.3474,5.3474,5.3474,5.3474,5.3474,5.3474,5.3579,5.3762,5.3762,5.4049,5.4619,5.4517,5.4517,5.4645,5.4926,5.4743,5.4329,5.4671,5.526,5.6045,5.6534,5.6952,5.7303,5.7303,5.7303,5.7303,5.7303,5.7303,5.7303,5.7303,5.7303,5.7303,5.7303,5.7303,5.7303,5.7303,5.7303,5.7303,5.7303,5.7303,5.7303,5.7303,5.7303,5.7303,5.7303,5.7303,5.7303,5.7303,5.7303,5.7303,5.7303,5.7303,5.7303,5.7303,5.7303,5.7303,5.7303,5.7303,5.7303,5.7303,5.7303,5.7303,5.7303,5.7303,5.7303,5.7303,5.7303,5.7303,5.7303,5.7303,5.7303,5.7303,5.7303,5.7303,5.7303,5.7303,5.7303,5.7303,5.7303,5.7556,5.2259,5.2391,5.2391,5.2391,0.0,0.0,5.2391,5.2391,5.2391,5.2391,5.2539,0.0,0.0,0.0,0.0,0.0,0.0,0.0,0.0,0.0,0.0,0.0,0.0,0.0,0.0,0.0,0.0,0.0,0.0,0.0,0.0,5.3474,5.3474,5.3474,5.3474,5.3474,5.3474,5.3474,5.3684,5.4019,5.3916,5.4204,5.4803,5.4594,5.4568,5.4671,5.4951,5.4769,5.4329,5.4539,5.5047,5.5775,5.6866,5.7303,5.7303,5.7303,5.7303,5.7303,5.7303,5.7303,5.7303,5.7303,5.7303,5.7303,5.7303,5.7303,5.7303,5.7303,5.7303,5.7303,5.7303,5.7303,5.7303,5.7303,5.7303,5.7303,5.7303,5.7303,5.7303,5.7303,5.7303,5.7303,5.7303,5.7303,5.7303,5.7303,5.7303,5.7303,5.7303,5.7303,5.7303,5.7303,5.7303,5.7303,5.7303,5.7303,5.7303,5.7303,5.7303,5.7303,5.7303,5.7303,5.7303,5.7303,5.7303,5.7303,5.7303,5.7303,5.7303,5.7303,5.7416,5.7723,5.2391,5.2391,5.2391,0.0,0.0,0.0,5.2391,5.2391,5.2391,5.2424,0.0,5.3682,0.0,0.0,0.0,0.0,0.0,0.0,0.0,0.0,0.0,0.0,0.0,0.0,0.0,0.0,0.0,0.0,0.0,0.0,0.0,5.3474,5.3474,5.3474,5.3474,5.3474,5.3474,5.3474,5.3789,5.4304,5.4019,5.4204,5.4777,5.4178,5.4045,5.4329,5.4671,5.4619,5.4304,5.4304,5.4759,5.5533,5.681,5.7303,5.7303,5.7303,5.7303,5.7303,5.7303,5.7303,5.7303,5.7303,5.7303,5.7303,5.7303,5.7303,5.7303,5.7303,5.7303,5.7303,5.7303,5.7303,5.7303,5.7303,5.7303,5.7303,5.7303,5.7303,5.7303,5.7303,5.7303,5.7303,5.7303,5.7303,5.7303,5.7303,5.7303,5.7303,5.7303,5.7303,5.7303,5.7303,5.7303,5.7303,5.7303,5.7303,5.7303,5.7303,5.7303,5.7303,5.7303,5.7303,5.7303,5.7303,5.7303,5.7303,5.7303,5.7303,5.7303,5.7303,5.7669,5.7948,5.2391,5.2391,0.0,5.2391,0.0,0.0,0.0,5.2391,0.0,0.0,5.3661,0.0,0.0,0.0,0.0,0.0,0.0,0.0,0.0,0.0,0.0,0.0,0.0,0.0,0.0,0.0,0.0,0.0,0.0,0.0,0.0,5.3474,5.3474,5.3474,5.3474,5.3474,5.3474,5.3474,5.3789,5.4304,5.3841,5.4126,5.5053,5.4696,5.4568,5.4671,5.4951,5.4696,5.4081,5.4778,5.5309,5.5775,5.6893,5.7303,5.7303,5.7303,5.7303,5.7303,5.7303,5.7303,5.7303,5.7303,5.7303,5.7303,5.7303,5.7303,5.7303,5.7303,5.7303,5.7303,5.7303,5.7303,5.7303,5.7303,5.7303,5.7303,5.7303,5.7303,5.7303,5.7303,5.7303,5.7303,5.7303,5.7303,5.7303,5.7303,5.7303,5.7303,5.7303,5.7303,5.7303,5.7303,5.7303,5.7303,5.7303,5.7303,5.7303,5.7303,5.7303,5.7303,5.7303,5.7303,5.7303,5.7303,5.7303,5.7303,5.7303,5.7528,5.7669,5.7669,5.7975,5.8252,5.2391,5.2391,0.0,5.2391,5.2391,5.2391,5.2391,0.0,0.0,0.0,0.0,0.0,0.0,0.0,0.0,0.0,0.0,0.0,0.0,0.0,0.0,0.0,0.0,0.0,0.0,0.0,0.0,0.0,0.0,0.0,0.0,5.3474,5.3474,5.3474,5.3474,5.3474,5.3474,5.3474,5.3789,5.4304,5.3762,5.4104,5.5179,5.4798,5.4619,5.4619,5.4769,5.4487,5.4007,5.5243,5.5715,5.5748,5.6866,5.7303,5.7303,5.7303,5.7303,5.7303,5.7303,5.7303,5.7303,5.7303,5.7303,5.7303,5.7303,5.7303,5.7303,5.7303,5.7303,5.7303,5.7303,5.7303,5.7303,5.7303,5.7303,5.7303,5.7303,5.7303,5.7303,5.7303,5.7303,5.7303,5.7303,5.7303,5.7303,5.7303,5.7303,5.7303,5.7303,5.7303,5.7303,5.7303,5.7303,5.7303,5.7303,5.7303,5.7303,5.7303,5.7303,5.7303,5.7303,5.7303,5.7303,5.7303,5.7303,5.7303,5.7303,5.7641,5.7809,5.7809,5.8225,5.85,5.2391,5.2391,0.0,5.2391,5.2391,0.0,5.2391,0.0,0.0,0.0,0.0,0.0,0.0,0.0,0.0,0.0,0.0,0.0,0.0,0.0,0.0,0.0,0.0,0.0,0.0,0.0,0.0,0.0,0.0,0.0,0.0,5.3474,5.3474,5.3474,5.3474,5.3474,5.3474,5.3474,5.3762,5.4252,5.3736,5.4049,5.5103,5.4535,5.4329,5.4329,5.4252,5.4097,5.4007,5.5592,5.5906,5.5533,5.681,5.7303,5.7303,5.7303,5.7303,5.7303,5.7303,5.7303,5.7303,5.7303,5.7303,5.7303,5.7303,5.7303,5.7303,5.7303,5.7303,5.7303,5.7303,5.7303,5.7303,5.7303,5.7303,5.7303,5.7303,5.7303,5.7303,5.7303,5.7303,5.7303,5.7303,5.7303,5.7303,5.7303,5.7303,5.7303,5.7303,5.7303,5.7303,5.7303,5.7303,5.7303,5.7303,5.7303,5.7303,5.7303,5.7303,5.7303,5.7303,5.7303,5.7303,5.7303,5.7303,5.7303,5.7303,5.7669,5.7836,5.7864,5.8445,5.8664,5.2391,5.2391,0.0,0.0,5.2391,5.2391,5.2391,5.2391,0.0,0.0,0.0,0.0,0.0,0.0,0.0,0.0,0.0,0.0,0.0,0.0,0.0,0.0,0.0,0.0,0.0,0.0,0.0,0.0,0.0,0.0,5.3474,5.3474,5.3474,5.3474,5.3474,5.3474,5.3474,5.3474,5.3658,0.0,5.3658,5.3841,5.4483,5.4355,5.4436,5.4645,5.3945,5.3762,5.3981,5.5136,5.5525,5.5533,5.681,5.7303,5.7303,5.7303,5.7303,5.7303,5.7303,5.7303,5.7303,5.7303,5.7303,5.7303,5.7303,5.7303,5.7303,5.7303,5.7303,5.7303,5.7303,5.7303,5.7303,5.7303,5.7303,5.7303,5.7303,5.7303,5.7303,5.7303,5.7303,5.7303,5.7303,5.7303,5.7303,5.7303,5.7303,5.7303,5.7303,5.7303,5.7303,5.7303,5.7303,5.7303,5.7303,5.7303,5.7303,5.7303,5.7303,5.7303,5.7303,5.7303,5.7303,5.7303,5.7303,5.7303,5.7303,5.7835,5.8085,5.8112,5.8746,5.8498,5.2391,0.0,0.0,5.2391,0.0,5.2391,5.2391,5.2391,0.0,0.0,0.0,0.0,0.0,0.0,0.0,0.0,0.0,0.0,0.0,0.0,0.0,0.0,0.0,0.0,0.0,0.0,0.0,0.0,0.0,5.3474,5.3474,5.3474,5.3474,5.3474,5.3474,5.3474,5.3474,5.3474,5.371,5.4071,5.3684,5.3789,5.4304,5.4175,5.4282,5.4513,5.3945,5.371,5.3798,5.4762,5.5263,5.5503,5.649,5.7042,5.7303,5.7303,5.7303,5.7303,5.7303,5.7303,5.7303,5.7303,5.7303,5.7303,5.7303,5.7303,5.7303,5.7303,5.7303,5.7303,5.7303,5.7303,5.7303,5.7303,5.7303,5.7303,5.7303,5.7303,5.7303,5.7303,5.7303,5.7303,5.7303,5.7303,5.7303,5.7303,5.7303,5.7303,5.7303,5.7303,5.7303,5.7303,5.7303,5.7303,5.7303,5.7303,5.7303,5.7303,5.7303,5.7303,5.7303,5.7303,5.7303,5.7303,5.7444,5.7528,5.7528,5.8142,5.8445,5.8445,5.8882,5.8413,5.2391,5.2391,5.2391,5.2391,5.2391,0.0,5.2391,5.2391,5.2822,0.0,0.0,0.0,0.0,0.0,0.0,0.0,0.0,0.0,0.0,0.0,0.0,0.0,0.0,0.0,0.0,0.0,0.0,0.0,0.0,5.3474,5.3474,5.3474,5.3474,5.3474,5.3474,5.3474,5.3474,5.3474,5.3762,5.4226,5.3789,5.3841,5.4304,5.3968,5.3993,5.4278,5.3971,5.371,5.3559,5.4465,5.5053,5.5474,5.6142,5.6781,5.7303,5.7303,5.7303,5.7303,5.7303,5.7303,5.7303,5.7303,5.7303,5.7303,5.7303,5.7303,5.7303,5.7303,5.7303,5.7303,5.7303,5.7303,5.7303,5.7303,5.7303,5.7303,5.7303,5.7303,5.7303,5.7303,5.7303,5.7303,5.7303,5.7303,5.7303,5.7303,5.7303,5.7303,5.7303,5.7303,5.7303,5.7303,5.7303,5.7303,5.7303,5.7303,5.7303,5.7303,5.7303,5.7303,5.7303,5.736,5.7388,5.7388,5.7669,5.7836,5.7864,5.8417,5.8721,5.8721,5.8773,5.811,5.2391,0.0,5.2391,0.0,5.2391,5.2391,0.0,0.0,5.2822,0.0,0.0,0.0,0.0,0.0,0.0,0.0,0.0,0.0,0.0,0.0,0.0,0.0,0.0,0.0,0.0,0.0,0.0,0.0,5.3474,5.3474,5.3474,5.3474,5.3474,5.3474,5.3474,5.3474,5.3474,5.3474,5.3658,5.3942,5.3893,5.3993,5.4278,5.3789,5.3841,5.4278,5.3789,5.3527,5.3559,5.4253,5.4892,5.5474,5.6142,5.6781,5.7303,5.7303,5.7303,5.7303,5.7303,5.7303,5.7303,5.7303,5.7303,5.7303,5.7303,5.7303,5.7303,5.7303,5.7303,5.7303,5.7303,5.7303,5.7303,5.7303,5.7303,5.7303,5.7303,5.7303,5.7303,5.7303,5.7303,5.7303,5.7303,5.7303,5.7303,5.7303,5.7303,5.7303,5.7303,5.7303,5.7303,5.7303,5.7303,5.7303,5.7303,5.7303,5.7303,5.7303,5.7303,5.7303,5.7303,5.7585,5.7725,5.7725,5.7781,5.792,5.8169,5.85,5.8721,5.8694,5.7832,5.6821,5.2391,5.2391,5.2391,0.0,5.2391,5.2391,5.2391,0.0,5.2678,0.0,0.0,0.0,0.0,0.0,0.0,0.0,0.0,0.0,0.0,0.0,0.0,0.0,0.0,0.0,0.0,0.0,0.0,0.0,5.3474,5.3474,5.3474,5.3474,5.3474,5.3474,5.3474,5.3474,5.3474,5.3474,5.3553,5.3684,5.4182,5.4359,5.4278,5.3919,5.3916,5.4278,5.3736,5.3474,5.3503,5.3822,5.4342,5.4981,5.5591,5.6229,5.6839,5.7187,5.7303,5.7303,5.7303,5.7303,5.7303,5.7303,5.7303,5.7303,5.7303,5.7303,5.7303,5.7303,5.7303,5.7303,5.7303,5.7303,5.7303,5.7303,5.7303,5.7303,5.7303,5.7303,5.7303,5.7303,5.7303,5.7303,5.7303,5.7303,5.7303,5.7303,5.7303,5.7303,5.7303,5.7303,5.7303,5.7303,5.7303,5.7303,5.7303,5.7303,5.7303,5.7303,5.7303,5.7303,5.7303,5.7641,5.7864,5.8031,5.8197,5.8362,5.8472,5.8773,5.8552,5.7832,5.7412,5.6165,5.2391,0.0,5.2391,5.2391,5.2391,5.2391,0.0,0.0,5.2503,0.0,0.0,0.0,0.0,0.0,0.0,0.0,0.0,0.0,0.0,0.0,0.0,0.0,0.0,0.0,0.0,0.0,0.0,0.0,5.3474,5.3474,5.3474,5.3474,5.3474,5.3474,5.3474,5.3474,5.3474,5.3553,5.3553,5.35,5.4311,5.4487,5.42,5.3968,5.3993,5.4175,5.371,5.3474,5.3474,5.3474,5.388,5.4575,5.5184,5.5823,5.649,5.7071,5.7303,5.7303,5.7303,5.7303,5.7303,5.7303,5.7303,5.7303,5.7303,5.7303,5.7303,5.7303,5.7303,5.7303,5.7303,5.7303,5.7303,5.7303,5.7303,5.7303,5.7303,5.7303,5.7303,5.7303,5.7303,5.7303,5.7303,5.7303,5.7303,5.7303,5.7303,5.7303,5.7303,5.7303,5.7303,5.7303,5.7303,5.7303,5.7303,5.7303,5.7303,5.7303,5.7303,5.7303,5.7303,5.7697,5.8003,5.8195,5.8582,5.88,5.88,5.8662,5.8109,5.7159,5.6565,5.5268,0.0,5.2391,0.0,5.2391,5.2391,5.2391,0.0,0.0,0.0,0.0,0.0,0.0,0.0,0.0,0.0,0.0,0.0,0.0,0.0,0.0,0.0,0.0,0.0,0.0,0.0,0.0,0.0,0.0,5.3474,5.3474,5.3474,5.3474,5.3474,5.3474,5.3474,5.3474,5.3474,5.3762,5.3762,5.35,5.4045,5.4175,5.3916,5.3919,5.3919,5.3919,5.3605,5.3474,5.3474,5.3474,5.388,5.4575,5.5184,5.5823,5.649,5.7071,5.7303,5.7303,5.7303,5.7303,5.7303,5.7303,5.7303,5.7303,5.7303,5.7303,5.7303,5.7303,5.7303,5.7303,5.7303,5.7303,5.7303,5.7303,5.7303,5.7303,5.7303,5.7303,5.7303,5.7303,5.7303,5.7303,5.7303,5.7303,5.7303,5.7303,5.7303,5.7303,5.7303,5.7303,5.7303,5.7303,5.7303,5.7303,5.7303,5.7303,5.7303,5.7303,5.7303,5.7303,5.7303,5.7863,5.8167,5.8195,5.8773,5.9072,5.9072,5.7887,5.7243,5.7131,5.4798,5.3604,0.0,0.0,0.0,5.2391,5.2391,5.2391,5.2391,5.214,5.2193,0.0,0.0,0.0,0.0,0.0,0.0,0.0,0.0,0.0,0.0,0.0,0.0,0.0,0.0,0.0,0.0,0.0,0.0,0.0,0.0,5.3474,5.3474,5.3474,5.3474,5.3474,5.3474,5.3474,5.3474,5.3762,5.3762,5.35,5.4259,5.4359,5.3919,5.4071,5.4045,5.3893,5.3605,5.3474,5.3474,5.3474,5.3619,5.3909,5.4575,5.5213,5.5852,5.649,5.6984,5.7303,5.7303,5.7303,5.7303,5.7303,5.7303,5.7303,5.7303,5.7303,5.7303,5.7303,5.7303,5.7303,5.7303,5.7303,5.7303,5.7303,5.7303,5.7303,5.7303,5.7303,5.7303,5.7303,5.7303,5.7303,5.7303,5.7303,5.7303,5.7303,5.7303,5.7303,5.7303,5.7303,5.7303,5.7303,5.7303,5.7303,5.7303,5.7303,5.7303,5.7303,5.7303,5.7303,5.7303,5.7863,5.8195,5.8195,5.88,5.9099,5.9099,5.7832,5.6792,5.5992,5.4293,5.3055,5.2391,0.0,0.0,0.0,5.2391,5.2391,5.2391,0.0,5.2127,0.0,0.0,0.0,0.0,0.0,0.0,0.0,0.0,0.0,0.0,0.0,0.0,0.0,0.0,0.0,0.0,0.0,0.0,0.0,0.0,0.0,5.3474,5.3474,5.3474,5.3474,5.3474,5.3474,5.3474,5.3684,5.3684,5.35,5.4182,5.4259,5.3789,5.4045,5.4019,5.3762,5.3579,5.3474,5.3474,5.3474,5.3474,5.3588,5.4255,5.4722,5.5186,5.6084,5.6665,5.7042,5.7245,5.7303,5.7303,5.7303,5.7303,5.7303,5.7303,5.7303,5.7303,5.7303,5.7303,5.7303,5.7303,5.7303,5.7303,5.7303,5.7303,5.7303,5.7303,5.7303,5.7303,5.7303,5.7303,5.7303,5.7303,5.7303,5.7303,5.7303,5.7303,5.7303,5.7303,5.7303,5.7303,5.7303,5.7303,5.7303,5.7303,5.7303,5.7303,5.7303,5.7303,5.736,5.7444,5.7918,5.825,5.839,5.8443,5.844,5.844,5.7216,5.6194,5.5382,5.3661,5.2514,0.0,0.0,0.0,0.0,0.0,0.0,5.2391,0.0,5.214,0.0,0.0,0.0,0.0,0.0,0.0,0.0,0.0,0.0,0.0,0.0,0.0,0.0,0.0,0.0,0.0,0.0,0.0,0.0,5.3474,5.3474,5.3474,5.3474,5.3474,5.3474,5.3474,5.3474,5.3474,5.3474,5.3474,5.3474,5.3789,5.3762,5.35,5.3789,5.3762,5.3474,5.3474,5.3474,5.3474,5.3474,5.3474,5.3561,5.4226,5.4487,5.4662,5.591,5.6374,5.649,5.7071,5.7303,5.7303,5.7303,5.7303,5.7303,5.7303,5.7303,5.7303,5.7303,5.7303,5.7303,5.7303,5.7303,5.7303,5.7303,5.7303,5.7303,5.7303,5.7303,5.7303,5.7303,5.7303,5.7303,5.7303,5.7303,5.7303,5.7303,5.7303,5.7303,5.7303,5.7303,5.7303,5.7303,5.7303,5.7303,5.7303,5.7303,5.7303,5.7303,5.7303,5.7444,5.7781,5.8086,5.8362,5.8637,5.7693,5.7159,5.7131,5.5935,5.5353,5.5295,5.2777,5.1936,5.2391,0.0,0.0,0.0,0.0,0.0,0.0,0.0,0.0,5.2356,0.0,0.0,0.0,0.0,0.0,0.0,0.0,0.0,0.0,0.0,0.0,0.0,0.0,0.0,0.0,0.0,0.0,0.0,5.3474,5.3474,5.3474,5.3474,5.3474,5.3474,5.3474,5.3474,5.3474,5.3474,5.3474,5.3474,5.3789,5.3762,5.35,5.3789,5.3762,5.3474,5.3474,5.3474,5.3474,5.3474,5.3474,5.3503,5.3677,5.4055,5.4519,5.4923,5.562,5.6432,5.6607,5.6926,5.7303,5.7303,5.7303,5.7303,5.7303,5.7303,5.7303,5.7303,5.7303,5.7303,5.7303,5.7303,5.7303,5.7303,5.7303,5.7303,5.7303,5.7303,5.7303,5.7303,5.7303,5.7303,5.7303,5.7303,5.7303,5.7303,5.7303,5.7303,5.7303,5.7303,5.7303,5.7303,5.7303,5.7303,5.7303,5.7303,5.7303,5.7303,5.7528,5.7697,5.7809,5.828,5.8167,5.733,5.7244,5.6764,5.5906,5.4649,5.4024,5.3992,5.2797,5.2563,0.0,0.0,0.0,0.0,0.0,0.0,5.2391,5.2302,5.2248,0.0,0.0,0.0,0.0,0.0,0.0,0.0,0.0,0.0,0.0,0.0,0.0,0.0,0.0,0.0,0.0,5.3355,5.3474,5.3474,5.3474,5.3474,5.3474,5.3474,5.3474,5.3474,5.3474,5.3474,5.3474,5.3474,5.3474,5.3474,5.3658,5.3658,5.35,5.3658,5.3632,5.3474,5.3474,5.3474,5.3474,5.3474,5.3474,5.3474,5.3474,5.3762,5.4113,5.4374,5.4981,5.5707,5.6229,5.6636,5.6984,5.7216,5.7303,5.7303,5.7303,5.7303,5.7303,5.7303,5.7303,5.7303,5.7303,5.7303,5.7303,5.7303,5.7303,5.7303,5.7303,5.7303,5.7303,5.7303,5.7303,5.7303,5.7303,5.7303,5.7303,5.7303,5.7303,5.7303,5.7303,5.7303,5.7303,5.7303,5.7303,5.7303,5.7303,5.7303,5.736,5.75,5.7697,5.792,5.8169,5.85,5.8388,5.7778,5.6906,5.5559,5.3784,5.3601,5.3373,5.3058,5.3149,5.34,0.0,0.0,0.0,0.0,0.0,0.0,5.2391,5.2391,5.2391,0.0,0.0,0.0,0.0,0.0,0.0,0.0,0.0,0.0,0.0,0.0,0.0,0.0,0.0,0.0,5.2594,5.3094,5.3442,5.3474,5.3474,5.3474,5.3474,5.3474,5.3474,5.3474,5.3474,5.3474,5.3474,5.3474,5.3474,5.3474,5.3474,5.3474,5.3474,5.3474,5.3474,5.3474,5.3474,5.3474,5.3474,5.3474,5.3474,5.3474,5.3474,5.3474,5.3588,5.4168,5.4458,5.4662,5.5823,5.6287,5.649,5.7042,5.7245,5.7303,5.7303,5.7303,5.7303,5.7303,5.7303,5.7303,5.7303,5.7303,5.7303,5.7303,5.7303,5.7303,5.7303,5.7303,5.7303,5.7303,5.7303,5.7303,5.7303,5.7303,5.7303,5.7303,5.7303,5.7303,5.7303,5.7303,5.7303,5.7303,5.7303,5.7331,5.736,5.736,5.75,5.7836,5.7892,5.8142,5.8694,5.8748,5.8719,5.8689,5.6251,5.3899,5.1701,5.2826,5.3116,5.2616,5.3687,5.4236,0.0,0.0,0.0,0.0,0.0,0.0,5.2391,5.2391,5.2391,0.0,5.2356,5.2552,0.0,0.0,0.0,0.0,0.0,0.0,0.0,0.0,0.0,0.0,0.0,0.0,5.2558,5.2714,5.2978,5.3471,5.3474,5.3474,5.3474,5.3474,5.3474,5.3474,5.3474,5.3474,5.3474,5.3474,5.3474,5.3474,5.3474,5.3474,5.3474,5.3474,5.3474,5.3474,5.3474,5.3474,5.3474,5.3474,5.3474,5.3474,5.3474,5.3474,5.353,5.3675,5.4052,5.4546,5.4807,5.5562,5.6432,5.6549,5.6897,5.7303,5.7303,5.7303,5.7303,5.7303,5.7303,5.7303,5.7303,5.7303,5.7303,5.7303,5.7303,5.7303,5.7303,5.7303,5.7303,5.7303,5.7303,5.7303,5.7303,5.7303,5.7303,5.7303,5.7303,5.7303,5.7303,5.7303,5.7303,5.7303,5.7303,5.7416,5.7697,5.7697,5.7836,5.8085,5.839,5.8584,5.8694,5.8909,5.8112,5.6165,5.3634,5.2336,5.2328,5.2555,5.287,5.3243,5.3896,5.4471,0.0,0.0,0.0,5.2391,0.0,0.0,0.0,5.2391,5.2284,5.1853,5.2089,5.2365,5.2261,0.0,0.0,0.0,0.0,0.0,0.0,0.0,0.0,0.0,0.0,0.0,5.2398,5.3023,5.3469,5.3498,5.3474,5.3474,5.3474,5.3474,5.3474,5.3474,5.3474,5.3474,5.3474,5.3474,5.3474,5.3474,5.3474,5.3474,5.3474,5.3474,5.3474,5.3474,5.3474,5.3474,5.3474,5.3474,5.3474,5.3474,5.3474,5.3474,5.3474,5.3474,5.3706,5.4052,5.4374,5.4923,5.5562,5.62,5.6607,5.6926,5.7216,5.7303,5.7303,5.7303,5.7303,5.7303,5.7303,5.7303,5.7303,5.7303,5.7303,5.7303,5.7303,5.7303,5.7303,5.7303,5.7303,5.7303,5.7303,5.7303,5.7303,5.7303,5.7303,5.7303,5.7303,5.7303,5.7303,5.7303,5.7303,5.7444,5.7781,5.7809,5.7975,5.8417,5.8609,5.8776,5.8882,5.9018,5.7944,5.547,5.354,5.2514,5.2485,5.2798,5.3243,5.3818,5.4393,5.4811,0.0,0.0,0.0,0.0,0.0,5.2391,0.0,0.0,0.0,5.1471,0.0,0.0,0.0,0.0,0.0,0.0,0.0,0.0,0.0,0.0,0.0,0.0,0.0,0.0,0.0,5.3579,5.4057,5.3425,5.3442,5.3474,5.3474,5.3474,5.3474,5.3474,5.3474,5.3474,5.3474,5.3474,5.3474,5.3474,5.3474,5.3474,5.3474,5.3474,5.3474,5.3474,5.3474,5.3474,5.3474,5.3474,5.3474,5.3474,5.3474,5.3474,5.3474,5.3474,5.3474,5.3588,5.4113,5.4374,5.4691,5.5707,5.62,5.652,5.7129,5.7303,5.7303,5.7303,5.7303,5.7303,5.7303,5.7303,5.7303,5.7303,5.7303,5.7303,5.7303,5.7303,5.7303,5.7303,5.7303,5.7303,5.7303,5.7303,5.7303,5.7303,5.7303,5.7303,5.7303,5.7303,5.7303,5.7303,5.736,5.7528,5.7864,5.7948,5.8197,5.8719,5.8803,5.8855,5.9072,5.8634,5.733,5.5062,5.3891,5.3077,5.2668,5.3269,5.3766,5.421,5.4811,5.5099,0.0,0.0,0.0,0.0,5.2391,0.0,0.0,0.0,5.1434,5.2089,0.0,0.0,0.0,0.0,0.0,0.0,0.0,0.0,0.0,0.0,0.0,0.0,0.0,0.0,0.0,5.4148,5.3923,5.3041,5.3286,5.3474,5.3474,5.3474,5.3474,5.3474,5.3474,5.3474,5.3474,5.3474,5.3474,5.3474,5.3474,5.3474,5.3474,5.3474,5.3474,5.3474,5.3474,5.3474,5.3474,5.3474,5.3474,5.3474,5.3474,5.3474,5.3474,5.3474,5.3474,5.3503,5.359,5.3996,5.4519,5.4691,5.5503,5.652,5.7129,5.7303,5.7303,5.7303,5.7303,5.7303,5.7303,5.7303,5.7303,5.7303,5.7303,5.7303,5.7303,5.7303,5.7303,5.7303,5.7303,5.7303,5.7303,5.7303,5.7303,5.7303,5.7303,5.7303,5.7303,5.7303,5.7303,5.7303,5.7585,5.7864,5.8112,5.8417,5.8719,5.9018,5.9045,5.9072,5.9099,5.6992,5.515,5.3724,5.3001,5.2853,5.3295,5.3844,5.4131,5.421,5.4811,5.5099,0.0,0.0,0.0,0.0,0.0,0.0,5.1637,0.0,5.0932,0.0,0.0,0.0,0.0,0.0,0.0,0.0,0.0,0.0,0.0,0.0,0.0,0.0,0.0,0.0,0.0,0.0,0.0,0.0,5.2882,5.3123,5.35,5.3474,5.3474,5.3474,5.3474,5.3474,5.3474,5.3474,5.3474,5.3474,5.3474,5.3474,5.3474,5.3474,5.3474,5.3474,5.3474,5.3474,5.3474,5.3474,5.3474,5.3474,5.3474,5.3474,5.3474,5.3474,5.3474,5.3474,5.3474,5.3677,5.4025,5.4807,5.5649,5.652,5.7129,5.7303,5.7303,5.7303,5.7303,5.7303,5.7303,5.7303,5.7303,5.7303,5.7303,5.7303,5.7303,5.7303,5.7303,5.7303,5.7303,5.7303,5.7303,5.7303,5.7303,5.7303,5.7303,5.7303,5.7303,5.7303,5.7303,5.7303,5.7613,5.792,5.8167,5.85,5.88,5.9072,5.8413,5.7998,5.7998,5.5645,5.4054,5.351,5.2863,5.2798,5.34,5.3949,5.4393,5.4733,5.4994,5.5099,5.1526,0.0,0.0,0.0,0.0,0.0,0.0,0.0,0.0,0.0,0.0,0.0,0.0,0.0,0.0,0.0,0.0,0.0,0.0,0.0,0.0,0.0,0.0,0.0,0.0,0.0,0.0,5.2394,5.265,5.2982,5.3344,5.3518,5.3579,5.3474,5.3474,5.3474,5.3474,5.3474,5.3474,5.3474,5.3474,5.3474,5.3474,5.3474,5.3474,5.3474,5.3474,5.3474,5.3474,5.3474,5.3474,5.3474,5.3474,5.3474,5.3474,5.3474,5.3474,5.3474,5.3474,5.3474,5.3704,5.4807,5.5591,5.6258,5.6868,5.7158,5.7303,5.7303,5.7303,5.7303,5.7303,5.7303,5.7303,5.7303,5.7303,5.7303,5.7303,5.7303,5.7303,5.7303,5.7303,5.7303,5.7303,5.7303,5.7303,5.7303,5.7303,5.7303,5.7303,5.7303,5.7331,5.7416,5.7725,5.8031,5.8335,5.8609,5.8882,5.9072,5.7915,5.7047,5.6707,5.4621,5.341,5.3236,5.2912,5.3034,5.3609,5.4184,5.468,5.5099,5.5099,5.5099,0.0,0.0,0.0,5.0876,0.0,0.0,0.0,0.0,5.006,0.0,0.0,0.0,0.0,0.0,0.0,0.0,0.0,0.0,0.0,0.0,0.0,0.0,0.0,0.0,0.0,0.0,5.2796,5.1892,5.2807,5.3238,5.2931,5.3542,5.3789,5.35,5.3474,5.3474,5.3474,5.3474,5.3474,5.3474,5.3474,5.3474,5.3474,5.3474,5.3474,5.3474,5.3474,5.3474,5.3474,5.3474,5.3474,5.3474,5.3474,5.3474,5.3474,5.3474,5.3474,5.3474,5.3474,5.3474,5.359,5.4287,5.4952,5.5562,5.6229,5.6839,5.7303,5.7303,5.7303,5.7303,5.7303,5.7303,5.7303,5.7303,5.7303,5.7303,5.7303,5.7303,5.7303,5.7303,5.7303,5.7303,5.7303,5.7303,5.7303,5.7303,5.7303,5.7303,5.7303,5.7303,5.7416,5.7753,5.8031,5.8335,5.8666,5.8909,5.9072,5.9099,5.7915,5.6708,5.55,5.4204,5.3198,5.2554,5.3092,5.3635,5.4184,5.4785,5.5072,5.5099,5.5099,5.5099,0.0,0.0,4.8656,4.9765,0.0,0.0,0.0,0.0,0.0,0.0,0.0,0.0,0.0,0.0,0.0,0.0,0.0,0.0,0.0,0.0,0.0,0.0,0.0,0.0,0.0,0.0,0.0,5.155,5.1876,5.2397,5.3179,5.3469,5.3635,5.3759,5.3762,5.3684,5.3474,5.3474,5.3474,5.3474,5.3474,5.3474,5.3474,5.3474,5.3474,5.3474,5.3474,5.3474,5.3474,5.3474,5.3474,5.3474,5.3474,5.3474,5.3474,5.3474,5.3474,5.3474,5.3474,5.3474,5.359,5.4284,5.4662,5.4983,5.6084,5.6549,5.6781,5.7187,5.7303,5.7303,5.7303,5.7303,5.7303,5.7303,5.7303,5.7303,5.7303,5.7303,5.7303,5.7303,5.7303,5.7303,5.7303,5.7303,5.7303,5.7303,5.7303,5.7303,5.7303,5.7472,5.7669,5.7781,5.8225,5.8582,5.8694,5.8936,5.8743,5.7915,5.6679,5.5442,5.4174,5.2903,5.2327,5.2485,5.3086,5.3661,5.421,5.4811,5.5099,5.5099,5.5099,5.5099,4.8065,4.7673,0.0,4.8636,4.8491,0.0,4.879,0.0,0.0,0.0,0.0,0.0,0.0,0.0,0.0,0.0,0.0,0.0,0.0,0.0,0.0,0.0,0.0,0.0,0.0,0.0,5.1462,5.1802,5.2055,5.2467,0.0,0.0,5.3557,5.389,5.3815,5.3684,5.3474,5.3474,5.3474,5.3474,5.3474,5.3474,5.3474,5.3474,5.3474,5.3474,5.3474,5.3474,5.3474,5.3474,5.3474,5.3474,5.3474,5.3474,5.3474,5.3474,5.3474,5.3474,5.3474,5.3474,5.3588,5.3996,5.4287,5.4691,5.5736,5.6229,5.6549,5.7129,5.7303,5.7303,5.7303,5.7303,5.7303,5.7303,5.7303,5.7303,5.7303,5.7303,5.7303,5.7303,5.7303,5.7303,5.7303,5.7303,5.7303,5.7303,5.7303,5.7331,5.7444,5.7669,5.7892,5.8086,5.8445,5.8748,5.8828,5.858,5.8053,5.7243,5.5617,5.4352,5.354,5.2284,5.1988,5.2798,5.3191,5.3766,5.4524,5.4916,5.5099,5.5099,5.5099,5.5099]}]]